Darstellungsparameter: Aktuell verwendete Einstellungen:
Skalierung der Graphiken ... ?
xyx+y,   Skalierungsfaktor:      Skalierung: Modus: x, Faktor: 1
Darstellungszeitraum ... ?
Vom - - bis: - -   Zeitraum: 19.02.2020 - 18.03.2020
Min/Max/Avg-Anzeige ... ?
Zeige MMA aktuell
Zeige MMA Monat
Zeige MMA alles
Zeige --A aktuell
Zeige --A Monat
Zeige --A alles
Keine MMA-Anzeige
MMA:
Keine MMA-Graphiken
MMA-Basis: 19.02.2020 - 18.03.2020
Quicknavigation für Darstellung... ?
Tage:      1T, 2T, 3T, 5T -1T -2T -3T -5T +1T +2T +3T +5T
Wochen: 1W, 2W, 3W -1W -2W -3W +1W +2W +3W
Monate: 1M, 3M, 6M -1M -3M -6M +1M +3M +6M
Jahre:    1J, 3J, 5J, 10J -1J -3J -5J -10J +1J +3J +5J +10J
Nutze für die Darstellung ... ?
Originaldaten oder Mittelwerte auf ...
Stundenbasis Tagesbasis Wochenbasis
Monatsbasis Jahresbasis      Datenbasis: Original-Daten
Darstellen als:
Statistik (Auto) Statistik J:M      Darstellung:
Zur Graphik,    zurück zur Übersicht aller Sensoren.
 
Tabellarische Datenbersicht: ?
 
Sensor: Nr:Datum:Temp:Feuchte:
Aussen-T/F 1 19-02-2020 00:07:18 6.8 C 33 %
2 19-02-2020 00:17:17 6.8 C 33 %
3 19-02-2020 00:27:17 6.7 C 32 %
4 19-02-2020 00:37:17 6.9 C 32 %
5 19-02-2020 00:47:17 7 C 31 %
6 19-02-2020 00:57:17 6.8 C 32 %
7 19-02-2020 01:07:17 7 C 32 %
8 19-02-2020 01:17:17 7 C 31 %
9 19-02-2020 01:27:17 6.8 C 32 %
10 19-02-2020 01:37:17 7 C 31 %
11 19-02-2020 01:47:17 6.8 C 32 %
12 19-02-2020 01:57:17 7 C 31 %
13 19-02-2020 02:07:18 6.9 C 32 %
14 19-02-2020 02:17:17 7.2 C 31 %
15 19-02-2020 02:27:17 7 C 31 %
16 19-02-2020 02:37:17 6.8 C 32 %
17 19-02-2020 02:47:18 6.8 C 32 %
18 19-02-2020 02:57:18 6.9 C 32 %
19 19-02-2020 03:07:17 6.9 C 32 %
20 19-02-2020 03:17:17 6.7 C 33 %
21 19-02-2020 03:27:17 6.6 C 33 %
22 19-02-2020 03:37:17 6.4 C 34 %
23 19-02-2020 03:47:17 6.2 C 35 %
24 19-02-2020 03:57:17 5.9 C 36 %
25 19-02-2020 04:07:18 6 C 36 %
Sensor: Nr:Datum:Temp:Feuchte:
Aussen-T/F 26 19-02-2020 04:17:17 6 C 36 %
27 19-02-2020 04:27:18 5.9 C 37 %
28 19-02-2020 04:37:18 5.8 C 37 %
29 19-02-2020 04:47:17 5.9 C 37 %
30 19-02-2020 04:57:17 6.2 C 36 %
31 19-02-2020 05:07:18 6.3 C 36 %
32 19-02-2020 05:17:17 6.4 C 35 %
33 19-02-2020 05:27:17 6.4 C 35 %
34 19-02-2020 05:37:17 6.3 C 35 %
35 19-02-2020 05:47:17 6.3 C 34 %
36 19-02-2020 05:57:17 6 C 34 %
37 19-02-2020 06:07:18 6 C 34 %
38 19-02-2020 06:17:17 5.9 C 35 %
39 19-02-2020 06:27:17 5.9 C 35 %
40 19-02-2020 06:37:18 5.8 C 35 %
41 19-02-2020 06:47:17 5.7 C 35 %
42 19-02-2020 06:57:17 5.4 C 35 %
43 19-02-2020 07:07:17 5.4 C 34 %
44 19-02-2020 07:17:17 5.6 C 34 %
45 19-02-2020 07:27:18 5.6 C 34 %
46 19-02-2020 07:37:18 5.3 C 35 %
47 19-02-2020 07:47:18 5.4 C 34 %
48 19-02-2020 07:57:18 5.3 C 34 %
49 19-02-2020 08:07:18 5.2 C 33 %
50 19-02-2020 08:17:17 5.3 C 34 %
Sensor: Nr:Datum:Temp:Feuchte:
Aussen-T/F 51 19-02-2020 08:27:17 4.9 C 35 %
52 19-02-2020 08:37:17 4.9 C 34 %
53 19-02-2020 08:47:17 4.8 C 34 %
54 19-02-2020 08:57:17 5 C 33 %
55 19-02-2020 09:07:17 5.1 C 33 %
56 19-02-2020 09:17:18 4.9 C 34 %
57 19-02-2020 09:27:18 5.1 C 33 %
58 19-02-2020 09:37:18 5.3 C 32 %
59 19-02-2020 09:47:17 5.3 C 32 %
60 19-02-2020 09:57:17 5.1 C 33 %
61 19-02-2020 10:07:18 4.2 C 35 %
62 19-02-2020 10:17:17 4.7 C 34 %
63 19-02-2020 10:27:17 5.2 C 33 %
64 19-02-2020 10:37:17 5.7 C 32 %
65 19-02-2020 10:47:17 5.8 C 31 %
66 19-02-2020 10:57:17 5.9 C 31 %
67 19-02-2020 11:07:18 6.4 C 31 %
68 19-02-2020 11:17:17 6.9 C 30 %
69 19-02-2020 11:27:17 6.7 C 30 %
70 19-02-2020 11:37:17 6.4 C 28 %
71 19-02-2020 11:47:18 6.5 C 27 %
72 19-02-2020 11:57:18 6.6 C 27 %
73 19-02-2020 12:07:18 6.7 C 27 %
74 19-02-2020 12:17:17 6.6 C 26 %
75 19-02-2020 12:27:18 6.8 C 26 %
Sensor: Nr:Datum:Temp:Feuchte:
Aussen-T/F 76 19-02-2020 12:37:18 6.8 C 25 %
77 19-02-2020 12:47:18 6.9 C 25 %
78 19-02-2020 12:57:18 7 C 25 %
79 19-02-2020 13:07:17 7.2 C 25 %
80 19-02-2020 13:17:17 7.1 C 20 %
81 19-02-2020 13:27:17 7.1 C 20 %
82 19-02-2020 13:37:18 7.3 C 20 %
83 19-02-2020 13:47:18 7.8 C 20 %
84 19-02-2020 13:57:18 7.7 C 20 %
85 19-02-2020 14:07:17 7.7 C 20 %
86 19-02-2020 14:17:17 7.7 C 20 %
87 19-02-2020 14:27:17 7.4 C 20 %
88 19-02-2020 14:37:17 7.1 C 20 %
89 19-02-2020 14:47:18 7.2 C 20 %
90 19-02-2020 14:57:18 7.2 C 20 %
91 19-02-2020 15:07:17 8.1 C 20 %
92 19-02-2020 15:17:17 8.2 C 20 %
93 19-02-2020 15:27:17 8.3 C 20 %
94 19-02-2020 15:37:17 7.5 C 20 %
95 19-02-2020 15:47:17 7.6 C 20 %
96 19-02-2020 15:57:17 8.5 C 20 %
97 19-02-2020 16:07:17 8 C 20 %
98 19-02-2020 16:17:17 8.2 C 20 %
99 19-02-2020 16:27:17 7.9 C 20 %
100 19-02-2020 16:37:18 7.5 C 20 %
Sensor: Nr:Datum:Temp:Feuchte:
Aussen-T/F 101 19-02-2020 16:47:18 7.4 C 20 %
102 19-02-2020 16:57:18 7.2 C 20 %
103 19-02-2020 17:07:18 7.1 C 20 %
104 19-02-2020 17:17:18 6.9 C 20 %
105 19-02-2020 17:27:18 6.5 C 20 %
106 19-02-2020 17:37:17 6.2 C 20 %
107 19-02-2020 17:47:18 5.6 C 20 %
108 19-02-2020 17:57:18 5 C 23 %
109 19-02-2020 18:07:17 4.5 C 28 %
110 19-02-2020 18:17:17 4.5 C 28 %
111 19-02-2020 18:27:17 4.2 C 30 %
112 19-02-2020 18:37:17 3.7 C 32 %
113 19-02-2020 18:47:17 3.3 C 32 %
114 19-02-2020 18:57:17 2.9 C 34 %
115 19-02-2020 19:07:17 2.8 C 35 %
116 19-02-2020 19:17:17 2.4 C 35 %
117 19-02-2020 19:27:17 2.3 C 35 %
118 19-02-2020 19:37:17 2 C 35 %
119 19-02-2020 19:47:17 1.7 C 37 %
120 19-02-2020 19:57:17 2 C 36 %
121 19-02-2020 20:07:17 1.7 C 37 %
122 19-02-2020 20:17:17 1.8 C 37 %
123 19-02-2020 20:27:17 2.1 C 35 %
124 19-02-2020 20:37:17 2 C 35 %
125 19-02-2020 20:47:17 2.2 C 35 %
Sensor: Nr:Datum:Temp:Feuchte:
Aussen-T/F 126 19-02-2020 20:57:17 2.8 C 35 %
127 19-02-2020 21:07:18 3.4 C 33 %
128 19-02-2020 21:17:17 3.4 C 33 %
129 19-02-2020 21:27:17 3 C 33 %
130 19-02-2020 21:37:17 4 C 31 %
131 19-02-2020 21:47:17 4.1 C 31 %
132 19-02-2020 21:57:17 4.5 C 31 %
133 19-02-2020 22:07:17 4.9 C 31 %
134 19-02-2020 22:17:18 5.5 C 30 %
135 19-02-2020 22:27:18 5.5 C 30 %
136 19-02-2020 22:37:18 5.5 C 30 %
137 19-02-2020 22:47:17 5.2 C 30 %
138 19-02-2020 22:57:18 5.1 C 31 %
139 19-02-2020 23:07:18 4.6 C 33 %
140 19-02-2020 23:17:17 4.5 C 35 %
141 19-02-2020 23:27:17 4.2 C 37 %
142 19-02-2020 23:37:17 4.3 C 37 %
143 19-02-2020 23:47:17 4.6 C 36 %
144 19-02-2020 23:57:17 4.6 C 36 %
145 20-02-2020 00:07:17 4.9 C 36 %
146 20-02-2020 00:17:17 4.9 C 36 %
147 20-02-2020 00:27:18 5.2 C 35 %
148 20-02-2020 00:37:18 5.4 C 35 %
149 20-02-2020 00:47:17 5.5 C 35 %
150 20-02-2020 00:57:17 4.9 C 36 %
Sensor: Nr:Datum:Temp:Feuchte:
Aussen-T/F 151 20-02-2020 01:07:17 4.8 C 38 %
152 20-02-2020 01:17:17 4.8 C 38 %
153 20-02-2020 01:27:18 4.8 C 38 %
154 20-02-2020 01:37:18 5 C 37 %
155 20-02-2020 01:47:17 5.3 C 37 %
156 20-02-2020 01:57:17 5.4 C 36 %
157 20-02-2020 02:07:18 5.6 C 36 %
158 20-02-2020 02:17:17 5.6 C 36 %
159 20-02-2020 02:27:17 5.8 C 36 %
160 20-02-2020 02:37:17 5.7 C 35 %
161 20-02-2020 02:47:17 5.8 C 35 %
162 20-02-2020 02:57:17 5.9 C 35 %
163 20-02-2020 03:07:17 6 C 35 %
164 20-02-2020 03:17:17 6.2 C 35 %
165 20-02-2020 03:27:17 6.3 C 35 %
166 20-02-2020 03:37:18 6.3 C 35 %
167 20-02-2020 03:47:17 6.4 C 35 %
168 20-02-2020 03:57:17 6.3 C 35 %
169 20-02-2020 04:07:18 6.4 C 35 %
170 20-02-2020 04:17:17 6.5 C 35 %
171 20-02-2020 04:27:17 6.5 C 35 %
172 20-02-2020 04:37:17 6.6 C 35 %
173 20-02-2020 04:47:18 6.5 C 35 %
174 20-02-2020 04:57:18 6.5 C 35 %
175 20-02-2020 05:07:18 6.5 C 35 %
Sensor: Nr:Datum:Temp:Feuchte:
Aussen-T/F 176 20-02-2020 05:17:17 6.5 C 35 %
177 20-02-2020 05:27:17 6.5 C 35 %
178 20-02-2020 05:37:17 6.7 C 35 %
179 20-02-2020 05:47:17 6.5 C 35 %
180 20-02-2020 05:57:17 6.6 C 35 %
181 20-02-2020 06:07:17 6.5 C 35 %
182 20-02-2020 06:17:17 6.3 C 36 %
183 20-02-2020 06:27:17 6.3 C 36 %
184 20-02-2020 06:37:17 6.5 C 36 %
185 20-02-2020 06:47:17 6.6 C 36 %
186 20-02-2020 06:57:17 6.5 C 36 %
187 20-02-2020 07:07:17 6.5 C 36 %
188 20-02-2020 07:17:17 6.3 C 37 %
189 20-02-2020 07:27:17 6.5 C 37 %
190 20-02-2020 07:37:17 6.6 C 36 %
191 20-02-2020 07:47:17 6.7 C 36 %
192 20-02-2020 07:57:17 6.6 C 37 %
193 20-02-2020 08:07:17 6.5 C 37 %
194 20-02-2020 08:17:17 6.6 C 37 %
195 20-02-2020 08:27:17 6.6 C 37 %
196 20-02-2020 08:37:17 6.6 C 37 %
197 20-02-2020 08:47:18 6.7 C 37 %
198 20-02-2020 08:57:18 6.8 C 37 %
199 20-02-2020 09:07:18 7.2 C 36 %
200 20-02-2020 09:17:18 7.3 C 36 %
Sensor: Nr:Datum:Temp:Feuchte:
Aussen-T/F 201 20-02-2020 09:27:18 7.6 C 35 %
202 20-02-2020 09:37:17 7.8 C 35 %
203 20-02-2020 09:47:17 7.9 C 35 %
204 20-02-2020 09:57:17 8.1 C 34 %
205 20-02-2020 10:07:18 8.1 C 34 %
206 20-02-2020 10:17:17 8.3 C 34 %
207 20-02-2020 10:27:17 8.5 C 33 %
208 20-02-2020 10:37:17 9 C 32 %
209 20-02-2020 10:47:17 8.8 C 32 %
210 20-02-2020 10:57:17 8.9 C 32 %
211 20-02-2020 11:07:18 9.1 C 32 %
212 20-02-2020 11:17:18 10.1 C 30 %
213 20-02-2020 11:27:18 10 C 30 %
214 20-02-2020 11:37:18 9.4 C 30 %
215 20-02-2020 11:47:17 9.1 C 30 %
216 20-02-2020 11:57:18 9.2 C 30 %
217 20-02-2020 12:07:18 9.3 C 30 %
218 20-02-2020 12:17:18 9.8 C 30 %
219 20-02-2020 12:27:18 10.1 C 28 %
220 20-02-2020 12:37:18 9.2 C 30 %
221 20-02-2020 12:47:18 8.2 C 33 %
222 20-02-2020 12:57:18 8.6 C 33 %
223 20-02-2020 13:07:18 9.1 C 32 %
224 20-02-2020 13:17:18 9.7 C 31 %
225 20-02-2020 13:27:18 9.6 C 30 %
Sensor: Nr:Datum:Temp:Feuchte:
Aussen-T/F 226 20-02-2020 13:37:18 9.6 C 30 %
227 20-02-2020 13:47:17 9.4 C 31 %
228 20-02-2020 13:57:17 10.3 C 29 %
229 20-02-2020 14:07:17 10.2 C 29 %
230 20-02-2020 14:17:17 10.1 C 28 %
231 20-02-2020 14:27:18 10 C 28 %
232 20-02-2020 14:37:18 10.7 C 28 %
233 20-02-2020 14:47:17 9.8 C 29 %
234 20-02-2020 14:57:17 9.8 C 29 %
235 20-02-2020 15:07:18 9.6 C 30 %
236 20-02-2020 15:17:17 10.1 C 28 %
237 20-02-2020 15:27:18 10.1 C 28 %
238 20-02-2020 15:37:18 10.5 C 28 %
239 20-02-2020 15:47:17 10.5 C 28 %
240 20-02-2020 15:57:17 9.6 C 29 %
241 20-02-2020 16:07:17 9.5 C 29 %
242 20-02-2020 16:17:17 9.5 C 29 %
243 20-02-2020 16:27:18 9.3 C 29 %
244 20-02-2020 16:37:18 9.1 C 30 %
245 20-02-2020 16:47:17 9.1 C 29 %
246 20-02-2020 16:57:17 9.1 C 29 %
247 20-02-2020 17:07:18 9 C 29 %
248 20-02-2020 17:17:17 9.2 C 29 %
249 20-02-2020 17:27:18 9.2 C 29 %
250 20-02-2020 17:37:18 9.2 C 29 %
Sensor: Nr:Datum:Temp:Feuchte:
Aussen-T/F 251 20-02-2020 17:47:17 9.1 C 29 %
252 20-02-2020 17:57:17 9.1 C 29 %
253 20-02-2020 18:07:18 9.1 C 29 %
254 20-02-2020 18:17:18 9 C 29 %
255 20-02-2020 18:27:18 8.9 C 30 %
256 20-02-2020 18:37:18 8.3 C 30 %
257 20-02-2020 18:47:18 8.1 C 31 %
258 20-02-2020 18:57:18 7.7 C 33 %
259 20-02-2020 19:07:18 7.7 C 33 %
260 20-02-2020 19:17:18 7.8 C 32 %
261 20-02-2020 19:27:18 8.1 C 31 %
262 20-02-2020 19:37:17 8.6 C 30 %
263 20-02-2020 19:47:18 9 C 30 %
264 20-02-2020 19:57:18 9.1 C 30 %
265 20-02-2020 20:07:18 9 C 30 %
266 20-02-2020 20:17:18 9 C 30 %
267 20-02-2020 20:27:18 9.3 C 29 %
268 20-02-2020 20:37:18 9.3 C 29 %
269 20-02-2020 20:47:18 9.2 C 29 %
270 20-02-2020 20:57:18 9.2 C 29 %
271 20-02-2020 21:07:18 8.8 C 30 %
272 20-02-2020 21:17:18 8.6 C 30 %
273 20-02-2020 21:27:18 8.6 C 31 %
274 20-02-2020 21:37:18 8.2 C 31 %
275 20-02-2020 21:47:17 8.2 C 32 %
Sensor: Nr:Datum:Temp:Feuchte:
Aussen-T/F 276 20-02-2020 21:57:18 7.8 C 33 %
277 20-02-2020 22:07:18 7.9 C 33 %
278 20-02-2020 22:17:17 7.8 C 35 %
279 20-02-2020 22:27:18 7.4 C 35 %
280 20-02-2020 22:37:18 7.1 C 38 %
281 20-02-2020 22:47:18 6 C 37 %
282 20-02-2020 22:57:18 5.8 C 37 %
283 20-02-2020 23:07:18 5.7 C 39 %
284 20-02-2020 23:17:18 5.8 C 37 %
285 20-02-2020 23:27:18 5.8 C 37 %
286 20-02-2020 23:37:17 6.1 C 35 %
287 20-02-2020 23:47:17 5.9 C 35 %
288 20-02-2020 23:57:17 5.2 C 35 %
289 21-02-2020 00:07:17 4.6 C 38 %
290 21-02-2020 00:17:18 4.5 C 39 %
291 21-02-2020 00:27:18 4.4 C 37 %
292 21-02-2020 00:37:18 4.8 C 36 %
293 21-02-2020 00:47:18 4.7 C 35 %
294 21-02-2020 00:57:18 4.6 C 35 %
295 21-02-2020 01:07:18 4.5 C 35 %
296 21-02-2020 01:17:17 4.1 C 35 %
297 21-02-2020 01:27:17 4.1 C 34 %
298 21-02-2020 01:37:17 4 C 34 %
299 21-02-2020 01:47:17 3.6 C 35 %
300 21-02-2020 01:57:17 3.6 C 35 %
Sensor: Nr:Datum:Temp:Feuchte:
Aussen-T/F 301 21-02-2020 02:07:18 3.5 C 35 %
302 21-02-2020 02:17:18 3.8 C 35 %
303 21-02-2020 02:27:18 3.4 C 36 %
304 21-02-2020 02:37:18 4 C 35 %
305 21-02-2020 02:47:17 3.9 C 35 %
306 21-02-2020 02:57:18 3.6 C 35 %
307 21-02-2020 03:07:18 4 C 34 %
308 21-02-2020 03:17:18 3.3 C 35 %
309 21-02-2020 03:27:18 2.9 C 37 %
310 21-02-2020 03:37:18 2.4 C 39 %
311 21-02-2020 03:47:17 2.7 C 38 %
312 21-02-2020 03:57:17 2.1 C 40 %
313 21-02-2020 04:07:18 2.1 C 40 %
314 21-02-2020 04:17:18 2.2 C 39 %
315 21-02-2020 04:27:18 2.4 C 39 %
316 21-02-2020 04:37:18 2 C 40 %
317 21-02-2020 04:47:17 2.5 C 39 %
318 21-02-2020 04:57:17 2.3 C 39 %
319 21-02-2020 05:07:17 2 C 39 %
320 21-02-2020 05:17:17 1.6 C 41 %
321 21-02-2020 05:27:17 2.1 C 39 %
322 21-02-2020 05:37:17 2.5 C 38 %
323 21-02-2020 05:47:17 1.9 C 40 %
324 21-02-2020 05:57:17 2.4 C 38 %
325 21-02-2020 06:07:17 2.3 C 38 %
Sensor: Nr:Datum:Temp:Feuchte:
Aussen-T/F 326 21-02-2020 06:17:17 1.7 C 40 %
327 21-02-2020 06:27:17 1.9 C 40 %
328 21-02-2020 06:37:18 1.4 C 41 %
329 21-02-2020 06:47:17 1.6 C 40 %
330 21-02-2020 06:57:17 2.1 C 38 %
331 21-02-2020 07:07:17 2.4 C 37 %
332 21-02-2020 07:17:18 2.8 C 36 %
333 21-02-2020 07:27:18 2.7 C 36 %
334 21-02-2020 07:37:18 3 C 35 %
335 21-02-2020 07:47:17 2.5 C 36 %
336 21-02-2020 07:57:17 2.2 C 37 %
337 21-02-2020 08:07:17 1.5 C 39 %
338 21-02-2020 08:17:17 1.3 C 40 %
339 21-02-2020 08:27:17 1.1 C 40 %
340 21-02-2020 08:37:17 1.7 C 40 %
341 21-02-2020 08:47:17 2.2 C 38 %
342 21-02-2020 08:57:17 2.7 C 37 %
343 21-02-2020 09:07:17 2.6 C 37 %
344 21-02-2020 09:17:17 3.1 C 36 %
345 21-02-2020 09:27:17 2.9 C 37 %
346 21-02-2020 09:37:17 2.9 C 36 %
347 21-02-2020 09:47:17 3.1 C 36 %
348 21-02-2020 09:57:17 3.6 C 35 %
349 21-02-2020 10:07:17 3.5 C 36 %
350 21-02-2020 10:17:17 3.5 C 36 %
Sensor: Nr:Datum:Temp:Feuchte:
Aussen-T/F 351 21-02-2020 10:27:17 3.9 C 35 %
352 21-02-2020 10:37:18 4.5 C 34 %
353 21-02-2020 10:47:17 4.7 C 34 %
354 21-02-2020 10:57:17 4.8 C 34 %
355 21-02-2020 11:07:18 5.9 C 32 %
356 21-02-2020 11:17:17 6.3 C 31 %
357 21-02-2020 11:27:17 6.8 C 30 %
358 21-02-2020 11:37:18 5.9 C 31 %
359 21-02-2020 11:47:17 6.7 C 30 %
360 21-02-2020 11:57:17 7.1 C 30 %
361 21-02-2020 12:07:18 7.3 C 30 %
362 21-02-2020 12:17:18 7.3 C 29 %
363 21-02-2020 12:27:18 7.3 C 29 %
364 21-02-2020 12:37:18 7.4 C 29 %
365 21-02-2020 12:47:17 7.4 C 29 %
366 21-02-2020 12:57:17 7.9 C 30 %
367 21-02-2020 13:07:17 8.3 C 27 %
368 21-02-2020 13:17:18 7.8 C 27 %
369 21-02-2020 13:27:18 8.9 C 27 %
370 21-02-2020 13:37:18 8.2 C 27 %
371 21-02-2020 13:47:17 7.5 C 27 %
372 21-02-2020 13:57:17 7.9 C 27 %
373 21-02-2020 14:07:18 7.8 C 27 %
374 21-02-2020 14:17:17 7.9 C 27 %
375 21-02-2020 14:27:18 8.8 C 27 %
Sensor: Nr:Datum:Temp:Feuchte:
Aussen-T/F 376 21-02-2020 14:37:18 8.4 C 27 %
377 21-02-2020 14:47:17 8.7 C 27 %
378 21-02-2020 14:57:17 9 C 26 %
379 21-02-2020 15:07:18 9 C 26 %
380 21-02-2020 15:17:18 8.4 C 26 %
381 21-02-2020 15:27:18 8.7 C 26 %
382 21-02-2020 15:37:18 8.1 C 26 %
383 21-02-2020 15:47:17 8.3 C 26 %
384 21-02-2020 15:57:17 8.3 C 26 %
385 21-02-2020 16:07:17 8.1 C 26 %
386 21-02-2020 16:17:17 8 C 27 %
387 21-02-2020 16:27:17 8 C 26 %
388 21-02-2020 16:37:17 8.1 C 26 %
389 21-02-2020 16:47:17 7.9 C 26 %
390 21-02-2020 16:57:17 7.9 C 26 %
391 21-02-2020 17:07:18 7.7 C 26 %
392 21-02-2020 17:17:17 7.3 C 26 %
393 21-02-2020 17:27:17 7.3 C 26 %
394 21-02-2020 17:37:18 6.8 C 28 %
395 21-02-2020 17:47:17 6.5 C 28 %
396 21-02-2020 17:57:18 6.4 C 29 %
397 21-02-2020 18:07:18 5.9 C 30 %
398 21-02-2020 18:17:17 5.6 C 31 %
399 21-02-2020 18:27:17 4.9 C 33 %
400 21-02-2020 18:37:17 4.5 C 33 %
Sensor: Nr:Datum:Temp:Feuchte:
Aussen-T/F 401 21-02-2020 18:47:17 4.3 C 34 %
402 21-02-2020 18:57:17 4.2 C 34 %
403 21-02-2020 19:07:17 4.7 C 34 %
404 21-02-2020 19:17:17 4 C 34 %
405 21-02-2020 19:27:17 4 C 35 %
406 21-02-2020 19:37:17 3.8 C 35 %
407 21-02-2020 19:47:17 4 C 34 %
408 21-02-2020 19:57:17 4.7 C 33 %
409 21-02-2020 20:07:18 4.9 C 33 %
410 21-02-2020 20:17:18 4.4 C 33 %
411 21-02-2020 20:27:18 4.4 C 33 %
412 21-02-2020 20:37:18 5.6 C 31 %
413 21-02-2020 20:47:17 5.8 C 31 %
414 21-02-2020 20:57:17 5.7 C 31 %
415 21-02-2020 21:07:18 5.4 C 31 %
416 21-02-2020 21:17:18 5.1 C 31 %
417 21-02-2020 21:27:18 4.9 C 32 %
418 21-02-2020 21:37:18 4.3 C 34 %
419 21-02-2020 21:47:18 4.3 C 35 %
420 21-02-2020 21:57:18 4.6 C 34 %
421 21-02-2020 22:07:18 4 C 35 %
422 21-02-2020 22:17:17 3.4 C 36 %
423 21-02-2020 22:27:17 3.6 C 38 %
424 21-02-2020 22:37:17 3.8 C 37 %
425 21-02-2020 22:47:17 3.7 C 37 %
Sensor: Nr:Datum:Temp:Feuchte:
Aussen-T/F 426 21-02-2020 22:57:17 3.2 C 37 %
427 21-02-2020 23:07:17 3 C 38 %
428 21-02-2020 23:17:17 3.6 C 38 %
429 21-02-2020 23:27:18 3.3 C 38 %
430 21-02-2020 23:37:18 3.9 C 37 %
431 21-02-2020 23:47:18 4.2 C 36 %
432 21-02-2020 23:57:18 4 C 36 %
433 22-02-2020 00:07:18 3.3 C 37 %
434 22-02-2020 00:17:17 3.4 C 38 %
435 22-02-2020 00:27:17 3.7 C 37 %
436 22-02-2020 00:37:17 3.8 C 37 %
437 22-02-2020 00:47:18 4.1 C 36 %
438 22-02-2020 00:57:18 3.6 C 37 %
439 22-02-2020 01:07:18 3.8 C 37 %
440 22-02-2020 01:17:18 4 C 35 %
441 22-02-2020 01:27:18 3.8 C 37 %
442 22-02-2020 01:37:18 3.4 C 37 %
443 22-02-2020 01:47:17 3.1 C 37 %
444 22-02-2020 01:57:18 3.1 C 38 %
445 22-02-2020 02:07:18 4.6 C 36 %
446 22-02-2020 02:17:18 4.7 C 35 %
447 22-02-2020 02:27:18 4.4 C 35 %
448 22-02-2020 02:37:17 4.8 C 35 %
449 22-02-2020 02:47:17 5.1 C 34 %
450 22-02-2020 02:57:17 4.7 C 35 %
Sensor: Nr:Datum:Temp:Feuchte:
Aussen-T/F 451 22-02-2020 03:07:17 4.8 C 35 %
452 22-02-2020 03:17:17 5 C 34 %
453 22-02-2020 03:27:17 4.7 C 35 %
454 22-02-2020 03:37:17 5.2 C 34 %
455 22-02-2020 03:47:17 4.9 C 35 %
456 22-02-2020 03:57:18 4.6 C 35 %
457 22-02-2020 04:07:18 4.5 C 35 %
458 22-02-2020 04:17:18 4.7 C 35 %
459 22-02-2020 04:27:18 4.2 C 35 %
460 22-02-2020 04:37:18 4.2 C 35 %
461 22-02-2020 04:47:17 4.7 C 35 %
462 22-02-2020 04:57:18 5 C 34 %
463 22-02-2020 05:07:18 5 C 34 %
464 22-02-2020 05:17:18 5.2 C 34 %
465 22-02-2020 05:27:18 5.4 C 34 %
466 22-02-2020 05:37:17 5.4 C 33 %
467 22-02-2020 05:47:18 5.4 C 33 %
468 22-02-2020 05:57:18 5.2 C 34 %
469 22-02-2020 06:07:18 5.2 C 33 %
470 22-02-2020 06:17:17 5.3 C 34 %
471 22-02-2020 06:27:17 5.3 C 34 %
472 22-02-2020 06:37:17 5.5 C 33 %
473 22-02-2020 06:47:18 5.3 C 33 %
474 22-02-2020 06:57:18 5.4 C 33 %
475 22-02-2020 07:07:18 5.2 C 33 %
Sensor: Nr:Datum:Temp:Feuchte:
Aussen-T/F 476 22-02-2020 07:17:18 5 C 33 %
477 22-02-2020 07:27:18 5 C 34 %
478 22-02-2020 07:37:18 4.8 C 35 %
479 22-02-2020 07:47:17 5.3 C 34 %
480 22-02-2020 07:57:18 5 C 34 %
481 22-02-2020 08:07:18 5.4 C 33 %
482 22-02-2020 08:17:18 5.4 C 33 %
483 22-02-2020 08:27:18 5.2 C 33 %
484 22-02-2020 08:37:18 5.4 C 33 %
485 22-02-2020 08:47:17 5.7 C 33 %
486 22-02-2020 08:57:17 5.9 C 33 %
487 22-02-2020 09:07:17 6.1 C 32 %
488 22-02-2020 09:17:17 6.3 C 32 %
489 22-02-2020 09:27:17 6.4 C 32 %
490 22-02-2020 09:37:17 6.4 C 31 %
491 22-02-2020 09:47:17 6.5 C 31 %
492 22-02-2020 09:57:17 6.9 C 31 %
493 22-02-2020 10:07:17 7 C 30 %
494 22-02-2020 10:17:17 7.2 C 30 %
495 22-02-2020 10:27:17 7.2 C 30 %
496 22-02-2020 10:37:17 7.3 C 30 %
497 22-02-2020 10:47:18 7.2 C 30 %
498 22-02-2020 10:57:18 7.4 C 30 %
499 22-02-2020 11:07:18 7.5 C 30 %
500 22-02-2020 11:17:18 7.5 C 30 %
Sensor: Nr:Datum:Temp:Feuchte:
Aussen-T/F 501 22-02-2020 11:27:18 7.6 C 29 %
502 22-02-2020 11:37:18 7.7 C 28 %
503 22-02-2020 11:47:17 7.9 C 28 %
504 22-02-2020 11:57:17 8.1 C 27 %
505 22-02-2020 12:07:18 8.4 C 27 %
506 22-02-2020 12:17:18 8.5 C 26 %
507 22-02-2020 12:27:18 8.6 C 27 %
508 22-02-2020 12:37:18 8.8 C 26 %
509 22-02-2020 12:47:18 8.8 C 26 %
510 22-02-2020 12:57:18 9 C 25 %
511 22-02-2020 13:07:18 9.3 C 25 %
512 22-02-2020 13:17:18 9.7 C 25 %
513 22-02-2020 13:27:18 10.2 C 21 %
514 22-02-2020 13:37:18 10.2 C 20 %
515 22-02-2020 13:47:17 10.2 C 20 %
516 22-02-2020 13:57:18 10.2 C 20 %
517 22-02-2020 14:07:18 10.2 C 20 %
518 22-02-2020 14:17:17 10.1 C 20 %
519 22-02-2020 14:27:18 10.1 C 20 %
520 22-02-2020 14:37:18 10.2 C 20 %
521 22-02-2020 14:47:17 10.2 C 20 %
522 22-02-2020 14:57:17 10.1 C 20 %
523 22-02-2020 15:07:17 10.2 C 20 %
524 22-02-2020 15:17:17 10.2 C 20 %
525 22-02-2020 15:27:18 10.4 C 20 %
Sensor: Nr:Datum:Temp:Feuchte:
Aussen-T/F 526 22-02-2020 15:37:18 10.6 C 21 %
527 22-02-2020 15:47:17 10.7 C 20 %
528 22-02-2020 15:57:17 10.8 C 21 %
529 22-02-2020 16:07:18 10.7 C 21 %
530 22-02-2020 16:17:18 10.6 C 22 %
531 22-02-2020 16:27:18 10.4 C 22 %
532 22-02-2020 16:37:18 10.2 C 23 %
533 22-02-2020 16:47:18 10.3 C 25 %
534 22-02-2020 16:57:18 10.2 C 25 %
535 22-02-2020 17:07:17 10.1 C 25 %
536 22-02-2020 17:17:18 10.1 C 25 %
537 22-02-2020 17:27:18 10.2 C 25 %
538 22-02-2020 17:37:18 10.2 C 25 %
539 22-02-2020 17:47:18 10.2 C 25 %
540 22-02-2020 17:57:18 10 C 25 %
541 22-02-2020 18:07:18 9.9 C 26 %
542 22-02-2020 18:17:18 9.9 C 27 %
543 22-02-2020 18:27:18 9.8 C 27 %
544 22-02-2020 18:37:18 9.7 C 28 %
545 22-02-2020 18:47:18 9.7 C 29 %
546 22-02-2020 18:57:18 9.5 C 30 %
547 22-02-2020 19:07:18 9.6 C 30 %
548 22-02-2020 19:17:17 9.6 C 30 %
549 22-02-2020 19:27:17 9.6 C 31 %
550 22-02-2020 19:37:17 9.6 C 30 %
Sensor: Nr:Datum:Temp:Feuchte:
Aussen-T/F 551 22-02-2020 19:47:18 9.9 C 30 %
552 22-02-2020 19:57:18 9.8 C 31 %
553 22-02-2020 20:07:18 10 C 30 %
554 22-02-2020 20:17:18 9.9 C 31 %
555 22-02-2020 20:27:18 10 C 30 %
556 22-02-2020 20:37:18 9.9 C 31 %
557 22-02-2020 20:47:17 10 C 31 %
558 22-02-2020 20:57:17 9.9 C 32 %
559 22-02-2020 21:07:18 9.9 C 32 %
560 22-02-2020 21:17:17 10.2 C 31 %
561 22-02-2020 21:27:17 10.2 C 31 %
562 22-02-2020 21:37:18 10.3 C 31 %
563 22-02-2020 21:47:17 10.2 C 31 %
564 22-02-2020 21:57:17 10.3 C 31 %
565 22-02-2020 22:07:17 10.4 C 31 %
566 22-02-2020 22:17:17 10.6 C 31 %
567 22-02-2020 22:27:17 10.7 C 31 %
568 22-02-2020 22:37:18 10.7 C 31 %
569 22-02-2020 22:47:17 10.6 C 31 %
570 22-02-2020 22:57:17 10.5 C 31 %
571 22-02-2020 23:07:17 10.5 C 31 %
572 22-02-2020 23:17:17 10.5 C 31 %
573 22-02-2020 23:27:17 10.5 C 31 %
574 22-02-2020 23:37:17 10.5 C 31 %
575 22-02-2020 23:47:17 10.6 C 31 %
Sensor: Nr:Datum:Temp:Feuchte:
Aussen-T/F 576 22-02-2020 23:57:18 10.5 C 31 %
577 23-02-2020 00:07:18 10.7 C 31 %
578 23-02-2020 00:17:18 10.8 C 31 %
579 23-02-2020 00:27:18 10 C 31 %
580 23-02-2020 00:37:18 9.7 C 33 %
581 23-02-2020 00:47:17 9.4 C 35 %
582 23-02-2020 00:57:18 9.2 C 36 %
583 23-02-2020 01:07:18 9 C 38 %
584 23-02-2020 01:17:18 9.3 C 37 %
585 23-02-2020 01:27:18 9.3 C 37 %
586 23-02-2020 01:37:18 9.6 C 36 %
587 23-02-2020 01:47:17 9.6 C 36 %
588 23-02-2020 01:57:17 9.7 C 36 %
589 23-02-2020 02:07:18 9.4 C 36 %
590 23-02-2020 02:17:18 9.3 C 36 %
591 23-02-2020 02:27:18 9.5 C 36 %
592 23-02-2020 02:37:18 9.8 C 35 %
593 23-02-2020 02:47:17 10 C 34 %
594 23-02-2020 02:57:17 10 C 34 %
595 23-02-2020 03:07:18 10 C 33 %
596 23-02-2020 03:17:17 10.2 C 33 %
597 23-02-2020 03:27:17 9.8 C 35 %
598 23-02-2020 03:37:17 9.6 C 35 %
599 23-02-2020 03:47:17 9.7 C 35 %
600 23-02-2020 03:57:17 9.7 C 35 %
Sensor: Nr:Datum:Temp:Feuchte:
Aussen-T/F 601 23-02-2020 04:07:17 10.3 C 33 %
602 23-02-2020 04:17:17 10.2 C 33 %
603 23-02-2020 04:27:17 10.1 C 33 %
604 23-02-2020 04:37:17 10.2 C 33 %
605 23-02-2020 04:47:17 10 C 33 %
606 23-02-2020 04:57:17 10.1 C 33 %
607 23-02-2020 05:07:18 9.6 C 35 %
608 23-02-2020 05:17:17 9.8 C 35 %
609 23-02-2020 05:27:17 10 C 34 %
610 23-02-2020 05:37:18 10.2 C 34 %
611 23-02-2020 05:47:17 10.2 C 34 %
612 23-02-2020 05:57:17 9.6 C 35 %
613 23-02-2020 06:07:18 9.5 C 35 %
614 23-02-2020 06:17:17 9.7 C 35 %
615 23-02-2020 06:27:17 9.8 C 35 %
616 23-02-2020 06:37:18 10 C 34 %
617 23-02-2020 06:47:17 9.7 C 35 %
618 23-02-2020 06:57:17 9.3 C 35 %
619 23-02-2020 07:07:18 9.3 C 35 %
620 23-02-2020 07:17:18 9.5 C 36 %
621 23-02-2020 07:27:18 9.8 C 35 %
622 23-02-2020 07:37:18 9.6 C 36 %
623 23-02-2020 07:47:17 9.6 C 36 %
624 23-02-2020 07:57:17 9.8 C 36 %
625 23-02-2020 08:07:17 9.8 C 36 %
Sensor: Nr:Datum:Temp:Feuchte:
Aussen-T/F 626 23-02-2020 08:17:17 9.8 C 36 %
627 23-02-2020 08:27:17 10.1 C 35 %
628 23-02-2020 08:37:17 10.1 C 35 %
629 23-02-2020 08:47:17 10.2 C 35 %
630 23-02-2020 08:57:17 10.1 C 35 %
631 23-02-2020 09:07:17 10.1 C 35 %
632 23-02-2020 09:17:17 10 C 35 %
633 23-02-2020 09:27:17 10 C 35 %
634 23-02-2020 09:37:17 10 C 35 %
635 23-02-2020 09:47:18 10.1 C 35 %
636 23-02-2020 09:57:18 10.1 C 36 %
637 23-02-2020 10:07:17 10.1 C 36 %
638 23-02-2020 10:17:17 10.5 C 35 %
639 23-02-2020 10:27:18 10.6 C 35 %
640 23-02-2020 10:37:17 10.9 C 35 %
641 23-02-2020 10:47:17 10.9 C 35 %
642 23-02-2020 10:57:17 10.9 C 35 %
643 23-02-2020 11:07:17 11 C 34 %
644 23-02-2020 11:17:17 11.1 C 34 %
645 23-02-2020 11:27:17 11 C 34 %
646 23-02-2020 11:37:17 11.1 C 34 %
647 23-02-2020 11:47:17 11.2 C 34 %
648 23-02-2020 11:57:17 11.4 C 34 %
649 23-02-2020 12:07:17 11.5 C 34 %
650 23-02-2020 12:17:17 11.5 C 34 %
Sensor: Nr:Datum:Temp:Feuchte:
Aussen-T/F 651 23-02-2020 12:27:17 11.6 C 34 %
652 23-02-2020 12:37:18 11.6 C 34 %
653 23-02-2020 12:47:17 11.7 C 34 %
654 23-02-2020 12:57:17 11.7 C 34 %
655 23-02-2020 13:07:17 11.8 C 33 %
656 23-02-2020 13:17:17 11.8 C 33 %
657 23-02-2020 13:27:17 11.8 C 33 %
658 23-02-2020 13:37:18 11.8 C 33 %
659 23-02-2020 13:47:17 11.8 C 33 %
660 23-02-2020 13:57:18 11.8 C 33 %
661 23-02-2020 14:07:17 11.8 C 33 %
662 23-02-2020 14:17:17 11.7 C 33 %
663 23-02-2020 14:27:17 11.8 C 34 %
664 23-02-2020 14:37:18 11.9 C 34 %
665 23-02-2020 14:47:17 11.9 C 34 %
666 23-02-2020 14:57:17 11.9 C 34 %
667 23-02-2020 15:07:17 11.9 C 34 %
668 23-02-2020 15:17:17 11.9 C 34 %
669 23-02-2020 15:27:17 12 C 33 %
670 23-02-2020 15:37:18 11.8 C 34 %
671 23-02-2020 15:47:17 11.9 C 34 %
672 23-02-2020 15:57:17 11.8 C 34 %
673 23-02-2020 16:07:18 11.8 C 34 %
674 23-02-2020 16:17:17 11.8 C 34 %
675 23-02-2020 16:27:17 11.7 C 35 %
Sensor: Nr:Datum:Temp:Feuchte:
Aussen-T/F 676 23-02-2020 16:37:17 11.8 C 35 %
677 23-02-2020 16:47:17 11.8 C 34 %
678 23-02-2020 16:57:17 11.8 C 34 %
679 23-02-2020 17:07:18 11.8 C 34 %
680 23-02-2020 17:17:17 11.5 C 35 %
681 23-02-2020 17:27:17 11.3 C 36 %
682 23-02-2020 17:37:18 10.9 C 38 %
683 23-02-2020 17:47:17 10.8 C 38 %
684 23-02-2020 17:57:17 10.9 C 38 %
685 23-02-2020 18:07:18 10.8 C 38 %
686 23-02-2020 18:17:17 10.8 C 39 %
687 23-02-2020 18:27:17 10.7 C 40 %
688 23-02-2020 18:37:18 10.6 C 41 %
689 23-02-2020 18:47:18 10.5 C 42 %
690 23-02-2020 18:57:18 10.5 C 41 %
691 23-02-2020 19:07:18 10.8 C 40 %
692 23-02-2020 19:17:17 10.8 C 40 %
693 23-02-2020 19:27:17 11.1 C 40 %
694 23-02-2020 19:37:17 9.2 C 40 %
695 23-02-2020 19:47:17 8.6 C 41 %
696 23-02-2020 19:57:17 8.3 C 40 %
697 23-02-2020 20:07:17 7.9 C 41 %
698 23-02-2020 20:17:17 7.8 C 40 %
699 23-02-2020 20:27:17 7.6 C 40 %
700 23-02-2020 20:37:17 7.6 C 40 %
Sensor: Nr:Datum:Temp:Feuchte:
Aussen-T/F 701 23-02-2020 20:47:17 7.6 C 40 %
702 23-02-2020 20:57:17 7.6 C 39 %
703 23-02-2020 21:07:17 7.4 C 39 %
704 23-02-2020 21:17:17 7.7 C 37 %
705 23-02-2020 21:27:17 7.3 C 37 %
706 23-02-2020 21:37:17 7.4 C 37 %
707 23-02-2020 21:47:18 7.4 C 36 %
708 23-02-2020 21:57:18 7.6 C 37 %
709 23-02-2020 22:07:18 7.7 C 36 %
710 23-02-2020 22:17:18 7.7 C 36 %
711 23-02-2020 22:27:18 7.6 C 35 %
712 23-02-2020 22:37:18 7.6 C 35 %
713 23-02-2020 22:47:17 7.6 C 35 %
714 23-02-2020 22:57:18 7.3 C 35 %
715 23-02-2020 23:07:18 7 C 34 %
716 23-02-2020 23:17:18 6.7 C 36 %
717 23-02-2020 23:27:18 7.2 C 33 %
718 23-02-2020 23:37:18 7.1 C 32 %
719 23-02-2020 23:47:17 7.2 C 32 %
720 23-02-2020 23:57:18 6.8 C 33 %
721 24-02-2020 00:07:18 6.7 C 32 %
722 24-02-2020 00:17:18 6.3 C 34 %
723 24-02-2020 00:27:18 6.5 C 34 %
724 24-02-2020 00:37:18 6.4 C 34 %
725 24-02-2020 00:47:18 6 C 34 %
Sensor: Nr:Datum:Temp:Feuchte:
Aussen-T/F 726 24-02-2020 00:57:18 6.1 C 34 %
727 24-02-2020 01:07:18 5.5 C 35 %
728 24-02-2020 01:17:18 5.8 C 35 %
729 24-02-2020 01:27:18 5.8 C 35 %
730 24-02-2020 01:37:17 5.3 C 35 %
731 24-02-2020 01:47:17 5.2 C 35 %
732 24-02-2020 01:57:18 5 C 36 %
733 24-02-2020 02:07:18 4.6 C 37 %
734 24-02-2020 02:17:17 4.4 C 37 %
735 24-02-2020 02:27:17 3.9 C 39 %
736 24-02-2020 02:37:18 3.7 C 40 %
737 24-02-2020 02:47:17 4 C 38 %
738 24-02-2020 02:57:17 4.2 C 38 %
739 24-02-2020 03:07:17 4.3 C 38 %
740 24-02-2020 03:17:17 4.7 C 36 %
741 24-02-2020 03:27:17 4.6 C 37 %
742 24-02-2020 03:37:18 4.5 C 37 %
743 24-02-2020 03:47:17 4.5 C 36 %
744 24-02-2020 03:57:17 4.5 C 36 %
745 24-02-2020 04:07:17 4.6 C 36 %
746 24-02-2020 04:17:17 4.4 C 38 %
747 24-02-2020 04:27:17 4.3 C 38 %
748 24-02-2020 04:37:17 4 C 39 %
749 24-02-2020 04:47:17 3.7 C 41 %
750 24-02-2020 04:57:17 3.8 C 41 %
Sensor: Nr:Datum:Temp:Feuchte:
Aussen-T/F 751 24-02-2020 05:07:17 3.8 C 42 %
752 24-02-2020 05:17:17 4.1 C 41 %
753 24-02-2020 05:27:17 4 C 40 %
754 24-02-2020 05:37:17 3.8 C 41 %
755 24-02-2020 05:47:18 4 C 40 %
756 24-02-2020 05:57:18 4 C 40 %
757 24-02-2020 06:07:17 4 C 40 %
758 24-02-2020 06:17:18 4 C 41 %
759 24-02-2020 06:27:18 3.9 C 42 %
760 24-02-2020 06:37:17 4 C 41 %
761 24-02-2020 06:47:18 3.9 C 42 %
762 24-02-2020 06:57:18 4.2 C 40 %
763 24-02-2020 07:07:18 4.2 C 40 %
764 24-02-2020 07:17:18 4.3 C 40 %
765 24-02-2020 07:27:18 4.3 C 40 %
766 24-02-2020 07:37:18 4.4 C 39 %
767 24-02-2020 07:47:17 4.5 C 39 %
768 24-02-2020 07:57:17 5.1 C 37 %
769 24-02-2020 08:07:18 5.2 C 37 %
770 24-02-2020 08:17:18 5.4 C 37 %
771 24-02-2020 08:27:18 5.7 C 36 %
772 24-02-2020 08:37:18 5.9 C 36 %
773 24-02-2020 08:47:18 6 C 35 %
774 24-02-2020 08:57:18 6.2 C 35 %
775 24-02-2020 09:07:18 6.3 C 35 %
Sensor: Nr:Datum:Temp:Feuchte:
Aussen-T/F 776 24-02-2020 09:17:18 6.3 C 35 %
777 24-02-2020 09:27:18 6.1 C 35 %
778 24-02-2020 09:37:18 6 C 35 %
779 24-02-2020 09:47:18 6 C 35 %
780 24-02-2020 09:57:18 6 C 36 %
781 24-02-2020 10:07:18 5.9 C 37 %
782 24-02-2020 10:17:18 5.7 C 38 %
783 24-02-2020 10:27:18 5.7 C 39 %
784 24-02-2020 10:37:17 5.6 C 40 %
785 24-02-2020 10:47:18 5.7 C 40 %
786 24-02-2020 10:57:18 5.9 C 40 %
787 24-02-2020 11:07:18 6 C 40 %
788 24-02-2020 11:17:18 6 C 40 %
789 24-02-2020 11:27:18 6.1 C 40 %
790 24-02-2020 11:37:18 6.1 C 40 %
791 24-02-2020 11:47:18 6.1 C 40 %
792 24-02-2020 11:57:18 6.5 C 40 %
793 24-02-2020 12:07:17 6.7 C 40 %
794 24-02-2020 12:17:17 6.9 C 40 %
795 24-02-2020 12:27:17 6.7 C 40 %
796 24-02-2020 12:37:18 6.8 C 40 %
797 24-02-2020 12:47:17 7.1 C 41 %
798 24-02-2020 12:57:18 7.3 C 40 %
799 24-02-2020 13:07:18 7.7 C 40 %
800 24-02-2020 13:17:18 7.9 C 40 %
Sensor: Nr:Datum:Temp:Feuchte:
Aussen-T/F 801 24-02-2020 13:27:18 8.2 C 39 %
802 24-02-2020 13:37:18 8.2 C 39 %
803 24-02-2020 13:47:17 8.2 C 40 %
804 24-02-2020 13:57:17 8.4 C 40 %
805 24-02-2020 14:07:18 8.8 C 40 %
806 24-02-2020 14:17:17 9.3 C 40 %
807 24-02-2020 14:27:18 9.6 C 39 %
808 24-02-2020 14:37:18 10.2 C 37 %
809 24-02-2020 14:47:17 10.8 C 37 %
810 24-02-2020 14:57:17 10.9 C 37 %
811 24-02-2020 15:07:18 10.7 C 37 %
812 24-02-2020 15:17:18 10.7 C 37 %
813 24-02-2020 15:27:18 10.8 C 37 %
814 24-02-2020 15:37:18 11 C 36 %
815 24-02-2020 15:47:17 11.3 C 36 %
816 24-02-2020 15:57:18 11.5 C 36 %
817 24-02-2020 16:07:18 11.5 C 35 %
818 24-02-2020 16:17:18 11.8 C 35 %
819 24-02-2020 16:27:18 11.9 C 35 %
820 24-02-2020 16:37:18 11.7 C 35 %
821 24-02-2020 16:47:17 11.3 C 35 %
822 24-02-2020 16:57:17 11.5 C 35 %
823 24-02-2020 17:07:18 11.5 C 35 %
824 24-02-2020 17:17:18 11.5 C 35 %
825 24-02-2020 17:27:18 11.5 C 34 %
Sensor: Nr:Datum:Temp:Feuchte:
Aussen-T/F 826 24-02-2020 17:37:18 11.4 C 34 %
827 24-02-2020 17:47:18 11.5 C 33 %
828 24-02-2020 17:57:18 11.4 C 33 %
829 24-02-2020 18:07:18 11.3 C 33 %
830 24-02-2020 18:17:18 11.2 C 33 %
831 24-02-2020 18:27:18 11.2 C 33 %
832 24-02-2020 18:37:17 11 C 33 %
833 24-02-2020 18:47:17 11 C 33 %
834 24-02-2020 18:57:17 11 C 33 %
835 24-02-2020 19:07:17 11.1 C 33 %
836 24-02-2020 19:17:17 10.8 C 34 %
837 24-02-2020 19:27:17 11.2 C 32 %
838 24-02-2020 19:37:18 11.2 C 32 %
839 24-02-2020 19:47:18 11.1 C 32 %
840 24-02-2020 19:57:18 11.3 C 32 %
841 24-02-2020 20:07:18 11.4 C 32 %
842 24-02-2020 20:17:18 11.2 C 31 %
843 24-02-2020 20:27:18 11.3 C 31 %
844 24-02-2020 20:37:18 11.2 C 31 %
845 24-02-2020 20:47:17 11.2 C 31 %
846 24-02-2020 20:57:18 11 C 31 %
847 24-02-2020 21:07:18 10.9 C 32 %
848 24-02-2020 21:18:17 11 C 32 %
849 24-02-2020 21:27:17 10.9 C 33 %
850 24-02-2020 21:37:17 10.9 C 33 %
Sensor: Nr:Datum:Temp:Feuchte:
Aussen-T/F 851 24-02-2020 21:48:17 10.9 C 33 %
852 24-02-2020 21:57:17 10.8 C 33 %
853 24-02-2020 22:07:17 11 C 32 %
854 24-02-2020 22:17:17 10.9 C 33 %
855 24-02-2020 22:27:17 11 C 32 %
856 24-02-2020 22:37:17 10.9 C 33 %
857 24-02-2020 22:47:17 11.1 C 32 %
858 24-02-2020 22:57:17 11.1 C 32 %
859 24-02-2020 23:08:17 11 C 32 %
860 24-02-2020 23:18:17 10.9 C 33 %
861 24-02-2020 23:28:17 11 C 32 %
862 24-02-2020 23:37:18 10.9 C 33 %
863 24-02-2020 23:48:17 10.8 C 33 %
864 24-02-2020 23:58:17 10.4 C 34 %
865 25-02-2020 00:08:17 10.5 C 34 %
866 25-02-2020 00:17:17 10.4 C 34 %
867 25-02-2020 00:27:17 10.2 C 35 %
868 25-02-2020 00:37:18 10.4 C 35 %
869 25-02-2020 00:47:17 10.6 C 35 %
870 25-02-2020 00:57:17 10.5 C 35 %
871 25-02-2020 01:08:17 10.5 C 35 %
872 25-02-2020 01:18:17 10.5 C 35 %
873 25-02-2020 01:28:17 10.5 C 35 %
874 25-02-2020 01:38:17 10.6 C 35 %
875 25-02-2020 01:48:17 10.4 C 35 %
Sensor: Nr:Datum:Temp:Feuchte:
Aussen-T/F 876 25-02-2020 01:58:17 10.5 C 35 %
877 25-02-2020 02:08:17 10.4 C 35 %
878 25-02-2020 02:18:17 10.3 C 35 %
879 25-02-2020 02:28:17 10.4 C 35 %
880 25-02-2020 02:38:17 10.3 C 35 %
881 25-02-2020 02:48:17 10.3 C 35 %
882 25-02-2020 02:58:17 10.1 C 35 %
883 25-02-2020 03:08:17 9.7 C 36 %
884 25-02-2020 03:18:17 9.8 C 36 %
885 25-02-2020 03:28:18 10 C 36 %
886 25-02-2020 03:38:18 10 C 35 %
887 25-02-2020 03:48:17 10 C 35 %
888 25-02-2020 03:58:18 10 C 35 %
889 25-02-2020 04:08:18 10 C 35 %
890 25-02-2020 04:18:18 9.9 C 36 %
891 25-02-2020 04:28:18 9.9 C 36 %
892 25-02-2020 04:38:18 9.9 C 36 %
893 25-02-2020 04:48:17 9.9 C 36 %
894 25-02-2020 04:58:17 9.9 C 36 %
895 25-02-2020 05:08:18 9.9 C 36 %
896 25-02-2020 05:18:17 9.8 C 36 %
897 25-02-2020 05:28:18 9.7 C 36 %
898 25-02-2020 05:38:18 9.7 C 36 %
899 25-02-2020 05:48:18 9.7 C 36 %
900 25-02-2020 05:58:18 9.7 C 35 %
Sensor: Nr:Datum:Temp:Feuchte:
Aussen-T/F 901 25-02-2020 06:08:18 9.7 C 35 %
902 25-02-2020 06:18:17 9.6 C 35 %
903 25-02-2020 06:28:18 9.5 C 35 %
904 25-02-2020 06:38:18 9.4 C 36 %
905 25-02-2020 06:48:17 9.4 C 36 %
906 25-02-2020 06:58:17 9.3 C 36 %
907 25-02-2020 07:08:17 9.2 C 36 %
908 25-02-2020 07:18:17 9.1 C 36 %
909 25-02-2020 07:28:18 9.1 C 36 %
910 25-02-2020 07:38:18 8.6 C 38 %
911 25-02-2020 07:48:17 8.4 C 40 %
912 25-02-2020 07:58:17 8.2 C 42 %
913 25-02-2020 08:08:18 8.1 C 43 %
914 25-02-2020 08:18:17 8 C 44 %
915 25-02-2020 08:28:17 8 C 42 %
916 25-02-2020 08:38:17 8 C 42 %
917 25-02-2020 08:48:17 8.1 C 42 %
918 25-02-2020 08:58:17 8.2 C 41 %
919 25-02-2020 09:08:18 8.2 C 41 %
920 25-02-2020 09:18:17 8.2 C 40 %
921 25-02-2020 09:28:17 8.5 C 38 %
922 25-02-2020 09:38:18 8.7 C 38 %
923 25-02-2020 09:48:17 8.7 C 36 %
924 25-02-2020 09:58:17 8.6 C 34 %
925 25-02-2020 10:08:17 8.6 C 33 %
Sensor: Nr:Datum:Temp:Feuchte:
Aussen-T/F 926 25-02-2020 10:18:17 8.2 C 33 %
927 25-02-2020 10:28:17 8.7 C 33 %
928 25-02-2020 10:38:18 8.7 C 33 %
929 25-02-2020 10:48:17 9.2 C 32 %
930 25-02-2020 10:58:17 9.6 C 31 %
931 25-02-2020 11:08:18 9.1 C 32 %
932 25-02-2020 11:18:17 8 C 32 %
933 25-02-2020 11:28:17 8.3 C 32 %
934 25-02-2020 11:38:17 8.2 C 31 %
935 25-02-2020 11:48:17 8.5 C 31 %
936 25-02-2020 11:58:18 8.9 C 30 %
937 25-02-2020 12:08:18 11.2 C 26 %
938 25-02-2020 12:18:18 10.4 C 22 %
939 25-02-2020 12:28:18 10.7 C 21 %
940 25-02-2020 12:38:18 10.2 C 23 %
941 25-02-2020 12:48:18 10.2 C 22 %
942 25-02-2020 12:58:18 10.6 C 25 %
943 25-02-2020 13:08:18 10.1 C 25 %
944 25-02-2020 13:18:17 11.1 C 25 %
945 25-02-2020 13:28:17 11.1 C 25 %
946 25-02-2020 13:38:17 11.4 C 23 %
947 25-02-2020 13:48:17 10 C 22 %
948 25-02-2020 13:58:17 10.7 C 23 %
949 25-02-2020 14:08:17 10.7 C 22 %
950 25-02-2020 14:18:17 10.4 C 20 %
Sensor: Nr:Datum:Temp:Feuchte:
Aussen-T/F 951 25-02-2020 14:28:17 10.2 C 22 %
952 25-02-2020 14:38:18 10.2 C 21 %
953 25-02-2020 14:48:17 11 C 21 %
954 25-02-2020 14:58:17 10.4 C 22 %
955 25-02-2020 15:08:17 10.1 C 25 %
956 25-02-2020 15:18:17 11.1 C 22 %
957 25-02-2020 15:28:17 11.1 C 22 %
958 25-02-2020 15:38:17 11.2 C 20 %
959 25-02-2020 15:48:18 11.5 C 20 %
960 25-02-2020 15:58:18 11.7 C 20 %
961 25-02-2020 16:08:18 10.3 C 21 %
962 25-02-2020 16:18:18 10.1 C 21 %
963 25-02-2020 16:28:18 10.1 C 20 %
964 25-02-2020 16:38:18 12.4 C 20 %
965 25-02-2020 16:48:17 11.5 C 20 %
966 25-02-2020 16:58:18 10 C 20 %
967 25-02-2020 17:08:18 9.9 C 20 %
968 25-02-2020 17:18:17 10.8 C 20 %
969 25-02-2020 17:28:18 9.5 C 25 %
970 25-02-2020 17:38:18 9.1 C 25 %
971 25-02-2020 17:48:18 9 C 25 %
972 25-02-2020 17:58:18 8.9 C 27 %
973 25-02-2020 18:08:18 8.8 C 26 %
974 25-02-2020 18:18:18 8.5 C 27 %
975 25-02-2020 18:28:18 8.4 C 28 %
Sensor: Nr:Datum:Temp:Feuchte:
Aussen-T/F 976 25-02-2020 18:38:18 8.6 C 27 %
977 25-02-2020 18:48:17 8.4 C 28 %
978 25-02-2020 18:58:17 7.1 C 31 %
979 25-02-2020 19:08:18 6.5 C 35 %
980 25-02-2020 19:18:18 6.3 C 35 %
981 25-02-2020 19:28:18 6.2 C 35 %
982 25-02-2020 19:38:18 6 C 37 %
983 25-02-2020 19:48:17 5.8 C 40 %
984 25-02-2020 19:58:17 5.7 C 40 %
985 25-02-2020 20:08:18 5.6 C 40 %
986 25-02-2020 20:18:17 5.5 C 41 %
987 25-02-2020 20:28:18 5.6 C 41 %
988 25-02-2020 20:38:18 5.9 C 39 %
989 25-02-2020 20:48:17 6 C 38 %
990 25-02-2020 20:58:17 5.9 C 39 %
991 25-02-2020 21:08:17 5.3 C 40 %
992 25-02-2020 21:18:17 5.3 C 40 %
993 25-02-2020 21:28:17 5.3 C 40 %
994 25-02-2020 21:38:17 5.2 C 41 %
995 25-02-2020 21:48:18 5.8 C 36 %
996 25-02-2020 21:58:18 5.8 C 35 %
997 25-02-2020 22:08:18 5.6 C 34 %
998 25-02-2020 22:18:17 5.6 C 33 %
999 25-02-2020 22:28:17 5.3 C 33 %
1000 25-02-2020 22:38:17 4.8 C 34 %
Sensor: Nr:Datum:Temp:Feuchte:
Aussen-T/F 1001 25-02-2020 22:48:18 4.4 C 35 %
1002 25-02-2020 22:58:18 4.2 C 35 %
1003 25-02-2020 23:08:18 4.2 C 35 %
1004 25-02-2020 23:18:18 4.4 C 35 %
1005 25-02-2020 23:28:18 4.6 C 35 %
1006 25-02-2020 23:38:18 5.4 C 34 %
1007 25-02-2020 23:48:17 5.5 C 34 %
1008 25-02-2020 23:58:17 5.4 C 33 %
1009 26-02-2020 00:08:17 5.3 C 35 %
1010 26-02-2020 00:18:17 5 C 35 %
1011 26-02-2020 00:28:17 4.9 C 36 %
1012 26-02-2020 00:38:18 5.1 C 35 %
1013 26-02-2020 00:48:17 5.4 C 35 %
1014 26-02-2020 00:58:17 5.3 C 35 %
1015 26-02-2020 01:08:17 5.4 C 35 %
1016 26-02-2020 01:18:17 5.5 C 35 %
1017 26-02-2020 01:28:17 5.4 C 35 %
1018 26-02-2020 01:38:17 5.3 C 35 %
1019 26-02-2020 01:48:17 5.1 C 35 %
1020 26-02-2020 01:58:17 5 C 35 %
1021 26-02-2020 02:08:18 5.2 C 35 %
1022 26-02-2020 02:18:18 5.2 C 34 %
1023 26-02-2020 02:28:18 5.2 C 34 %
1024 26-02-2020 02:38:17 5 C 34 %
1025 26-02-2020 02:48:18 5.1 C 33 %
Sensor: Nr:Datum:Temp:Feuchte:
Aussen-T/F 1026 26-02-2020 02:58:18 5 C 32 %
1027 26-02-2020 03:08:17 4.8 C 33 %
1028 26-02-2020 03:18:17 4.7 C 33 %
1029 26-02-2020 03:28:17 4.3 C 34 %
1030 26-02-2020 03:38:18 3.8 C 35 %
1031 26-02-2020 03:48:18 3.7 C 35 %
1032 26-02-2020 03:58:18 4 C 34 %
1033 26-02-2020 04:08:18 3.9 C 35 %
1034 26-02-2020 04:18:18 3.9 C 35 %
1035 26-02-2020 04:28:18 3.9 C 35 %
1036 26-02-2020 04:38:18 3.8 C 35 %
1037 26-02-2020 04:48:17 3.9 C 35 %
1038 26-02-2020 04:58:18 3.9 C 35 %
1039 26-02-2020 05:08:18 4 C 33 %
1040 26-02-2020 05:18:18 3.9 C 35 %
1041 26-02-2020 05:28:18 4 C 33 %
1042 26-02-2020 05:38:18 3.9 C 35 %
1043 26-02-2020 05:48:17 3.7 C 35 %
1044 26-02-2020 05:58:18 3.9 C 34 %
1045 26-02-2020 06:08:18 3.9 C 34 %
1046 26-02-2020 06:18:18 4 C 32 %
1047 26-02-2020 06:28:18 3.7 C 34 %
1048 26-02-2020 06:38:18 3.9 C 33 %
1049 26-02-2020 06:48:17 3.7 C 33 %
1050 26-02-2020 06:58:17 3.6 C 33 %
Sensor: Nr:Datum:Temp:Feuchte:
Aussen-T/F 1051 26-02-2020 07:08:18 3.4 C 34 %
1052 26-02-2020 07:18:18 3.4 C 34 %
1053 26-02-2020 07:28:18 3.2 C 35 %
1054 26-02-2020 07:38:17 3.4 C 35 %
1055 26-02-2020 07:48:18 3.4 C 35 %
1056 26-02-2020 07:58:18 3.4 C 35 %
1057 26-02-2020 08:08:18 3.5 C 35 %
1058 26-02-2020 08:18:17 3.5 C 35 %
1059 26-02-2020 08:28:17 3.6 C 35 %
1060 26-02-2020 08:38:18 3.6 C 34 %
1061 26-02-2020 08:48:18 3.5 C 35 %
1062 26-02-2020 08:58:18 3.3 C 35 %
1063 26-02-2020 09:08:17 2.9 C 36 %
1064 26-02-2020 09:18:17 2.9 C 37 %
1065 26-02-2020 09:28:17 3 C 37 %
1066 26-02-2020 09:38:18 3.2 C 36 %
1067 26-02-2020 09:48:18 3.6 C 36 %
1068 26-02-2020 09:58:18 3.4 C 36 %
1069 26-02-2020 10:08:18 3.4 C 36 %
1070 26-02-2020 10:18:17 3.4 C 36 %
1071 26-02-2020 10:28:17 3.3 C 37 %
1072 26-02-2020 10:38:17 3.5 C 36 %
1073 26-02-2020 10:48:17 4.2 C 35 %
1074 26-02-2020 10:58:17 4.4 C 35 %
1075 26-02-2020 11:08:17 4.5 C 34 %
Sensor: Nr:Datum:Temp:Feuchte:
Aussen-T/F 1076 26-02-2020 11:18:17 5 C 33 %
1077 26-02-2020 11:28:17 5.1 C 33 %
1078 26-02-2020 11:38:18 5.4 C 32 %
1079 26-02-2020 11:48:18 5.3 C 32 %
1080 26-02-2020 11:58:18 5.9 C 32 %
1081 26-02-2020 12:08:17 6.1 C 31 %
1082 26-02-2020 12:18:17 6.4 C 31 %
1083 26-02-2020 12:28:17 5.7 C 31 %
1084 26-02-2020 12:38:17 5.7 C 31 %
1085 26-02-2020 12:48:17 5.7 C 31 %
1086 26-02-2020 12:58:17 6.7 C 29 %
1087 26-02-2020 13:08:17 6.7 C 29 %
1088 26-02-2020 13:18:18 6.1 C 30 %
1089 26-02-2020 13:28:18 5 C 31 %
1090 26-02-2020 13:38:17 5.3 C 31 %
1091 26-02-2020 13:48:17 5.3 C 31 %
1092 26-02-2020 13:58:17 5.1 C 31 %
1093 26-02-2020 14:08:17 5.1 C 32 %
1094 26-02-2020 14:18:17 5.1 C 32 %
1095 26-02-2020 14:28:17 5.1 C 32 %
1096 26-02-2020 14:38:17 5.6 C 32 %
1097 26-02-2020 14:48:17 5.8 C 32 %
1098 26-02-2020 14:58:17 5.6 C 32 %
1099 26-02-2020 15:08:17 5.6 C 32 %
1100 26-02-2020 15:18:17 6.4 C 31 %
Sensor: Nr:Datum:Temp:Feuchte:
Aussen-T/F 1101 26-02-2020 15:28:17 7.6 C 29 %
1102 26-02-2020 15:38:17 6.3 C 30 %
1103 26-02-2020 15:48:17 6.2 C 30 %
1104 26-02-2020 15:58:17 5.8 C 30 %
1105 26-02-2020 16:08:17 5.9 C 30 %
1106 26-02-2020 16:18:17 5.5 C 30 %
1107 26-02-2020 16:28:17 5.5 C 30 %
1108 26-02-2020 16:38:17 5.4 C 30 %
1109 26-02-2020 16:48:18 5.6 C 30 %
1110 26-02-2020 16:58:18 5.4 C 30 %
1111 26-02-2020 17:08:18 5.3 C 30 %
1112 26-02-2020 17:18:18 5.1 C 30 %
1113 26-02-2020 17:28:18 5.1 C 30 %
1114 26-02-2020 17:38:17 4.8 C 30 %
1115 26-02-2020 17:48:18 4.5 C 31 %
1116 26-02-2020 17:58:18 4.2 C 31 %
1117 26-02-2020 18:08:18 4 C 32 %
1118 26-02-2020 18:18:18 4 C 32 %
1119 26-02-2020 18:28:18 4 C 32 %
1120 26-02-2020 18:38:18 4 C 32 %
1121 26-02-2020 18:48:18 4.1 C 32 %
1122 26-02-2020 18:58:18 4.1 C 32 %
1123 26-02-2020 19:08:18 4 C 32 %
1124 26-02-2020 19:18:17 4 C 33 %
1125 26-02-2020 19:28:17 3.9 C 35 %
Sensor: Nr:Datum:Temp:Feuchte:
Aussen-T/F 1126 26-02-2020 19:38:17 3.8 C 35 %
1127 26-02-2020 19:48:17 3.6 C 35 %
1128 26-02-2020 19:58:17 3.4 C 35 %
1129 26-02-2020 20:08:17 3.3 C 35 %
1130 26-02-2020 20:18:17 3.6 C 35 %
1131 26-02-2020 20:28:17 3.6 C 35 %
1132 26-02-2020 20:38:17 3.6 C 35 %
1133 26-02-2020 20:48:17 3.4 C 35 %
1134 26-02-2020 20:58:17 3.6 C 35 %
1135 26-02-2020 21:08:18 3.6 C 35 %
1136 26-02-2020 21:18:18 3.5 C 35 %
1137 26-02-2020 21:28:18 3.2 C 35 %
1138 26-02-2020 21:38:18 3.4 C 35 %
1139 26-02-2020 21:48:17 3.4 C 35 %
1140 26-02-2020 21:58:17 3.5 C 35 %
1141 26-02-2020 22:08:18 3.3 C 36 %
1142 26-02-2020 22:18:18 3.3 C 36 %
1143 26-02-2020 22:28:18 3.3 C 36 %
1144 26-02-2020 22:38:18 3.4 C 36 %
1145 26-02-2020 22:48:17 3.2 C 37 %
1146 26-02-2020 22:58:17 3.3 C 37 %
1147 26-02-2020 23:08:18 3.1 C 37 %
1148 26-02-2020 23:18:18 3 C 37 %
1149 26-02-2020 23:28:18 2.9 C 38 %
1150 26-02-2020 23:38:17 2.8 C 38 %
Sensor: Nr:Datum:Temp:Feuchte:
Aussen-T/F 1151 26-02-2020 23:48:17 2.9 C 37 %
1152 26-02-2020 23:58:17 2.7 C 38 %
1153 27-02-2020 00:08:17 2.9 C 37 %
1154 27-02-2020 00:18:17 3.1 C 37 %
1155 27-02-2020 00:28:17 2.8 C 37 %
1156 27-02-2020 00:38:18 3.1 C 36 %
1157 27-02-2020 00:48:18 2.9 C 37 %
1158 27-02-2020 00:58:18 2.8 C 37 %
1159 27-02-2020 01:08:18 2.3 C 38 %
1160 27-02-2020 01:18:18 2.2 C 38 %
1161 27-02-2020 01:28:18 2.2 C 38 %
1162 27-02-2020 01:38:18 2 C 38 %
1163 27-02-2020 01:48:17 2.6 C 38 %
1164 27-02-2020 01:58:17 2.7 C 38 %
1165 27-02-2020 02:08:18 2.6 C 38 %
1166 27-02-2020 02:18:17 2.9 C 37 %
1167 27-02-2020 02:28:17 2.9 C 37 %
1168 27-02-2020 02:38:17 2.5 C 38 %
1169 27-02-2020 02:48:17 2.7 C 38 %
1170 27-02-2020 02:58:17 3.1 C 36 %
1171 27-02-2020 03:08:18 3.1 C 37 %
1172 27-02-2020 03:18:17 2.6 C 40 %
1173 27-02-2020 03:28:17 2.6 C 40 %
1174 27-02-2020 03:38:17 2.6 C 40 %
1175 27-02-2020 03:48:17 2.7 C 40 %
Sensor: Nr:Datum:Temp:Feuchte:
Aussen-T/F 1176 27-02-2020 03:58:17 2.7 C 40 %
1177 27-02-2020 04:08:18 2.7 C 40 %
1178 27-02-2020 04:18:18 2.7 C 40 %
1179 27-02-2020 04:28:18 2.6 C 40 %
1180 27-02-2020 04:38:18 2.7 C 39 %
1181 27-02-2020 04:48:17 2.3 C 40 %
1182 27-02-2020 04:58:17 2.3 C 39 %
1183 27-02-2020 05:08:18 2.1 C 40 %
1184 27-02-2020 05:18:17 2.3 C 40 %
1185 27-02-2020 05:28:18 2 C 40 %
1186 27-02-2020 05:38:17 2 C 40 %
1187 27-02-2020 05:48:17 2.3 C 40 %
1188 27-02-2020 05:58:17 2.4 C 39 %
1189 27-02-2020 06:08:17 2.2 C 39 %
1190 27-02-2020 06:18:17 2.2 C 38 %
1191 27-02-2020 06:28:17 2.3 C 38 %
1192 27-02-2020 06:38:18 2.3 C 38 %
1193 27-02-2020 06:48:17 2.3 C 38 %
1194 27-02-2020 06:58:17 2.1 C 38 %
1195 27-02-2020 07:08:18 2.3 C 38 %
1196 27-02-2020 07:18:18 2.3 C 38 %
1197 27-02-2020 07:28:18 2.4 C 39 %
1198 27-02-2020 07:38:18 2.5 C 38 %
1199 27-02-2020 07:48:17 2.4 C 39 %
1200 27-02-2020 07:58:17 2.6 C 39 %
Sensor: Nr:Datum:Temp:Feuchte:
Aussen-T/F 1201 27-02-2020 08:08:17 2.5 C 39 %
1202 27-02-2020 08:18:17 2.6 C 40 %
1203 27-02-2020 08:28:17 2.9 C 40 %
1204 27-02-2020 08:38:17 3.2 C 38 %
1205 27-02-2020 08:48:17 3.5 C 37 %
1206 27-02-2020 08:58:17 3.8 C 37 %
1207 27-02-2020 09:08:17 4.2 C 35 %
1208 27-02-2020 09:18:17 4.3 C 35 %
1209 27-02-2020 09:28:17 4.6 C 35 %
1210 27-02-2020 09:38:17 4.7 C 35 %
1211 27-02-2020 09:48:17 4.9 C 35 %
1212 27-02-2020 09:58:17 5.2 C 34 %
1213 27-02-2020 10:08:17 5.1 C 34 %
1214 27-02-2020 10:18:17 5.3 C 33 %
1215 27-02-2020 10:28:17 5.2 C 33 %
1216 27-02-2020 10:38:17 5.4 C 33 %
1217 27-02-2020 10:48:17 5.4 C 33 %
1218 27-02-2020 10:58:17 5 C 33 %
1219 27-02-2020 11:08:17 4.6 C 35 %
1220 27-02-2020 11:18:17 4.2 C 35 %
1221 27-02-2020 11:28:17 3.7 C 36 %
1222 27-02-2020 11:38:17 3.7 C 38 %
1223 27-02-2020 11:48:18 3.9 C 39 %
1224 27-02-2020 11:58:18 3.9 C 39 %
1225 27-02-2020 12:08:18 3.8 C 39 %
Sensor: Nr:Datum:Temp:Feuchte:
Aussen-T/F 1226 27-02-2020 12:18:18 3.9 C 39 %
1227 27-02-2020 12:28:18 3.8 C 40 %
1228 27-02-2020 12:38:18 3.8 C 40 %
1229 27-02-2020 12:48:17 3.5 C 40 %
1230 27-02-2020 12:58:17 3.4 C 41 %
1231 27-02-2020 13:08:18 3.3 C 41 %
1232 27-02-2020 13:18:18 3.2 C 41 %
1233 27-02-2020 13:28:18 3 C 42 %
1234 27-02-2020 13:38:17 2.8 C 42 %
1235 27-02-2020 13:48:17 2.6 C 43 %
1236 27-02-2020 13:58:17 2.6 C 43 %
1237 27-02-2020 14:08:17 2.6 C 44 %
1238 27-02-2020 14:18:17 2.7 C 44 %
1239 27-02-2020 14:28:17 2.5 C 44 %
1240 27-02-2020 14:38:18 2.5 C 44 %
1241 27-02-2020 14:48:18 2.5 C 44 %
1242 27-02-2020 14:58:18 2.4 C 44 %
1243 27-02-2020 15:08:18 2.3 C 44 %
1244 27-02-2020 15:18:18 2.2 C 44 %
1245 27-02-2020 15:28:18 2.3 C 45 %
1246 27-02-2020 15:38:18 2.1 C 44 %
1247 27-02-2020 15:48:17 2.1 C 45 %
1248 27-02-2020 15:58:17 1.8 C 46 %
1249 27-02-2020 16:08:17 1.6 C 46 %
1250 27-02-2020 16:18:17 1.1 C 46 %
Sensor: Nr:Datum:Temp:Feuchte:
Aussen-T/F 1251 27-02-2020 16:28:17 0.8 C 47 %
1252 27-02-2020 16:38:18 0.4 C 48 %
1253 27-02-2020 16:48:17 0.2 C 48 %
1254 27-02-2020 16:58:17 0.2 C 48 %
1255 27-02-2020 17:08:18 0 C 49 %
1256 27-02-2020 17:18:18 0 C 48 %
1257 27-02-2020 17:28:18 0 C 48 %
1258 27-02-2020 17:38:17 0 C 48 %
1259 27-02-2020 17:48:17 0 C 48 %
1260 27-02-2020 17:58:17 0 C 48 %
1261 27-02-2020 18:08:18 0.1 C 48 %
1262 27-02-2020 18:18:17 0.1 C 48 %
1263 27-02-2020 18:28:17 0.1 C 48 %
1264 27-02-2020 18:38:17 0.1 C 48 %
1265 27-02-2020 18:48:18 0.1 C 48 %
1266 27-02-2020 18:58:18 0.1 C 48 %
1267 27-02-2020 19:08:18 0.3 C 48 %
1268 27-02-2020 19:18:18 0.4 C 48 %
1269 27-02-2020 19:28:18 0.3 C 48 %
1270 27-02-2020 19:38:18 0.6 C 48 %
1271 27-02-2020 19:48:18 0.6 C 48 %
1272 27-02-2020 19:58:18 0.6 C 48 %
1273 27-02-2020 20:08:18 0.7 C 48 %
1274 27-02-2020 20:18:18 0.6 C 48 %
1275 27-02-2020 20:28:18 0.8 C 48 %
Sensor: Nr:Datum:Temp:Feuchte:
Aussen-T/F 1276 27-02-2020 20:38:17 0.6 C 48 %
1277 27-02-2020 20:48:17 0.5 C 48 %
1278 27-02-2020 20:58:17 0.6 C 48 %
1279 27-02-2020 21:08:17 0.6 C 48 %
1280 27-02-2020 21:18:17 0.7 C 47 %
1281 27-02-2020 21:28:17 0.7 C 47 %
1282 27-02-2020 21:38:17 0.7 C 47 %
1283 27-02-2020 21:48:17 0.7 C 47 %
1284 27-02-2020 21:58:17 0.7 C 48 %
1285 27-02-2020 22:08:18 0.7 C 48 %
1286 27-02-2020 22:18:17 0.6 C 48 %
1287 27-02-2020 22:28:18 0.7 C 49 %
1288 27-02-2020 22:38:18 1 C 47 %
1289 27-02-2020 22:48:17 1 C 45 %
1290 27-02-2020 22:58:18 1 C 46 %
1291 27-02-2020 23:08:18 1.1 C 46 %
1292 27-02-2020 23:18:18 1.4 C 46 %
1293 27-02-2020 23:28:18 1.6 C 45 %
1294 27-02-2020 23:38:18 1.5 C 44 %
1295 27-02-2020 23:48:18 1.7 C 44 %
1296 27-02-2020 23:58:18 1.6 C 43 %
1297 28-02-2020 00:08:18 1.7 C 43 %
1298 28-02-2020 00:18:17 1.9 C 43 %
1299 28-02-2020 00:28:17 1.7 C 43 %
1300 28-02-2020 00:38:18 1.6 C 45 %
Sensor: Nr:Datum:Temp:Feuchte:
Aussen-T/F 1301 28-02-2020 00:48:17 1.5 C 45 %
1302 28-02-2020 00:58:17 1.7 C 45 %
1303 28-02-2020 01:08:17 1.4 C 46 %
1304 28-02-2020 01:18:17 1.4 C 46 %
1305 28-02-2020 01:28:17 1.3 C 46 %
1306 28-02-2020 01:38:17 1.5 C 45 %
1307 28-02-2020 01:48:18 1.5 C 45 %
1308 28-02-2020 01:58:18 1.4 C 45 %
1309 28-02-2020 02:08:18 1.4 C 46 %
1310 28-02-2020 02:18:18 1.4 C 45 %
1311 28-02-2020 02:28:18 1.5 C 45 %
1312 28-02-2020 02:38:18 1.4 C 44 %
1313 28-02-2020 02:48:17 1.4 C 44 %
1314 28-02-2020 02:58:18 1.4 C 43 %
1315 28-02-2020 03:08:18 1.5 C 42 %
1316 28-02-2020 03:18:18 1.3 C 43 %
1317 28-02-2020 03:28:18 1.1 C 43 %
1318 28-02-2020 03:38:18 1 C 43 %
1319 28-02-2020 03:48:17 0.9 C 44 %
1320 28-02-2020 03:58:17 1.1 C 44 %
1321 28-02-2020 04:08:17 1.2 C 43 %
1322 28-02-2020 04:18:17 1.3 C 43 %
1323 28-02-2020 04:28:18 1.3 C 43 %
1324 28-02-2020 04:38:18 1.3 C 43 %
1325 28-02-2020 04:48:17 1.3 C 43 %
Sensor: Nr:Datum:Temp:Feuchte:
Aussen-T/F 1326 28-02-2020 04:58:17 1.4 C 42 %
1327 28-02-2020 05:08:17 1.2 C 42 %
1328 28-02-2020 05:18:17 1 C 43 %
1329 28-02-2020 05:28:17 0.9 C 45 %
1330 28-02-2020 05:38:17 1 C 43 %
1331 28-02-2020 05:48:17 1.1 C 42 %
1332 28-02-2020 05:58:17 1.1 C 43 %
1333 28-02-2020 06:08:17 0.8 C 44 %
1334 28-02-2020 06:18:17 0.6 C 45 %
1335 28-02-2020 06:28:17 0.8 C 44 %
1336 28-02-2020 06:38:18 0.8 C 43 %
1337 28-02-2020 06:48:18 0.7 C 44 %
1338 28-02-2020 06:58:18 0.5 C 43 %
1339 28-02-2020 07:08:18 0.6 C 43 %
1340 28-02-2020 07:18:17 0.2 C 45 %
1341 28-02-2020 07:28:17 0.7 C 43 %
1342 28-02-2020 07:38:17 0.7 C 43 %
1343 28-02-2020 07:48:18 0.4 C 44 %
1344 28-02-2020 07:58:18 0.4 C 44 %
1345 28-02-2020 08:08:18 0.2 C 45 %
1346 28-02-2020 08:18:18 0.4 C 44 %
1347 28-02-2020 08:28:18 0.2 C 45 %
1348 28-02-2020 08:38:17 0.7 C 44 %
1349 28-02-2020 08:48:17 0.8 C 43 %
1350 28-02-2020 08:58:17 1.1 C 42 %
Sensor: Nr:Datum:Temp:Feuchte:
Aussen-T/F 1351 28-02-2020 09:08:17 1.4 C 41 %
1352 28-02-2020 09:18:17 1.3 C 42 %
1353 28-02-2020 09:28:17 1.5 C 41 %
1354 28-02-2020 09:38:17 1.7 C 41 %
1355 28-02-2020 09:48:18 1.8 C 41 %
1356 28-02-2020 09:58:18 1.9 C 41 %
1357 28-02-2020 10:08:18 2.1 C 40 %
1358 28-02-2020 10:18:18 2.5 C 40 %
1359 28-02-2020 10:28:18 2.8 C 39 %
1360 28-02-2020 10:38:17 3.2 C 37 %
1361 28-02-2020 10:48:17 3.1 C 37 %
1362 28-02-2020 10:58:17 3.3 C 37 %
1363 28-02-2020 11:08:17 3.6 C 37 %
1364 28-02-2020 11:18:17 3.8 C 37 %
1365 28-02-2020 11:28:17 4.2 C 36 %
1366 28-02-2020 11:38:17 4.5 C 36 %
1367 28-02-2020 11:48:18 3.8 C 37 %
1368 28-02-2020 11:58:18 4.1 C 35 %
1369 28-02-2020 12:08:18 4.3 C 35 %
1370 28-02-2020 12:18:18 4.3 C 36 %
1371 28-02-2020 12:28:18 4.6 C 35 %
1372 28-02-2020 12:38:18 5.1 C 34 %
1373 28-02-2020 12:48:18 6.3 C 33 %
1374 28-02-2020 12:58:18 6.5 C 33 %
1375 28-02-2020 13:08:18 6.8 C 32 %
Sensor: Nr:Datum:Temp:Feuchte:
Aussen-T/F 1376 28-02-2020 13:18:18 7.2 C 31 %
1377 28-02-2020 13:28:18 6.7 C 31 %
1378 28-02-2020 13:38:18 7 C 30 %
1379 28-02-2020 13:48:17 7.8 C 29 %
1380 28-02-2020 13:58:17 8 C 28 %
1381 28-02-2020 14:08:18 8.1 C 27 %
1382 28-02-2020 14:18:18 8 C 28 %
1383 28-02-2020 14:28:18 8.2 C 28 %
1384 28-02-2020 14:38:18 8.1 C 27 %
1385 28-02-2020 14:48:17 8.3 C 27 %
1386 28-02-2020 14:58:18 7.7 C 27 %
1387 28-02-2020 15:08:18 8 C 27 %
1388 28-02-2020 15:18:17 8 C 27 %
1389 28-02-2020 15:28:17 8.8 C 26 %
1390 28-02-2020 15:38:18 8.5 C 25 %
1391 28-02-2020 15:48:18 7.8 C 26 %
1392 28-02-2020 15:58:18 7.8 C 26 %
1393 28-02-2020 16:08:18 7.3 C 26 %
1394 28-02-2020 16:18:18 7.5 C 27 %
1395 28-02-2020 16:28:18 7 C 30 %
1396 28-02-2020 16:38:18 6.8 C 31 %
1397 28-02-2020 16:48:17 6.6 C 32 %
1398 28-02-2020 16:58:18 6.7 C 31 %
1399 28-02-2020 17:08:18 6.1 C 32 %
1400 28-02-2020 17:18:18 5.8 C 35 %
Sensor: Nr:Datum:Temp:Feuchte:
Aussen-T/F 1401 28-02-2020 17:28:18 5.1 C 35 %
1402 28-02-2020 17:38:18 5.2 C 35 %
1403 28-02-2020 17:48:17 4.8 C 37 %
1404 28-02-2020 17:58:18 4.6 C 37 %
1405 28-02-2020 18:08:17 4.5 C 37 %
1406 28-02-2020 18:18:17 4.5 C 37 %
1407 28-02-2020 18:28:17 4.7 C 36 %
1408 28-02-2020 18:38:18 5.1 C 34 %
1409 28-02-2020 18:48:17 5.1 C 33 %
1410 28-02-2020 18:58:17 4.9 C 35 %
1411 28-02-2020 19:08:17 5 C 32 %
1412 28-02-2020 19:18:17 5 C 32 %
1413 28-02-2020 19:28:18 4.8 C 35 %
1414 28-02-2020 19:38:17 5.3 C 33 %
1415 28-02-2020 19:48:17 5 C 34 %
1416 28-02-2020 19:58:17 5 C 34 %
1417 28-02-2020 20:08:17 4.7 C 35 %
1418 28-02-2020 20:18:18 4.9 C 33 %
1419 28-02-2020 20:28:18 4.5 C 35 %
1420 28-02-2020 20:38:18 4.4 C 36 %
1421 28-02-2020 20:48:17 4.1 C 36 %
1422 28-02-2020 20:58:17 4 C 38 %
1423 28-02-2020 21:08:18 3.7 C 40 %
1424 28-02-2020 21:18:18 3.7 C 41 %
1425 28-02-2020 21:28:18 3.8 C 40 %
Sensor: Nr:Datum:Temp:Feuchte:
Aussen-T/F 1426 28-02-2020 21:38:18 3.8 C 40 %
1427 28-02-2020 21:48:17 4.2 C 37 %
1428 28-02-2020 21:58:17 4 C 38 %
1429 28-02-2020 22:08:18 3.9 C 39 %
1430 28-02-2020 22:18:18 3.7 C 40 %
1431 28-02-2020 22:28:18 3.7 C 41 %
1432 28-02-2020 22:38:17 3.6 C 42 %
1433 28-02-2020 22:48:17 3.5 C 44 %
1434 28-02-2020 22:58:17 3.6 C 45 %
1435 28-02-2020 23:08:17 3.4 C 46 %
1436 28-02-2020 23:18:17 3.5 C 46 %
1437 28-02-2020 23:28:18 3.6 C 45 %
1438 28-02-2020 23:38:18 3.8 C 43 %
1439 28-02-2020 23:48:18 3.9 C 44 %
1440 28-02-2020 23:58:18 3.9 C 44 %
1441 29-02-2020 00:08:18 4.3 C 42 %
1442 29-02-2020 00:18:18 4.5 C 42 %
1443 29-02-2020 00:28:18 4.7 C 41 %
1444 29-02-2020 00:38:18 5.1 C 40 %
1445 29-02-2020 00:48:17 5 C 41 %
1446 29-02-2020 00:58:17 4.8 C 42 %
1447 29-02-2020 01:08:18 5 C 42 %
1448 29-02-2020 01:18:18 4.8 C 43 %
1449 29-02-2020 01:28:18 4.9 C 45 %
1450 29-02-2020 01:38:18 5 C 44 %
Sensor: Nr:Datum:Temp:Feuchte:
Aussen-T/F 1451 29-02-2020 01:48:17 5.1 C 45 %
1452 29-02-2020 01:58:17 5.1 C 45 %
1453 29-02-2020 02:08:18 5.2 C 44 %
1454 29-02-2020 02:18:18 5.2 C 45 %
1455 29-02-2020 02:28:18 5.3 C 45 %
1456 29-02-2020 02:38:18 5.6 C 44 %
1457 29-02-2020 02:48:17 5.9 C 43 %
1458 29-02-2020 02:58:17 7 C 41 %
1459 29-02-2020 03:08:18 7.5 C 40 %
1460 29-02-2020 03:18:18 7.8 C 39 %
1461 29-02-2020 03:28:18 8.5 C 38 %
1462 29-02-2020 03:38:18 8.3 C 38 %
1463 29-02-2020 03:48:17 8.8 C 38 %
1464 29-02-2020 03:58:17 8.9 C 38 %
1465 29-02-2020 04:08:18 9.1 C 37 %
1466 29-02-2020 04:18:17 9.4 C 37 %
1467 29-02-2020 04:28:18 9.5 C 37 %
1468 29-02-2020 04:38:18 9 C 37 %
1469 29-02-2020 04:48:17 9.3 C 37 %
1470 29-02-2020 04:58:17 9 C 37 %
1471 29-02-2020 05:08:18 9.1 C 37 %
1472 29-02-2020 05:18:17 9 C 37 %
1473 29-02-2020 05:28:17 9.2 C 36 %
1474 29-02-2020 05:38:17 8.6 C 37 %
1475 29-02-2020 05:48:18 8.8 C 37 %
Sensor: Nr:Datum:Temp:Feuchte:
Aussen-T/F 1476 29-02-2020 05:58:18 9.1 C 36 %
1477 29-02-2020 06:08:17 8.8 C 37 %
1478 29-02-2020 06:18:17 8.4 C 37 %
1479 29-02-2020 06:28:17 8.6 C 37 %
1480 29-02-2020 06:38:17 8.7 C 37 %
1481 29-02-2020 06:48:17 8.6 C 37 %
1482 29-02-2020 06:58:17 8.4 C 37 %
1483 29-02-2020 07:08:17 8.1 C 37 %
1484 29-02-2020 07:18:17 8 C 37 %
1485 29-02-2020 07:28:17 8.3 C 37 %
1486 29-02-2020 07:38:17 7.8 C 38 %
1487 29-02-2020 07:48:17 7.6 C 38 %
1488 29-02-2020 07:58:17 7.3 C 39 %
1489 29-02-2020 08:08:17 7.6 C 38 %
1490 29-02-2020 08:18:17 7.4 C 39 %
1491 29-02-2020 08:28:17 7.5 C 39 %
1492 29-02-2020 08:38:17 7.4 C 39 %
1493 29-02-2020 08:48:17 7.6 C 39 %
1494 29-02-2020 08:58:17 8 C 38 %
1495 29-02-2020 09:08:17 8.3 C 37 %
1496 29-02-2020 09:18:17 8.9 C 36 %
1497 29-02-2020 09:28:17 9.2 C 36 %
1498 29-02-2020 09:38:17 9.6 C 35 %
1499 29-02-2020 09:48:17 10 C 33 %
1500 29-02-2020 09:58:17 10 C 32 %
Sensor: Nr:Datum:Temp:Feuchte:
Aussen-T/F 1501 29-02-2020 10:08:17 10 C 32 %
1502 29-02-2020 10:18:17 9.9 C 33 %
1503 29-02-2020 10:28:17 10.1 C 31 %
1504 29-02-2020 10:38:18 10.4 C 31 %
1505 29-02-2020 10:48:17 10.7 C 31 %
1506 29-02-2020 10:58:17 10.7 C 31 %
1507 29-02-2020 11:08:18 11.1 C 30 %
1508 29-02-2020 11:18:17 12.1 C 30 %
1509 29-02-2020 11:28:17 13.9 C 25 %
1510 29-02-2020 11:38:17 13.7 C 23 %
1511 29-02-2020 11:48:17 13.4 C 24 %
1512 29-02-2020 11:58:17 14.3 C 23 %
1513 29-02-2020 12:08:17 15.5 C 20 %
1514 29-02-2020 12:18:18 15.4 C 20 %
1515 29-02-2020 12:28:18 15.1 C 20 %
1516 29-02-2020 12:38:17 16.2 C 20 %
1517 29-02-2020 12:48:17 15.1 C 20 %
1518 29-02-2020 12:58:17 15.4 C 20 %
1519 29-02-2020 13:08:17 15.5 C 20 %
1520 29-02-2020 13:18:17 15 C 20 %
1521 29-02-2020 13:28:17 14.8 C 20 %
1522 29-02-2020 13:38:18 15.4 C 20 %
1523 29-02-2020 13:48:18 15.6 C 20 %
1524 29-02-2020 13:58:18 16.4 C 20 %
1525 29-02-2020 14:08:18 15.1 C 20 %
Sensor: Nr:Datum:Temp:Feuchte:
Aussen-T/F 1526 29-02-2020 14:18:17 15.1 C 20 %
1527 29-02-2020 14:28:17 14.8 C 21 %
1528 29-02-2020 14:38:17 13.1 C 26 %
1529 29-02-2020 14:48:17 12 C 32 %
1530 29-02-2020 14:58:17 10.5 C 38 %
1531 29-02-2020 15:08:17 10.4 C 39 %
1532 29-02-2020 15:18:17 10.8 C 39 %
1533 29-02-2020 15:28:17 10.6 C 40 %
1534 29-02-2020 15:38:18 10.4 C 39 %
1535 29-02-2020 15:48:17 10.7 C 37 %
1536 29-02-2020 15:58:17 11.3 C 35 %
1537 29-02-2020 16:08:18 12.6 C 32 %
1538 29-02-2020 16:18:17 12 C 32 %
1539 29-02-2020 16:28:18 10.7 C 35 %
1540 29-02-2020 16:38:18 10.1 C 37 %
1541 29-02-2020 16:48:17 9.9 C 37 %
1542 29-02-2020 16:58:17 9.5 C 36 %
1543 29-02-2020 17:08:18 9 C 35 %
1544 29-02-2020 17:18:17 8.9 C 35 %
1545 29-02-2020 17:28:18 8.8 C 34 %
1546 29-02-2020 17:38:18 8.6 C 34 %
1547 29-02-2020 17:48:18 8.6 C 35 %
1548 29-02-2020 17:58:18 8.7 C 34 %
1549 29-02-2020 18:08:18 8.6 C 35 %
1550 29-02-2020 18:18:18 8.2 C 35 %
Sensor: Nr:Datum:Temp:Feuchte:
Aussen-T/F 1551 29-02-2020 18:28:18 8.1 C 35 %
1552 29-02-2020 18:38:18 8 C 35 %
1553 29-02-2020 18:48:17 6.7 C 36 %
1554 29-02-2020 18:58:17 5.9 C 36 %
1555 29-02-2020 19:08:17 5.9 C 37 %
1556 29-02-2020 19:18:18 6 C 36 %
1557 29-02-2020 19:28:18 6.3 C 35 %
1558 29-02-2020 19:38:18 6.7 C 34 %
1559 29-02-2020 19:48:18 6.6 C 34 %
1560 29-02-2020 19:58:18 6.7 C 34 %
1561 29-02-2020 20:08:18 6.6 C 34 %
1562 29-02-2020 20:18:18 6.3 C 34 %
1563 29-02-2020 20:28:18 6.3 C 34 %
1564 29-02-2020 20:38:18 5.9 C 35 %
1565 29-02-2020 20:48:18 5.7 C 35 %
1566 29-02-2020 20:58:18 5.3 C 35 %
1567 29-02-2020 21:08:18 5.2 C 35 %
1568 29-02-2020 21:18:17 5.7 C 34 %
1569 29-02-2020 21:28:17 5 C 35 %
1570 29-02-2020 21:38:17 5 C 35 %
1571 29-02-2020 21:48:17 4.3 C 36 %
1572 29-02-2020 21:58:17 3.9 C 38 %
1573 29-02-2020 22:08:17 3.7 C 38 %
1574 29-02-2020 22:18:18 3.4 C 39 %
1575 29-02-2020 22:28:18 3.3 C 40 %
Sensor: Nr:Datum:Temp:Feuchte:
Aussen-T/F 1576 29-02-2020 22:38:18 3.3 C 41 %
1577 29-02-2020 22:48:17 3.7 C 40 %
1578 29-02-2020 22:58:18 4 C 39 %
1579 29-02-2020 23:08:18 4.2 C 38 %
1580 29-02-2020 23:18:18 4.4 C 38 %
1581 29-02-2020 23:28:18 4.5 C 38 %
1582 29-02-2020 23:38:18 4.7 C 38 %
1583 29-02-2020 23:48:18 5.4 C 36 %
1584 29-02-2020 23:58:18 6.3 C 35 %
1585 01-03-2020 00:08:18 6.6 C 35 %
1586 01-03-2020 00:18:18 6.6 C 35 %
1587 01-03-2020 00:28:18 6.3 C 35 %
1588 01-03-2020 00:38:18 6.2 C 35 %
1589 01-03-2020 00:48:17 6.2 C 35 %
1590 01-03-2020 00:58:18 6.2 C 35 %
1591 01-03-2020 01:08:17 6.1 C 35 %
1592 01-03-2020 01:18:18 6 C 35 %
1593 01-03-2020 01:28:18 5.7 C 35 %
1594 01-03-2020 01:38:18 5.5 C 36 %
1595 01-03-2020 01:48:17 5.8 C 36 %
1596 01-03-2020 01:58:17 5.8 C 35 %
1597 01-03-2020 02:08:17 5.3 C 36 %
1598 01-03-2020 02:18:17 5.8 C 36 %
1599 01-03-2020 02:28:17 5.7 C 36 %
1600 01-03-2020 02:38:17 5.8 C 36 %
Sensor: Nr:Datum:Temp:Feuchte:
Aussen-T/F 1601 01-03-2020 02:48:17 6.2 C 35 %
1602 01-03-2020 02:58:17 6.5 C 35 %
1603 01-03-2020 03:08:18 6.5 C 35 %
1604 01-03-2020 03:18:17 6.6 C 35 %
1605 01-03-2020 03:28:17 6.7 C 35 %
1606 01-03-2020 03:38:18 6.5 C 35 %
1607 01-03-2020 03:48:17 6.4 C 35 %
1608 01-03-2020 03:58:17 6.8 C 35 %
1609 01-03-2020 04:08:17 6.6 C 35 %
1610 01-03-2020 04:18:17 6.9 C 34 %
1611 01-03-2020 04:28:17 7 C 33 %
1612 01-03-2020 04:38:18 6.9 C 34 %
1613 01-03-2020 04:48:17 7.1 C 33 %
1614 01-03-2020 04:58:17 7 C 33 %
1615 01-03-2020 05:08:17 7.1 C 33 %
1616 01-03-2020 05:18:18 6.8 C 34 %
1617 01-03-2020 05:28:18 7.2 C 32 %
1618 01-03-2020 05:38:18 6.8 C 34 %
1619 01-03-2020 05:48:17 6.9 C 34 %
1620 01-03-2020 05:58:18 6.6 C 34 %
1621 01-03-2020 06:08:18 6.7 C 34 %
1622 01-03-2020 06:18:17 6.8 C 34 %
1623 01-03-2020 06:28:17 7 C 33 %
1624 01-03-2020 06:38:17 7.1 C 33 %
1625 01-03-2020 06:48:17 6.4 C 35 %
Sensor: Nr:Datum:Temp:Feuchte:
Aussen-T/F 1626 01-03-2020 06:58:17 5.9 C 36 %
1627 01-03-2020 07:08:17 5.4 C 38 %
1628 01-03-2020 07:18:17 5.4 C 39 %
1629 01-03-2020 07:28:18 5.2 C 39 %
1630 01-03-2020 07:38:18 5.1 C 41 %
1631 01-03-2020 07:48:18 5.2 C 41 %
1632 01-03-2020 07:58:18 5.2 C 42 %
1633 01-03-2020 08:08:18 5.2 C 42 %
1634 01-03-2020 08:18:17 5.3 C 42 %
1635 01-03-2020 08:28:17 5 C 40 %
1636 01-03-2020 08:38:17 4.7 C 41 %
1637 01-03-2020 08:48:17 4 C 41 %
1638 01-03-2020 08:58:17 4 C 42 %
1639 01-03-2020 09:08:17 4.1 C 42 %
1640 01-03-2020 09:18:17 4.3 C 41 %
1641 01-03-2020 09:28:17 4.8 C 40 %
1642 01-03-2020 09:38:17 4.8 C 41 %
1643 01-03-2020 09:48:18 4.7 C 41 %
1644 01-03-2020 09:58:18 4.8 C 41 %
1645 01-03-2020 10:08:17 5.3 C 40 %
1646 01-03-2020 10:18:17 5.7 C 39 %
1647 01-03-2020 10:28:17 7.1 C 36 %
1648 01-03-2020 10:38:17 7.6 C 36 %
1649 01-03-2020 10:48:17 7.8 C 35 %
1650 01-03-2020 10:58:17 8 C 34 %
Sensor: Nr:Datum:Temp:Feuchte:
Aussen-T/F 1651 01-03-2020 11:08:17 8.1 C 33 %
1652 01-03-2020 11:18:17 8.6 C 33 %
1653 01-03-2020 11:28:18 10 C 30 %
1654 01-03-2020 11:38:18 10.2 C 28 %
1655 01-03-2020 11:48:17 8.8 C 29 %
1656 01-03-2020 11:58:17 10.2 C 27 %
1657 01-03-2020 12:08:17 8.9 C 30 %
1658 01-03-2020 12:18:17 9.3 C 28 %
1659 01-03-2020 12:28:17 9.7 C 27 %
1660 01-03-2020 12:38:18 9.2 C 28 %
1661 01-03-2020 12:48:18 11.4 C 26 %
1662 01-03-2020 12:58:18 12.3 C 21 %
1663 01-03-2020 13:08:18 11.4 C 24 %
1664 01-03-2020 13:18:17 10.4 C 25 %
1665 01-03-2020 13:28:17 10.4 C 25 %
1666 01-03-2020 13:38:17 10.6 C 22 %
1667 01-03-2020 13:48:17 10.2 C 22 %
1668 01-03-2020 13:58:17 10.8 C 22 %
1669 01-03-2020 14:08:18 10.1 C 23 %
1670 01-03-2020 14:18:18 9.9 C 25 %
1671 01-03-2020 14:28:18 10.9 C 25 %
1672 01-03-2020 14:38:18 10.5 C 23 %
1673 01-03-2020 14:48:17 10.9 C 25 %
1674 01-03-2020 14:58:18 10.1 C 25 %
1675 01-03-2020 15:08:18 10.1 C 25 %
Sensor: Nr:Datum:Temp:Feuchte:
Aussen-T/F 1676 01-03-2020 15:18:17 12.6 C 20 %
1677 01-03-2020 15:28:17 11.9 C 22 %
1678 01-03-2020 15:38:18 12 C 20 %
1679 01-03-2020 15:48:18 12.8 C 20 %
1680 01-03-2020 15:58:18 11.7 C 21 %
1681 01-03-2020 16:08:18 10.8 C 25 %
1682 01-03-2020 16:18:18 10.5 C 25 %
1683 01-03-2020 16:28:18 10.7 C 25 %
1684 01-03-2020 16:38:18 10.3 C 30 %
1685 01-03-2020 16:48:18 10.2 C 29 %
1686 01-03-2020 16:58:18 9.7 C 31 %
1687 01-03-2020 17:08:18 8.4 C 35 %
1688 01-03-2020 17:18:17 7.8 C 39 %
1689 01-03-2020 17:28:17 7.6 C 42 %
1690 01-03-2020 17:38:17 7.3 C 43 %
1691 01-03-2020 17:48:17 7 C 44 %
1692 01-03-2020 17:58:17 6.9 C 45 %
1693 01-03-2020 18:08:18 6.8 C 45 %
1694 01-03-2020 18:18:18 6.7 C 45 %
1695 01-03-2020 18:28:18 6.7 C 45 %
1696 01-03-2020 18:38:18 6.7 C 45 %
1697 01-03-2020 18:48:18 6.6 C 45 %
1698 01-03-2020 18:58:18 6.5 C 45 %
1699 01-03-2020 19:08:18 6.5 C 45 %
1700 01-03-2020 19:18:17 6.5 C 45 %
Sensor: Nr:Datum:Temp:Feuchte:
Aussen-T/F 1701 01-03-2020 19:28:17 6.4 C 45 %
1702 01-03-2020 19:38:17 6.3 C 45 %
1703 01-03-2020 19:48:17 6.3 C 45 %
1704 01-03-2020 19:58:17 6.2 C 45 %
1705 01-03-2020 20:08:17 6.3 C 45 %
1706 01-03-2020 20:18:17 6.2 C 45 %
1707 01-03-2020 20:28:17 6 C 45 %
1708 01-03-2020 20:38:17 5.8 C 45 %
1709 01-03-2020 20:48:17 5.7 C 45 %
1710 01-03-2020 20:58:17 5.6 C 45 %
1711 01-03-2020 21:08:17 5.6 C 45 %
1712 01-03-2020 21:18:17 5.5 C 45 %
1713 01-03-2020 21:28:17 5.4 C 45 %
1714 01-03-2020 21:38:17 5.7 C 45 %
1715 01-03-2020 21:48:17 5.8 C 45 %
1716 01-03-2020 21:58:17 5.9 C 45 %
1717 01-03-2020 22:08:17 6 C 45 %
1718 01-03-2020 22:18:17 6 C 45 %
1719 01-03-2020 22:28:17 6.1 C 45 %
1720 01-03-2020 22:38:18 6.2 C 45 %
1721 01-03-2020 22:48:17 6.2 C 45 %
1722 01-03-2020 22:58:17 6.3 C 45 %
1723 01-03-2020 23:08:18 6.4 C 45 %
1724 01-03-2020 23:18:18 5.8 C 45 %
1725 01-03-2020 23:28:18 4.3 C 40 %
Sensor: Nr:Datum:Temp:Feuchte:
Aussen-T/F 1726 01-03-2020 23:38:18 3.1 C 41 %
1727 01-03-2020 23:48:18 2.9 C 44 %
1728 01-03-2020 23:58:18 3.1 C 44 %
1729 02-03-2020 00:08:18 3.3 C 44 %
1730 02-03-2020 00:18:17 3.3 C 43 %
1731 02-03-2020 00:28:17 3.5 C 43 %
1732 02-03-2020 00:38:17 3.5 C 43 %
1733 02-03-2020 00:48:17 3.7 C 42 %
1734 02-03-2020 00:58:18 3.6 C 42 %
1735 02-03-2020 01:08:18 3.7 C 42 %
1736 02-03-2020 01:18:17 3.9 C 41 %
1737 02-03-2020 01:28:17 3.8 C 42 %
1738 02-03-2020 01:38:17 3.8 C 41 %
1739 02-03-2020 01:48:18 4 C 40 %
1740 02-03-2020 01:58:18 3.5 C 42 %
1741 02-03-2020 02:08:18 3.7 C 42 %
1742 02-03-2020 02:18:17 3.6 C 42 %
1743 02-03-2020 02:28:17 3.5 C 42 %
1744 02-03-2020 02:38:17 4 C 40 %
1745 02-03-2020 02:48:17 3.8 C 41 %
1746 02-03-2020 02:58:18 3.5 C 42 %
1747 02-03-2020 03:08:18 3.3 C 43 %
1748 02-03-2020 03:18:18 3.4 C 42 %
1749 02-03-2020 03:28:18 2.9 C 44 %
1750 02-03-2020 03:38:18 2.4 C 45 %
Sensor: Nr:Datum:Temp:Feuchte:
Aussen-T/F 1751 02-03-2020 03:48:18 2.9 C 45 %
1752 02-03-2020 03:58:18 2.6 C 45 %
1753 02-03-2020 04:08:18 2.3 C 45 %
1754 02-03-2020 04:18:17 2 C 46 %
1755 02-03-2020 04:28:17 2.2 C 46 %
1756 02-03-2020 04:38:18 2.3 C 47 %
1757 02-03-2020 04:48:18 2.2 C 46 %
1758 02-03-2020 04:58:18 1.9 C 48 %
1759 02-03-2020 05:08:18 1.7 C 48 %
1760 02-03-2020 05:18:17 1.5 C 48 %
1761 02-03-2020 05:28:17 1.3 C 48 %
1762 02-03-2020 05:38:18 1.4 C 48 %
1763 02-03-2020 05:48:18 1.4 C 48 %
1764 02-03-2020 05:58:18 1.3 C 48 %
1765 02-03-2020 06:08:18 1.1 C 48 %
1766 02-03-2020 06:18:18 1.3 C 48 %
1767 02-03-2020 06:28:18 1.3 C 48 %
1768 02-03-2020 06:38:18 1.4 C 48 %
1769 02-03-2020 06:48:17 1.4 C 48 %
1770 02-03-2020 06:58:17 1.5 C 48 %
1771 02-03-2020 07:08:18 1.5 C 48 %
1772 02-03-2020 07:18:18 1.7 C 48 %
1773 02-03-2020 07:28:18 1.8 C 48 %
1774 02-03-2020 07:38:18 2.1 C 47 %
1775 02-03-2020 07:48:18 2.3 C 47 %
Sensor: Nr:Datum:Temp:Feuchte:
Aussen-T/F 1776 02-03-2020 07:58:18 2.5 C 47 %
1777 02-03-2020 08:08:18 2.5 C 47 %
1778 02-03-2020 08:18:17 2.7 C 47 %
1779 02-03-2020 08:28:17 3 C 46 %
1780 02-03-2020 08:38:18 3.2 C 46 %
1781 02-03-2020 08:48:18 3.5 C 46 %
1782 02-03-2020 08:58:18 3.8 C 45 %
1783 02-03-2020 09:08:17 4.1 C 43 %
1784 02-03-2020 09:18:17 4.5 C 42 %
1785 02-03-2020 09:28:17 4.9 C 40 %
1786 02-03-2020 09:38:17 5.4 C 39 %
1787 02-03-2020 09:48:17 5.7 C 39 %
1788 02-03-2020 09:58:17 6.1 C 38 %
1789 02-03-2020 10:08:17 6.6 C 37 %
1790 02-03-2020 10:18:17 6.9 C 36 %
1791 02-03-2020 10:28:17 7.4 C 35 %
1792 02-03-2020 10:38:18 8.2 C 34 %
1793 02-03-2020 10:48:17 8.9 C 34 %
1794 02-03-2020 10:58:17 9 C 33 %
1795 02-03-2020 11:08:17 9 C 33 %
1796 02-03-2020 11:18:17 11.5 C 30 %
1797 02-03-2020 11:28:17 13 C 26 %
1798 02-03-2020 11:38:17 13.9 C 25 %
1799 02-03-2020 11:48:17 11.8 C 27 %
1800 02-03-2020 11:58:17 13.6 C 24 %
Sensor: Nr:Datum:Temp:Feuchte:
Aussen-T/F 1801 02-03-2020 12:08:17 13.3 C 21 %
1802 02-03-2020 12:18:17 13.2 C 21 %
1803 02-03-2020 12:28:17 12.3 C 23 %
1804 02-03-2020 12:38:18 13 C 23 %
1805 02-03-2020 12:48:18 11.8 C 24 %
1806 02-03-2020 12:58:18 11.7 C 25 %
1807 02-03-2020 13:08:18 12.4 C 23 %
1808 02-03-2020 13:18:18 14.7 C 20 %
1809 02-03-2020 13:28:18 14.2 C 20 %
1810 02-03-2020 13:38:17 15.6 C 20 %
1811 02-03-2020 13:48:17 14.1 C 20 %
1812 02-03-2020 13:58:17 12.3 C 21 %
1813 02-03-2020 14:08:17 11.8 C 23 %
1814 02-03-2020 14:18:17 12.1 C 23 %
1815 02-03-2020 14:28:17 11.7 C 25 %
1816 02-03-2020 14:38:17 11.2 C 25 %
1817 02-03-2020 14:48:17 10.9 C 25 %
1818 02-03-2020 14:58:17 10.8 C 26 %
1819 02-03-2020 15:08:18 10.9 C 26 %
1820 02-03-2020 15:18:18 10.9 C 26 %
1821 02-03-2020 15:28:18 10.2 C 26 %
1822 02-03-2020 15:38:18 9.2 C 30 %
1823 02-03-2020 15:48:17 8.7 C 33 %
1824 02-03-2020 15:58:18 8.4 C 36 %
1825 02-03-2020 16:08:18 8 C 40 %
Sensor: Nr:Datum:Temp:Feuchte:
Aussen-T/F 1826 02-03-2020 16:18:18 7.6 C 41 %
1827 02-03-2020 16:28:18 7.3 C 42 %
1828 02-03-2020 16:38:18 7.2 C 43 %
1829 02-03-2020 16:48:17 7.1 C 43 %
1830 02-03-2020 16:58:17 7 C 44 %
1831 02-03-2020 17:08:17 6.9 C 45 %
1832 02-03-2020 17:18:17 6.6 C 45 %
1833 02-03-2020 17:28:17 6.6 C 45 %
1834 02-03-2020 17:38:18 6.4 C 45 %
1835 02-03-2020 17:48:17 6.3 C 45 %
1836 02-03-2020 17:58:18 6.3 C 45 %
1837 02-03-2020 18:08:18 6.2 C 45 %
1838 02-03-2020 18:18:18 6.1 C 45 %
1839 02-03-2020 18:28:18 6 C 45 %
1840 02-03-2020 18:38:18 5.9 C 46 %
1841 02-03-2020 18:48:17 5.9 C 46 %
1842 02-03-2020 18:58:18 5.8 C 46 %
1843 02-03-2020 19:08:18 5.7 C 46 %
1844 02-03-2020 19:18:18 5.7 C 46 %
1845 02-03-2020 19:28:18 5.7 C 46 %
1846 02-03-2020 19:38:18 5.7 C 46 %
1847 02-03-2020 19:48:17 5.7 C 45 %
1848 02-03-2020 19:58:18 5.7 C 45 %
1849 02-03-2020 20:08:18 5.7 C 45 %
1850 02-03-2020 20:18:17 5.7 C 45 %
Sensor: Nr:Datum:Temp:Feuchte:
Aussen-T/F 1851 02-03-2020 20:28:18 5.6 C 45 %
1852 02-03-2020 20:38:18 5.6 C 45 %
1853 02-03-2020 20:48:17 5.6 C 45 %
1854 02-03-2020 20:58:17 5.5 C 45 %
1855 02-03-2020 21:08:18 5.4 C 45 %
1856 02-03-2020 21:18:18 5.4 C 45 %
1857 02-03-2020 21:28:18 5.4 C 45 %
1858 02-03-2020 21:38:18 5.4 C 45 %
1859 02-03-2020 21:48:18 5.4 C 45 %
1860 02-03-2020 21:58:18 5.4 C 45 %
1861 02-03-2020 22:08:18 5.4 C 45 %
1862 02-03-2020 22:18:17 5.4 C 45 %
1863 02-03-2020 22:28:17 5.5 C 45 %
1864 02-03-2020 22:38:17 5.4 C 45 %
1865 02-03-2020 22:48:17 5.5 C 45 %
1866 02-03-2020 22:58:17 5.5 C 45 %
1867 02-03-2020 23:08:17 5.5 C 45 %
1868 02-03-2020 23:18:17 5.2 C 45 %
1869 02-03-2020 23:28:17 5.2 C 45 %
1870 02-03-2020 23:38:17 5.2 C 45 %
1871 02-03-2020 23:48:17 5.3 C 45 %
1872 02-03-2020 23:58:17 5.3 C 45 %
1873 03-03-2020 00:08:18 5.2 C 45 %
1874 03-03-2020 00:18:18 5.1 C 44 %
1875 03-03-2020 00:28:18 5 C 44 %
Sensor: Nr:Datum:Temp:Feuchte:
Aussen-T/F 1876 03-03-2020 00:38:18 5 C 44 %
1877 03-03-2020 00:48:17 4.9 C 45 %
1878 03-03-2020 00:58:17 4.9 C 45 %
1879 03-03-2020 01:08:17 5.1 C 44 %
1880 03-03-2020 01:18:17 5 C 43 %
1881 03-03-2020 01:28:17 5 C 43 %
1882 03-03-2020 01:38:18 4.6 C 41 %
1883 03-03-2020 01:48:17 4.5 C 42 %
1884 03-03-2020 01:58:17 4.4 C 43 %
1885 03-03-2020 02:08:17 4.4 C 43 %
1886 03-03-2020 02:18:17 4.2 C 42 %
1887 03-03-2020 02:28:17 4.1 C 41 %
1888 03-03-2020 02:38:18 4.1 C 41 %
1889 03-03-2020 02:48:18 4.1 C 41 %
1890 03-03-2020 02:58:18 3.9 C 42 %
1891 03-03-2020 03:08:17 3.8 C 41 %
1892 03-03-2020 03:18:17 3.7 C 40 %
1893 03-03-2020 03:28:17 3.4 C 41 %
1894 03-03-2020 03:38:18 3.5 C 41 %
1895 03-03-2020 03:48:18 3 C 42 %
1896 03-03-2020 03:58:18 3.1 C 42 %
1897 03-03-2020 04:08:17 2.8 C 43 %
1898 03-03-2020 04:18:17 3.2 C 41 %
1899 03-03-2020 04:28:17 3.2 C 41 %
1900 03-03-2020 04:38:18 2.9 C 42 %
Sensor: Nr:Datum:Temp:Feuchte:
Aussen-T/F 1901 03-03-2020 04:48:17 2.9 C 43 %
1902 03-03-2020 04:58:18 3.2 C 41 %
1903 03-03-2020 05:08:18 3.1 C 41 %
1904 03-03-2020 05:18:18 2.7 C 43 %
1905 03-03-2020 05:28:18 2.3 C 44 %
1906 03-03-2020 05:38:17 2.6 C 43 %
1907 03-03-2020 05:48:18 2.7 C 42 %
1908 03-03-2020 05:58:18 2.4 C 44 %
1909 03-03-2020 06:08:17 3 C 42 %
1910 03-03-2020 06:18:18 3.1 C 41 %
1911 03-03-2020 06:28:18 2.8 C 42 %
1912 03-03-2020 06:38:17 2.6 C 43 %
1913 03-03-2020 06:48:18 2.7 C 42 %
1914 03-03-2020 06:58:18 2.8 C 42 %
1915 03-03-2020 07:08:18 2.8 C 42 %
1916 03-03-2020 07:18:18 2.6 C 43 %
1917 03-03-2020 07:28:18 2.7 C 43 %
1918 03-03-2020 07:38:18 2.6 C 43 %
1919 03-03-2020 07:48:17 2.5 C 43 %
1920 03-03-2020 07:58:17 2.5 C 43 %
1921 03-03-2020 08:08:18 2.7 C 43 %
1922 03-03-2020 08:18:18 3.3 C 41 %
1923 03-03-2020 08:28:18 3.2 C 41 %
1924 03-03-2020 08:38:17 3.5 C 40 %
1925 03-03-2020 08:48:17 3.6 C 40 %
Sensor: Nr:Datum:Temp:Feuchte:
Aussen-T/F 1926 03-03-2020 08:58:18 3.4 C 40 %
1927 03-03-2020 09:08:18 3.5 C 40 %
1928 03-03-2020 09:18:17 3.2 C 40 %
1929 03-03-2020 09:28:17 3.5 C 40 %
1930 03-03-2020 09:38:17 3.6 C 40 %
1931 03-03-2020 09:48:18 4.1 C 39 %
1932 03-03-2020 09:58:18 4.6 C 38 %
1933 03-03-2020 10:08:18 5.3 C 36 %
1934 03-03-2020 10:18:18 5.1 C 36 %
1935 03-03-2020 10:28:18 5.2 C 35 %
1936 03-03-2020 10:38:18 5.4 C 35 %
1937 03-03-2020 10:48:17 4.9 C 35 %
1938 03-03-2020 10:58:18 5 C 35 %
1939 03-03-2020 11:08:17 5.2 C 35 %
1940 03-03-2020 11:18:17 5.2 C 35 %
1941 03-03-2020 11:28:17 5.3 C 35 %
1942 03-03-2020 11:38:17 5.1 C 35 %
1943 03-03-2020 11:48:17 5.8 C 35 %
1944 03-03-2020 11:58:17 5.7 C 35 %
1945 03-03-2020 12:08:17 6.1 C 35 %
1946 03-03-2020 12:18:17 6.4 C 34 %
1947 03-03-2020 12:28:17 6.6 C 34 %
1948 03-03-2020 12:38:17 6.5 C 33 %
1949 03-03-2020 12:48:17 7.1 C 33 %
1950 03-03-2020 12:58:17 6.6 C 33 %
Sensor: Nr:Datum:Temp:Feuchte:
Aussen-T/F 1951 03-03-2020 13:08:17 6.6 C 33 %
1952 03-03-2020 13:18:17 9.6 C 28 %
1953 03-03-2020 13:28:18 9.8 C 27 %
1954 03-03-2020 13:38:18 8.9 C 27 %
1955 03-03-2020 13:48:17 9.7 C 25 %
1956 03-03-2020 13:58:17 6.2 C 31 %
1957 03-03-2020 14:08:18 5.8 C 35 %
1958 03-03-2020 14:18:18 5.4 C 39 %
1959 03-03-2020 14:28:18 5.7 C 38 %
1960 03-03-2020 14:38:18 5 C 37 %
1961 03-03-2020 14:48:18 4.7 C 39 %
1962 03-03-2020 14:58:18 4.7 C 40 %
1963 03-03-2020 15:08:18 4.7 C 39 %
1964 03-03-2020 15:18:18 6.8 C 36 %
1965 03-03-2020 15:28:18 6.9 C 35 %
1966 03-03-2020 15:38:18 8.9 C 32 %
1967 03-03-2020 15:48:17 8.9 C 30 %
1968 03-03-2020 15:58:17 7.4 C 32 %
1969 03-03-2020 16:08:18 11.8 C 23 %
1970 03-03-2020 16:18:18 9.3 C 25 %
1971 03-03-2020 16:28:18 7.4 C 30 %
1972 03-03-2020 16:38:18 7.2 C 30 %
1973 03-03-2020 16:48:17 7.3 C 31 %
1974 03-03-2020 16:58:17 7.6 C 30 %
1975 03-03-2020 17:08:17 6.7 C 32 %
Sensor: Nr:Datum:Temp:Feuchte:
Aussen-T/F 1976 03-03-2020 17:18:17 6.7 C 33 %
1977 03-03-2020 17:28:18 6.5 C 34 %
1978 03-03-2020 17:38:18 6.4 C 34 %
1979 03-03-2020 17:48:17 6 C 35 %
1980 03-03-2020 17:58:18 5.4 C 36 %
1981 03-03-2020 18:08:18 4.3 C 38 %
1982 03-03-2020 18:18:18 4.4 C 39 %
1983 03-03-2020 18:28:18 4 C 39 %
1984 03-03-2020 18:38:18 3.7 C 41 %
1985 03-03-2020 18:48:17 3.5 C 41 %
1986 03-03-2020 18:58:17 3.6 C 41 %
1987 03-03-2020 19:08:17 3.6 C 40 %
1988 03-03-2020 19:18:17 3.8 C 40 %
1989 03-03-2020 19:28:17 3.1 C 41 %
1990 03-03-2020 19:38:17 3.2 C 41 %
1991 03-03-2020 19:48:17 2.7 C 42 %
1992 03-03-2020 19:58:17 2.3 C 42 %
1993 03-03-2020 20:08:17 1.7 C 45 %
1994 03-03-2020 20:18:17 1.8 C 47 %
1995 03-03-2020 20:28:17 1.7 C 47 %
1996 03-03-2020 20:38:17 1.3 C 46 %
1997 03-03-2020 20:48:17 1.4 C 47 %
1998 03-03-2020 20:58:17 1.3 C 47 %
1999 03-03-2020 21:08:17 1.2 C 47 %
2000 03-03-2020 21:18:17 1.6 C 48 %
Sensor: Nr:Datum:Temp:Feuchte:
Aussen-T/F 2001 03-03-2020 21:28:17 2 C 47 %
2002 03-03-2020 21:38:17 2.1 C 45 %
2003 03-03-2020 21:48:17 2 C 45 %
2004 03-03-2020 21:58:17 2.2 C 45 %
2005 03-03-2020 22:08:17 1.9 C 46 %
2006 03-03-2020 22:18:17 1.5 C 46 %
2007 03-03-2020 22:28:17 1.4 C 47 %
2008 03-03-2020 22:38:17 1.2 C 47 %
2009 03-03-2020 22:48:17 1 C 47 %
2010 03-03-2020 22:58:17 1.2 C 48 %
2011 03-03-2020 23:08:17 1.7 C 48 %
2012 03-03-2020 23:18:18 2.3 C 46 %
2013 03-03-2020 23:28:18 2.4 C 44 %
2014 03-03-2020 23:38:17 2.6 C 44 %
2015 03-03-2020 23:48:17 2.7 C 43 %
2016 03-03-2020 23:58:17 2.8 C 43 %
2017 04-03-2020 00:08:17 3.1 C 42 %
2018 04-03-2020 00:18:18 3 C 41 %
2019 04-03-2020 00:28:18 2.9 C 42 %
2020 04-03-2020 00:38:18 3.1 C 41 %
2021 04-03-2020 00:48:17 2.5 C 42 %
2022 04-03-2020 00:58:17 2.3 C 44 %
2023 04-03-2020 01:08:17 2.6 C 43 %
2024 04-03-2020 01:18:17 2.6 C 42 %
2025 04-03-2020 01:28:17 2.4 C 42 %
Sensor: Nr:Datum:Temp:Feuchte:
Aussen-T/F 2026 04-03-2020 01:38:17 2.5 C 42 %
2027 04-03-2020 01:48:17 2.6 C 42 %
2028 04-03-2020 01:58:17 2.6 C 42 %
2029 04-03-2020 02:08:17 2.7 C 42 %
2030 04-03-2020 02:18:17 2.8 C 42 %
2031 04-03-2020 02:28:18 2.7 C 42 %
2032 04-03-2020 02:38:18 3.2 C 41 %
2033 04-03-2020 02:48:17 3.6 C 40 %
2034 04-03-2020 02:58:18 3.4 C 40 %
2035 04-03-2020 03:08:17 3.3 C 40 %
2036 04-03-2020 03:18:17 3 C 41 %
2037 04-03-2020 03:28:17 3.2 C 41 %
2038 04-03-2020 03:38:17 2.9 C 42 %
2039 04-03-2020 03:48:17 2.6 C 42 %
2040 04-03-2020 03:58:18 2.5 C 44 %
2041 04-03-2020 04:08:18 3.4 C 41 %
2042 04-03-2020 04:18:18 3.4 C 41 %
2043 04-03-2020 04:28:18 3.6 C 40 %
2044 04-03-2020 04:38:18 3.6 C 40 %
2045 04-03-2020 04:48:17 3.7 C 40 %
2046 04-03-2020 04:58:18 3.5 C 41 %
2047 04-03-2020 05:08:18 3.4 C 41 %
2048 04-03-2020 05:18:18 3.2 C 42 %
2049 04-03-2020 05:28:18 3.1 C 44 %
2050 04-03-2020 05:38:18 3.2 C 44 %
Sensor: Nr:Datum:Temp:Feuchte:
Aussen-T/F 2051 04-03-2020 05:48:17 3.2 C 43 %
2052 04-03-2020 05:58:18 3.2 C 43 %
2053 04-03-2020 06:08:18 3.3 C 43 %
2054 04-03-2020 06:18:18 3.3 C 42 %
2055 04-03-2020 06:28:18 3.4 C 42 %
2056 04-03-2020 06:38:18 3.6 C 42 %
2057 04-03-2020 06:48:17 3.6 C 42 %
2058 04-03-2020 06:58:17 3.7 C 41 %
2059 04-03-2020 07:08:17 3.7 C 41 %
2060 04-03-2020 07:18:17 3.9 C 41 %
2061 04-03-2020 07:28:17 3.9 C 41 %
2062 04-03-2020 07:38:18 4 C 40 %
2063 04-03-2020 07:48:17 3.9 C 41 %
2064 04-03-2020 07:58:17 3.7 C 41 %
2065 04-03-2020 08:08:18 3.3 C 42 %
2066 04-03-2020 08:18:17 3.4 C 42 %
2067 04-03-2020 08:28:17 3.8 C 41 %
2068 04-03-2020 08:38:18 3.7 C 41 %
2069 04-03-2020 08:48:18 4.1 C 40 %
2070 04-03-2020 08:58:18 3.7 C 41 %
2071 04-03-2020 09:08:18 3.9 C 41 %
2072 04-03-2020 09:18:18 4.2 C 40 %
2073 04-03-2020 09:28:18 4.6 C 40 %
2074 04-03-2020 09:38:18 4.7 C 39 %
2075 04-03-2020 09:48:17 5.1 C 38 %
Sensor: Nr:Datum:Temp:Feuchte:
Aussen-T/F 2076 04-03-2020 09:58:18 5.4 C 37 %
2077 04-03-2020 10:08:18 5.6 C 37 %
2078 04-03-2020 10:18:18 5.8 C 37 %
2079 04-03-2020 10:28:18 6 C 36 %
2080 04-03-2020 10:38:17 6.6 C 36 %
2081 04-03-2020 10:48:18 6.4 C 36 %
2082 04-03-2020 10:58:18 6.5 C 36 %
2083 04-03-2020 11:08:18 6.8 C 35 %
2084 04-03-2020 11:18:18 7.7 C 34 %
2085 04-03-2020 11:28:18 8.2 C 33 %
2086 04-03-2020 11:38:18 8.3 C 32 %
2087 04-03-2020 11:48:18 8.8 C 32 %
2088 04-03-2020 11:58:18 9.5 C 31 %
2089 04-03-2020 12:08:18 9.6 C 31 %
2090 04-03-2020 12:18:18 10.1 C 30 %
2091 04-03-2020 12:28:18 9 C 30 %
2092 04-03-2020 12:38:18 9.9 C 29 %
2093 04-03-2020 12:48:17 10.9 C 28 %
2094 04-03-2020 12:58:17 9.1 C 29 %
2095 04-03-2020 13:08:17 9.3 C 28 %
2096 04-03-2020 13:18:17 9.4 C 28 %
2097 04-03-2020 13:28:17 10.7 C 27 %
2098 04-03-2020 13:38:18 9.5 C 28 %
2099 04-03-2020 13:48:17 9.6 C 28 %
2100 04-03-2020 13:58:17 10.2 C 26 %
Sensor: Nr:Datum:Temp:Feuchte:
Aussen-T/F 2101 04-03-2020 14:08:18 10.6 C 26 %
2102 04-03-2020 14:18:18 9.6 C 27 %
2103 04-03-2020 14:28:18 9.6 C 27 %
2104 04-03-2020 14:38:18 10.1 C 26 %
2105 04-03-2020 14:48:18 9.5 C 28 %
2106 04-03-2020 14:58:18 9 C 28 %
2107 04-03-2020 15:08:18 9.4 C 28 %
2108 04-03-2020 15:18:18 9.5 C 28 %
2109 04-03-2020 15:28:18 9.7 C 27 %
2110 04-03-2020 15:38:18 9.4 C 29 %
2111 04-03-2020 15:48:17 9.5 C 28 %
2112 04-03-2020 15:58:18 10.6 C 26 %
2113 04-03-2020 16:08:17 10.1 C 26 %
2114 04-03-2020 16:18:17 10.9 C 26 %
2115 04-03-2020 16:28:17 10 C 26 %
2116 04-03-2020 16:38:17 10.9 C 26 %
2117 04-03-2020 16:48:17 11 C 25 %
2118 04-03-2020 16:58:17 11.5 C 25 %
2119 04-03-2020 17:08:17 10.6 C 25 %
2120 04-03-2020 17:18:17 8.8 C 27 %
2121 04-03-2020 17:28:18 8 C 29 %
2122 04-03-2020 17:38:18 7.3 C 32 %
2123 04-03-2020 17:48:17 6.4 C 35 %
2124 04-03-2020 17:58:17 5.7 C 36 %
2125 04-03-2020 18:08:17 5.2 C 37 %
Sensor: Nr:Datum:Temp:Feuchte:
Aussen-T/F 2126 04-03-2020 18:18:17 4.8 C 38 %
2127 04-03-2020 18:28:17 4.7 C 39 %
2128 04-03-2020 18:38:17 4.5 C 39 %
2129 04-03-2020 18:48:17 4.3 C 39 %
2130 04-03-2020 18:58:17 4 C 39 %
2131 04-03-2020 19:08:17 3.9 C 40 %
2132 04-03-2020 19:18:17 4 C 40 %
2133 04-03-2020 19:28:17 4.1 C 40 %
2134 04-03-2020 19:38:17 4.1 C 40 %
2135 04-03-2020 19:48:18 4 C 40 %
2136 04-03-2020 19:58:18 3.7 C 41 %
2137 04-03-2020 20:08:17 3.8 C 41 %
2138 04-03-2020 20:18:17 3.7 C 41 %
2139 04-03-2020 20:28:17 3.4 C 41 %
2140 04-03-2020 20:38:17 3.1 C 42 %
2141 04-03-2020 20:48:18 3.1 C 42 %
2142 04-03-2020 20:58:18 2.9 C 43 %
2143 04-03-2020 21:08:18 3.3 C 42 %
2144 04-03-2020 21:18:18 3 C 42 %
2145 04-03-2020 21:28:18 3.1 C 42 %
2146 04-03-2020 21:38:18 3.3 C 42 %
2147 04-03-2020 21:48:18 3.1 C 42 %
2148 04-03-2020 21:58:18 3.1 C 42 %
2149 04-03-2020 22:08:18 2.6 C 44 %
2150 04-03-2020 22:18:17 2.5 C 45 %
Sensor: Nr:Datum:Temp:Feuchte:
Aussen-T/F 2151 04-03-2020 22:28:17 2.4 C 45 %
2152 04-03-2020 22:38:17 2.9 C 46 %
2153 04-03-2020 22:48:17 2.9 C 46 %
2154 04-03-2020 22:58:17 3.2 C 45 %
2155 04-03-2020 23:08:17 3.3 C 43 %
2156 04-03-2020 23:18:17 3.6 C 43 %
2157 04-03-2020 23:28:18 3.5 C 43 %
2158 04-03-2020 23:38:18 3.6 C 43 %
2159 04-03-2020 23:48:18 3.7 C 45 %
2160 04-03-2020 23:58:18 3.6 C 45 %
2161 05-03-2020 00:08:18 3.6 C 46 %
2162 05-03-2020 00:18:18 3.6 C 46 %
2163 05-03-2020 00:28:18 3.8 C 47 %
2164 05-03-2020 00:38:17 3.8 C 47 %
2165 05-03-2020 00:48:17 3.6 C 47 %
2166 05-03-2020 00:58:17 3.5 C 47 %
2167 05-03-2020 01:08:17 3.5 C 47 %
2168 05-03-2020 01:18:17 3.5 C 47 %
2169 05-03-2020 01:28:17 3.4 C 47 %
2170 05-03-2020 01:38:17 3.4 C 47 %
2171 05-03-2020 01:48:18 3.5 C 47 %
2172 05-03-2020 01:58:18 3.5 C 47 %
2173 05-03-2020 02:08:18 3.6 C 46 %
2174 05-03-2020 02:18:18 3.7 C 46 %
2175 05-03-2020 02:28:18 3.7 C 45 %
Sensor: Nr:Datum:Temp:Feuchte:
Aussen-T/F 2176 05-03-2020 02:38:18 3.7 C 44 %
2177 05-03-2020 02:48:18 3.9 C 43 %
2178 05-03-2020 02:58:18 3.9 C 43 %
2179 05-03-2020 03:08:18 4 C 42 %
2180 05-03-2020 03:18:17 4.1 C 42 %
2181 05-03-2020 03:28:17 4 C 41 %
2182 05-03-2020 03:38:17 4.1 C 41 %
2183 05-03-2020 03:48:17 4 C 42 %
2184 05-03-2020 03:58:17 3.8 C 43 %
2185 05-03-2020 04:08:17 3.8 C 44 %
2186 05-03-2020 04:18:17 3.9 C 44 %
2187 05-03-2020 04:28:18 3.9 C 43 %
2188 05-03-2020 04:38:18 3.9 C 43 %
2189 05-03-2020 04:48:17 3.8 C 43 %
2190 05-03-2020 04:58:18 3.8 C 43 %
2191 05-03-2020 05:08:18 3.9 C 44 %
2192 05-03-2020 05:18:18 3.9 C 44 %
2193 05-03-2020 05:28:18 3.8 C 44 %
2194 05-03-2020 05:38:18 3.9 C 44 %
2195 05-03-2020 05:48:17 3.7 C 44 %
2196 05-03-2020 05:58:18 3.9 C 44 %
2197 05-03-2020 06:08:18 4 C 43 %
2198 05-03-2020 06:18:18 3.9 C 43 %
2199 05-03-2020 06:28:18 4 C 42 %
2200 05-03-2020 06:38:18 4 C 42 %
Sensor: Nr:Datum:Temp:Feuchte:
Aussen-T/F 2201 05-03-2020 06:48:17 4.1 C 42 %
2202 05-03-2020 06:58:17 4.1 C 42 %
2203 05-03-2020 07:08:18 4.2 C 42 %
2204 05-03-2020 07:18:17 4.3 C 42 %
2205 05-03-2020 07:28:18 4.4 C 42 %
2206 05-03-2020 07:38:18 4.5 C 41 %
2207 05-03-2020 07:48:17 4.7 C 41 %
2208 05-03-2020 07:58:17 4.8 C 41 %
2209 05-03-2020 08:08:18 4.7 C 41 %
2210 05-03-2020 08:18:18 4.8 C 41 %
2211 05-03-2020 08:28:18 4.8 C 41 %
2212 05-03-2020 08:38:17 5.1 C 40 %
2213 05-03-2020 08:48:17 5.3 C 40 %
2214 05-03-2020 08:58:17 5.4 C 40 %
2215 05-03-2020 09:08:17 5.9 C 40 %
2216 05-03-2020 09:18:17 6.1 C 38 %
2217 05-03-2020 09:28:17 6.4 C 38 %
2218 05-03-2020 09:38:17 6.4 C 38 %
2219 05-03-2020 09:48:17 6.6 C 38 %
2220 05-03-2020 09:58:17 6.6 C 38 %
2221 05-03-2020 10:08:18 6.9 C 38 %
2222 05-03-2020 10:18:17 6.4 C 38 %
2223 05-03-2020 10:28:17 6.3 C 38 %
2224 05-03-2020 10:38:18 6.2 C 38 %
2225 05-03-2020 10:48:18 6.3 C 39 %
Sensor: Nr:Datum:Temp:Feuchte:
Aussen-T/F 2226 05-03-2020 10:58:18 6.7 C 38 %
2227 05-03-2020 11:08:17 7 C 38 %
2228 05-03-2020 11:18:17 7.1 C 37 %
2229 05-03-2020 11:28:17 7.3 C 37 %
2230 05-03-2020 11:38:18 7.7 C 37 %
2231 05-03-2020 11:48:18 7.8 C 37 %
2232 05-03-2020 11:58:18 7.4 C 37 %
2233 05-03-2020 12:08:17 7.5 C 37 %
2234 05-03-2020 12:18:17 7.5 C 37 %
2235 05-03-2020 12:28:18 6.9 C 38 %
2236 05-03-2020 12:38:18 7.1 C 38 %
2237 05-03-2020 12:48:17 7 C 39 %
2238 05-03-2020 12:58:17 6.8 C 40 %
2239 05-03-2020 13:08:17 6.8 C 41 %
2240 05-03-2020 13:18:17 6.9 C 41 %
2241 05-03-2020 13:28:17 6.9 C 41 %
2242 05-03-2020 13:38:17 7 C 41 %
2243 05-03-2020 13:48:17 6.6 C 42 %
2244 05-03-2020 13:58:17 6.4 C 42 %
2245 05-03-2020 14:08:17 6.4 C 43 %
2246 05-03-2020 14:18:17 6.4 C 43 %
2247 05-03-2020 14:28:17 6.3 C 42 %
2248 05-03-2020 14:38:17 6.3 C 43 %
2249 05-03-2020 14:48:18 6.3 C 44 %
2250 05-03-2020 14:58:18 6.3 C 44 %
Sensor: Nr:Datum:Temp:Feuchte:
Aussen-T/F 2251 05-03-2020 15:08:18 6.3 C 45 %
2252 05-03-2020 15:18:18 6.3 C 45 %
2253 05-03-2020 15:28:18 6.3 C 45 %
2254 05-03-2020 15:38:18 6.4 C 45 %
2255 05-03-2020 15:48:17 6.5 C 45 %
2256 05-03-2020 15:58:17 6.7 C 45 %
2257 05-03-2020 16:08:17 6.7 C 44 %
2258 05-03-2020 16:18:17 6.7 C 43 %
2259 05-03-2020 16:28:17 6.5 C 43 %
2260 05-03-2020 16:38:17 6.4 C 43 %
2261 05-03-2020 16:48:18 6.3 C 44 %
2262 05-03-2020 16:58:18 6.2 C 45 %
2263 05-03-2020 17:08:17 6.1 C 45 %
2264 05-03-2020 17:18:17 6 C 45 %
2265 05-03-2020 17:28:17 6 C 45 %
2266 05-03-2020 17:38:17 5.9 C 46 %
2267 05-03-2020 17:48:17 5.9 C 46 %
2268 05-03-2020 17:58:17 5.9 C 46 %
2269 05-03-2020 18:08:18 5.8 C 46 %
2270 05-03-2020 18:18:17 5.9 C 46 %
2271 05-03-2020 18:28:17 5.8 C 46 %
2272 05-03-2020 18:38:17 5.7 C 46 %
2273 05-03-2020 18:48:17 5.7 C 46 %
2274 05-03-2020 18:58:17 5.7 C 46 %
2275 05-03-2020 19:08:18 5.7 C 46 %
Sensor: Nr:Datum:Temp:Feuchte:
Aussen-T/F 2276 05-03-2020 19:18:17 5.6 C 46 %
2277 05-03-2020 19:28:17 5.5 C 46 %
2278 05-03-2020 19:38:17 5.5 C 46 %
2279 05-03-2020 19:48:18 5.7 C 46 %
2280 05-03-2020 19:58:18 5.7 C 46 %
2281 05-03-2020 20:08:17 5.8 C 45 %
2282 05-03-2020 20:18:17 5.9 C 45 %
2283 05-03-2020 20:28:17 6.1 C 45 %
2284 05-03-2020 20:38:18 6.1 C 45 %
2285 05-03-2020 20:48:17 6 C 45 %
2286 05-03-2020 20:58:17 6 C 45 %
2287 05-03-2020 21:08:18 6.1 C 45 %
2288 05-03-2020 21:18:17 6.1 C 45 %
2289 05-03-2020 21:28:17 6.1 C 45 %
2290 05-03-2020 21:38:17 6.1 C 45 %
2291 05-03-2020 21:48:17 6 C 45 %
2292 05-03-2020 21:58:17 6.1 C 45 %
2293 05-03-2020 22:08:17 6 C 45 %
2294 05-03-2020 22:18:17 6.2 C 45 %
2295 05-03-2020 22:28:17 6.1 C 45 %
2296 05-03-2020 22:38:18 6 C 45 %
2297 05-03-2020 22:48:17 6.1 C 45 %
2298 05-03-2020 22:58:17 6 C 45 %
2299 05-03-2020 23:08:17 6.2 C 45 %
2300 05-03-2020 23:18:17 6.1 C 45 %
Sensor: Nr:Datum:Temp:Feuchte:
Aussen-T/F 2301 05-03-2020 23:28:18 6.1 C 45 %
2302 05-03-2020 23:38:18 6.1 C 45 %
2303 05-03-2020 23:48:18 6.1 C 45 %
2304 05-03-2020 23:58:18 6.1 C 44 %
2305 06-03-2020 00:08:17 6.1 C 44 %
2306 06-03-2020 00:18:17 6.2 C 44 %
2307 06-03-2020 00:28:18 6.2 C 44 %
2308 06-03-2020 00:38:18 6.2 C 44 %
2309 06-03-2020 00:48:17 6.3 C 44 %
2310 06-03-2020 00:58:17 6.4 C 44 %
2311 06-03-2020 01:08:18 6.6 C 44 %
2312 06-03-2020 01:18:17 6.7 C 44 %
2313 06-03-2020 01:28:17 7 C 43 %
2314 06-03-2020 01:38:18 7.1 C 43 %
2315 06-03-2020 01:48:17 7.3 C 40 %
2316 06-03-2020 01:58:18 6.9 C 40 %
2317 06-03-2020 02:08:18 6.9 C 40 %
2318 06-03-2020 02:18:18 6.9 C 40 %
2319 06-03-2020 02:28:18 6.5 C 40 %
2320 06-03-2020 02:38:17 6.4 C 41 %
2321 06-03-2020 02:48:17 6.4 C 40 %
2322 06-03-2020 02:58:17 6.4 C 40 %
2323 06-03-2020 03:08:17 6.2 C 40 %
2324 06-03-2020 03:18:18 6.2 C 40 %
2325 06-03-2020 03:28:18 6.4 C 40 %
Sensor: Nr:Datum:Temp:Feuchte:
Aussen-T/F 2326 06-03-2020 03:38:18 6 C 40 %
2327 06-03-2020 03:48:17 5.8 C 41 %
2328 06-03-2020 03:58:18 5.6 C 43 %
2329 06-03-2020 04:08:17 5.5 C 44 %
2330 06-03-2020 04:18:17 5.4 C 45 %
2331 06-03-2020 04:28:17 5.5 C 45 %
2332 06-03-2020 04:38:18 5.4 C 45 %
2333 06-03-2020 04:48:17 5.4 C 46 %
2334 06-03-2020 04:58:18 5.5 C 45 %
2335 06-03-2020 05:08:18 5.6 C 44 %
2336 06-03-2020 05:18:18 5.6 C 44 %
2337 06-03-2020 05:28:18 5.6 C 45 %
2338 06-03-2020 05:38:18 5.8 C 44 %
2339 06-03-2020 05:48:17 5.8 C 44 %
2340 06-03-2020 05:58:17 5.8 C 44 %
2341 06-03-2020 06:08:17 5.8 C 45 %
2342 06-03-2020 06:18:17 5.8 C 45 %
2343 06-03-2020 06:28:17 5.9 C 45 %
2344 06-03-2020 06:38:18 6 C 44 %
2345 06-03-2020 06:48:17 6 C 44 %
2346 06-03-2020 06:58:17 6.1 C 45 %
2347 06-03-2020 07:08:17 6 C 45 %
2348 06-03-2020 07:18:18 6 C 45 %
2349 06-03-2020 07:28:18 6 C 45 %
2350 06-03-2020 07:38:18 6 C 45 %
Sensor: Nr:Datum:Temp:Feuchte:
Aussen-T/F 2351 06-03-2020 07:48:17 5.9 C 45 %
2352 06-03-2020 07:58:18 5.6 C 43 %
2353 06-03-2020 08:08:17 5.3 C 42 %
2354 06-03-2020 08:18:17 5 C 41 %
2355 06-03-2020 08:28:17 4.9 C 42 %
2356 06-03-2020 08:38:17 4.9 C 43 %
2357 06-03-2020 08:48:18 4.8 C 44 %
2358 06-03-2020 08:58:18 4.8 C 44 %
2359 06-03-2020 09:08:17 4.9 C 44 %
2360 06-03-2020 09:18:17 4.9 C 43 %
2361 06-03-2020 09:28:17 4.9 C 42 %
2362 06-03-2020 09:38:18 4.8 C 42 %
2363 06-03-2020 09:48:18 4.9 C 42 %
2364 06-03-2020 09:58:18 4.8 C 41 %
2365 06-03-2020 10:08:18 4.9 C 41 %
2366 06-03-2020 10:18:18 4.7 C 42 %
2367 06-03-2020 10:28:18 4.7 C 41 %
2368 06-03-2020 10:38:18 4.7 C 41 %
2369 06-03-2020 10:48:17 4.8 C 41 %
2370 06-03-2020 10:58:18 4.9 C 41 %
2371 06-03-2020 11:08:18 5 C 40 %
2372 06-03-2020 11:18:18 5.2 C 40 %
2373 06-03-2020 11:28:18 5.3 C 40 %
2374 06-03-2020 11:38:18 5.1 C 40 %
2375 06-03-2020 11:48:17 4.9 C 41 %
Sensor: Nr:Datum:Temp:Feuchte:
Aussen-T/F 2376 06-03-2020 11:58:17 4.7 C 41 %
2377 06-03-2020 12:08:17 4.6 C 41 %
2378 06-03-2020 12:18:17 4.5 C 41 %
2379 06-03-2020 12:28:17 4.6 C 41 %
2380 06-03-2020 12:38:18 4.4 C 41 %
2381 06-03-2020 12:48:18 4.6 C 41 %
2382 06-03-2020 12:58:18 4.5 C 41 %
2383 06-03-2020 13:08:18 4.7 C 41 %
2384 06-03-2020 13:18:18 5 C 40 %
2385 06-03-2020 13:28:18 5.1 C 40 %
2386 06-03-2020 13:38:17 5.3 C 40 %
2387 06-03-2020 13:48:17 5.1 C 40 %
2388 06-03-2020 13:58:17 5 C 40 %
2389 06-03-2020 14:08:17 4.8 C 41 %
2390 06-03-2020 14:18:17 4.8 C 41 %
2391 06-03-2020 14:28:17 4.8 C 41 %
2392 06-03-2020 14:38:17 5 C 40 %
2393 06-03-2020 14:48:17 5.3 C 40 %
2394 06-03-2020 14:58:17 5.3 C 40 %
2395 06-03-2020 15:08:17 5.4 C 39 %
2396 06-03-2020 15:18:17 5.6 C 39 %
2397 06-03-2020 15:28:17 5.8 C 39 %
2398 06-03-2020 15:38:18 5.9 C 38 %
2399 06-03-2020 15:48:17 5.8 C 38 %
2400 06-03-2020 15:58:17 6 C 37 %
Sensor: Nr:Datum:Temp:Feuchte:
Aussen-T/F 2401 06-03-2020 16:08:17 6.1 C 37 %
2402 06-03-2020 16:18:18 6.1 C 37 %
2403 06-03-2020 16:28:18 6.1 C 37 %
2404 06-03-2020 16:38:18 6.1 C 38 %
2405 06-03-2020 16:48:17 6 C 38 %
2406 06-03-2020 16:58:17 6.3 C 38 %
2407 06-03-2020 17:08:18 6.5 C 38 %
2408 06-03-2020 17:18:18 6.9 C 37 %
2409 06-03-2020 17:28:18 6.8 C 37 %
2410 06-03-2020 17:38:18 6.8 C 37 %
2411 06-03-2020 17:48:17 6.9 C 37 %
2412 06-03-2020 17:58:18 6.7 C 37 %
2413 06-03-2020 18:08:18 6.8 C 37 %
2414 06-03-2020 18:18:18 6.6 C 37 %
2415 06-03-2020 18:28:18 5.9 C 38 %
2416 06-03-2020 18:38:18 6 C 37 %
2417 06-03-2020 18:48:17 6.5 C 37 %
2418 06-03-2020 18:58:18 6.4 C 37 %
2419 06-03-2020 19:08:18 6.5 C 37 %
2420 06-03-2020 19:18:18 6.3 C 37 %
2421 06-03-2020 19:28:18 6.2 C 37 %
2422 06-03-2020 19:38:18 6.3 C 37 %
2423 06-03-2020 19:48:17 6.3 C 37 %
2424 06-03-2020 19:58:17 6.2 C 36 %
2425 06-03-2020 20:08:18 6.2 C 36 %
Sensor: Nr:Datum:Temp:Feuchte:
Aussen-T/F 2426 06-03-2020 20:18:18 5.9 C 37 %
2427 06-03-2020 20:28:18 5.7 C 37 %
2428 06-03-2020 20:38:18 5.5 C 38 %
2429 06-03-2020 20:48:17 5.4 C 38 %
2430 06-03-2020 20:58:17 5.2 C 38 %
2431 06-03-2020 21:08:17 5.3 C 38 %
2432 06-03-2020 21:18:18 5.1 C 38 %
2433 06-03-2020 21:28:18 5.2 C 38 %
2434 06-03-2020 21:38:18 5.2 C 37 %
2435 06-03-2020 21:48:17 4.9 C 38 %
2436 06-03-2020 21:58:18 4.7 C 39 %
2437 06-03-2020 22:08:17 4.8 C 39 %
2438 06-03-2020 22:18:17 5.1 C 38 %
2439 06-03-2020 22:28:18 5 C 38 %
2440 06-03-2020 22:38:18 5.2 C 38 %
2441 06-03-2020 22:48:17 5.3 C 38 %
2442 06-03-2020 22:58:17 5.3 C 38 %
2443 06-03-2020 23:08:18 5.2 C 38 %
2444 06-03-2020 23:18:18 5.3 C 38 %
2445 06-03-2020 23:28:18 5.2 C 37 %
2446 06-03-2020 23:38:17 5.3 C 37 %
2447 06-03-2020 23:48:17 5.3 C 37 %
2448 06-03-2020 23:58:17 5.1 C 38 %
2449 07-03-2020 00:08:17 5.1 C 37 %
2450 07-03-2020 00:18:18 5.1 C 37 %
Sensor: Nr:Datum:Temp:Feuchte:
Aussen-T/F 2451 07-03-2020 00:28:18 5.1 C 37 %
2452 07-03-2020 00:38:17 5.1 C 37 %
2453 07-03-2020 00:48:17 5.1 C 37 %
2454 07-03-2020 00:58:17 5 C 37 %
2455 07-03-2020 01:08:17 5.1 C 38 %
2456 07-03-2020 01:18:17 5.1 C 38 %
2457 07-03-2020 01:28:17 5.1 C 38 %
2458 07-03-2020 01:38:18 5.3 C 37 %
2459 07-03-2020 01:48:18 5.2 C 38 %
2460 07-03-2020 01:58:18 5.2 C 38 %
2461 07-03-2020 02:08:18 5.2 C 38 %
2462 07-03-2020 02:18:17 5.3 C 38 %
2463 07-03-2020 02:28:17 5.1 C 38 %
2464 07-03-2020 02:38:17 5.1 C 38 %
2465 07-03-2020 02:48:18 5.1 C 38 %
2466 07-03-2020 02:58:18 5.1 C 38 %
2467 07-03-2020 03:08:18 4.9 C 39 %
2468 07-03-2020 03:18:17 4.7 C 40 %
2469 07-03-2020 03:28:17 4.6 C 40 %
2470 07-03-2020 03:38:17 4.7 C 40 %
2471 07-03-2020 03:48:17 4.7 C 39 %
2472 07-03-2020 03:58:17 4.6 C 40 %
2473 07-03-2020 04:08:18 4.6 C 40 %
2474 07-03-2020 04:18:17 4.7 C 40 %
2475 07-03-2020 04:28:17 4.8 C 39 %
Sensor: Nr:Datum:Temp:Feuchte:
Aussen-T/F 2476 07-03-2020 04:38:18 4.7 C 39 %
2477 07-03-2020 04:48:17 4.7 C 39 %
2478 07-03-2020 04:58:18 4.7 C 39 %
2479 07-03-2020 05:08:18 4.6 C 39 %
2480 07-03-2020 05:18:18 4.6 C 39 %
2481 07-03-2020 05:28:18 4.6 C 39 %
2482 07-03-2020 05:38:18 4.6 C 39 %
2483 07-03-2020 05:48:18 4.5 C 39 %
2484 07-03-2020 05:58:18 4.5 C 39 %
2485 07-03-2020 06:08:17 4.6 C 39 %
2486 07-03-2020 06:18:17 4.6 C 40 %
2487 07-03-2020 06:28:17 4.6 C 39 %
2488 07-03-2020 06:38:18 4.5 C 39 %
2489 07-03-2020 06:48:17 4.5 C 39 %
2490 07-03-2020 06:58:17 4.5 C 39 %
2491 07-03-2020 07:08:18 4.5 C 39 %
2492 07-03-2020 07:18:18 4.4 C 39 %
2493 07-03-2020 07:28:18 4.4 C 39 %
2494 07-03-2020 07:38:18 4.3 C 40 %
2495 07-03-2020 07:48:17 4 C 40 %
2496 07-03-2020 07:58:17 3.7 C 42 %
2497 07-03-2020 08:08:18 3.7 C 45 %
2498 07-03-2020 08:18:17 3.7 C 44 %
2499 07-03-2020 08:28:17 3.9 C 43 %
2500 07-03-2020 08:38:17 4 C 42 %
Sensor: Nr:Datum:Temp:Feuchte:
Aussen-T/F 2501 07-03-2020 08:48:17 4.4 C 41 %
2502 07-03-2020 08:58:17 4.7 C 40 %
2503 07-03-2020 09:08:17 5.1 C 38 %
2504 07-03-2020 09:18:17 5.3 C 37 %
2505 07-03-2020 09:28:17 5.6 C 37 %
2506 07-03-2020 09:38:17 5.7 C 36 %
2507 07-03-2020 09:48:17 6.3 C 36 %
2508 07-03-2020 09:58:17 6.5 C 35 %
2509 07-03-2020 10:08:17 6.1 C 35 %
2510 07-03-2020 10:18:17 5.7 C 36 %
2511 07-03-2020 10:28:17 6.5 C 36 %
2512 07-03-2020 10:38:17 6.4 C 35 %
2513 07-03-2020 10:48:18 7 C 35 %
2514 07-03-2020 10:58:18 7.3 C 35 %
2515 07-03-2020 11:08:18 7.3 C 34 %
2516 07-03-2020 11:18:18 7.8 C 32 %
2517 07-03-2020 11:28:18 7.6 C 31 %
2518 07-03-2020 11:38:18 7.8 C 30 %
2519 07-03-2020 11:48:17 9.7 C 25 %
2520 07-03-2020 11:58:18 7.6 C 29 %
2521 07-03-2020 12:08:18 7.6 C 29 %
2522 07-03-2020 12:18:18 7.8 C 29 %
2523 07-03-2020 12:28:18 7.8 C 30 %
2524 07-03-2020 12:38:17 8.2 C 30 %
2525 07-03-2020 12:48:18 7.5 C 28 %
Sensor: Nr:Datum:Temp:Feuchte:
Aussen-T/F 2526 07-03-2020 12:58:18 8 C 27 %
2527 07-03-2020 13:08:17 9.5 C 26 %
2528 07-03-2020 13:18:18 9.1 C 21 %
2529 07-03-2020 13:28:18 9.1 C 25 %
2530 07-03-2020 13:38:18 8.8 C 26 %
2531 07-03-2020 13:48:18 9.1 C 26 %
2532 07-03-2020 13:58:18 10 C 25 %
2533 07-03-2020 14:08:17 8.9 C 26 %
2534 07-03-2020 14:18:17 10.5 C 20 %
2535 07-03-2020 14:28:17 10.1 C 20 %
2536 07-03-2020 14:38:18 9.8 C 20 %
2537 07-03-2020 14:48:17 11.6 C 20 %
2538 07-03-2020 14:58:18 11.5 C 20 %
2539 07-03-2020 15:08:18 12.4 C 20 %
2540 07-03-2020 15:18:18 11.1 C 20 %
2541 07-03-2020 15:28:18 9.8 C 20 %
2542 07-03-2020 15:38:17 12.4 C 20 %
2543 07-03-2020 15:48:18 10.8 C 20 %
2544 07-03-2020 15:58:18 9.5 C 20 %
2545 07-03-2020 16:08:17 11.7 C 20 %
2546 07-03-2020 16:18:17 10.4 C 20 %
2547 07-03-2020 16:28:17 9.6 C 20 %
2548 07-03-2020 16:38:17 9.1 C 20 %
2549 07-03-2020 16:48:18 8.9 C 20 %
2550 07-03-2020 16:58:18 8.8 C 20 %
Sensor: Nr:Datum:Temp:Feuchte:
Aussen-T/F 2551 07-03-2020 17:08:18 8.8 C 20 %
2552 07-03-2020 17:18:18 8.5 C 20 %
2553 07-03-2020 17:28:18 8.5 C 20 %
2554 07-03-2020 17:38:18 8.6 C 25 %
2555 07-03-2020 17:48:18 8.4 C 25 %
2556 07-03-2020 17:58:18 7.1 C 31 %
2557 07-03-2020 18:08:17 6.7 C 31 %
2558 07-03-2020 18:19:17 6.3 C 33 %
2559 07-03-2020 18:28:17 5.7 C 34 %
2560 07-03-2020 18:38:18 5.2 C 35 %
2561 07-03-2020 18:48:18 4.9 C 36 %
2562 07-03-2020 18:58:18 5 C 35 %
2563 07-03-2020 19:08:17 4.9 C 36 %
2564 07-03-2020 19:18:17 4.7 C 36 %
2565 07-03-2020 19:28:17 4.4 C 37 %
2566 07-03-2020 19:38:17 4.5 C 37 %
2567 07-03-2020 19:48:18 4.7 C 37 %
2568 07-03-2020 19:58:18 4.5 C 37 %
2569 07-03-2020 20:08:18 4.2 C 38 %
2570 07-03-2020 20:18:17 4.4 C 38 %
2571 07-03-2020 20:28:17 4.6 C 39 %
2572 07-03-2020 20:38:17 4.6 C 38 %
2573 07-03-2020 20:49:17 4.5 C 38 %
2574 07-03-2020 20:59:17 4.5 C 38 %
2575 07-03-2020 21:09:17 4.5 C 39 %
Sensor: Nr:Datum:Temp:Feuchte:
Aussen-T/F 2576 07-03-2020 21:18:17 4.5 C 39 %
2577 07-03-2020 21:28:17 4.7 C 39 %
2578 07-03-2020 21:38:17 4.7 C 38 %
2579 07-03-2020 21:48:18 5.1 C 37 %
2580 07-03-2020 21:58:18 5.1 C 37 %
2581 07-03-2020 22:08:17 5.3 C 37 %
2582 07-03-2020 22:18:18 5.5 C 36 %
2583 07-03-2020 22:28:18 5.6 C 36 %
2584 07-03-2020 22:38:17 5.5 C 36 %
2585 07-03-2020 22:49:17 5.5 C 36 %
2586 07-03-2020 22:59:17 5.8 C 36 %
2587 07-03-2020 23:09:17 6.2 C 35 %
2588 07-03-2020 23:19:17 6.3 C 35 %
2589 07-03-2020 23:29:17 6.4 C 35 %
2590 07-03-2020 23:38:17 6.4 C 34 %
2591 07-03-2020 23:48:18 6.4 C 34 %
2592 07-03-2020 23:58:18 6.5 C 34 %
2593 08-03-2020 00:08:18 6.5 C 35 %
2594 08-03-2020 00:18:18 6.4 C 35 %
2595 08-03-2020 00:28:18 6.8 C 35 %
2596 08-03-2020 00:38:18 6.7 C 35 %
2597 08-03-2020 00:48:18 7 C 34 %
2598 08-03-2020 00:58:18 7.1 C 35 %
2599 08-03-2020 01:08:17 7.1 C 34 %
2600 08-03-2020 01:18:17 6.8 C 35 %
Sensor: Nr:Datum:Temp:Feuchte:
Aussen-T/F 2601 08-03-2020 01:28:17 6.9 C 35 %
2602 08-03-2020 01:38:17 6.7 C 35 %
2603 08-03-2020 01:49:17 6.9 C 35 %
2604 08-03-2020 01:59:17 6.7 C 35 %
2605 08-03-2020 02:09:17 6.8 C 35 %
2606 08-03-2020 02:19:17 7 C 35 %
2607 08-03-2020 02:29:17 6.9 C 35 %
2608 08-03-2020 02:38:17 7.3 C 35 %
2609 08-03-2020 02:48:17 7.2 C 35 %
2610 08-03-2020 02:58:17 7 C 35 %
2611 08-03-2020 03:08:18 7.1 C 35 %
2612 08-03-2020 03:19:17 6.7 C 35 %
2613 08-03-2020 03:29:17 6.4 C 36 %
2614 08-03-2020 03:39:17 6.5 C 36 %
2615 08-03-2020 03:48:18 6.6 C 36 %
2616 08-03-2020 03:58:18 6.8 C 35 %
2617 08-03-2020 04:08:18 7 C 35 %
2618 08-03-2020 04:19:17 7.1 C 35 %
2619 08-03-2020 04:29:17 7 C 35 %
2620 08-03-2020 04:39:17 7 C 35 %
2621 08-03-2020 04:49:17 6.8 C 35 %
2622 08-03-2020 04:59:17 6.9 C 35 %
2623 08-03-2020 05:09:17 7 C 35 %
2624 08-03-2020 05:19:17 6.8 C 35 %
2625 08-03-2020 05:29:17 6.5 C 35 %
Sensor: Nr:Datum:Temp:Feuchte:
Aussen-T/F 2626 08-03-2020 05:39:17 6.8 C 35 %
2627 08-03-2020 05:49:17 6.6 C 35 %
2628 08-03-2020 05:59:17 6.4 C 35 %
2629 08-03-2020 06:09:17 6.4 C 35 %
2630 08-03-2020 06:19:17 5.9 C 37 %
2631 08-03-2020 06:29:18 6.3 C 36 %
2632 08-03-2020 06:39:18 6.6 C 36 %
2633 08-03-2020 06:49:17 6.9 C 36 %
2634 08-03-2020 06:59:17 7.3 C 35 %
2635 08-03-2020 07:09:17 7.4 C 35 %
2636 08-03-2020 07:19:17 7.7 C 35 %
2637 08-03-2020 07:29:17 7.8 C 35 %
2638 08-03-2020 07:39:17 7.9 C 35 %
2639 08-03-2020 07:49:17 8 C 35 %
2640 08-03-2020 07:59:17 8.2 C 34 %
2641 08-03-2020 08:09:17 8.2 C 34 %
2642 08-03-2020 08:19:17 8.4 C 34 %
2643 08-03-2020 08:29:17 8.6 C 34 %
2644 08-03-2020 08:39:17 8.5 C 35 %
2645 08-03-2020 08:49:17 8.6 C 34 %
2646 08-03-2020 08:59:17 8.6 C 34 %
2647 08-03-2020 09:09:17 8.6 C 34 %
2648 08-03-2020 09:19:17 8.8 C 34 %
2649 08-03-2020 09:29:18 9.2 C 33 %
2650 08-03-2020 09:39:17 9.6 C 33 %
Sensor: Nr:Datum:Temp:Feuchte:
Aussen-T/F 2651 08-03-2020 09:49:17 10.3 C 32 %
2652 08-03-2020 09:59:17 10.2 C 32 %
2653 08-03-2020 10:09:17 9.9 C 33 %
2654 08-03-2020 10:19:17 10.1 C 32 %
2655 08-03-2020 10:29:17 10.1 C 32 %
2656 08-03-2020 10:39:17 11.4 C 30 %
2657 08-03-2020 10:49:17 11.2 C 30 %
2658 08-03-2020 10:59:18 11.9 C 30 %
2659 08-03-2020 11:09:17 11.9 C 28 %
2660 08-03-2020 11:19:16 11.9 C 29 %
2661 08-03-2020 11:29:16 12.1 C 27 %
2662 08-03-2020 11:39:17 12.5 C 26 %
2663 08-03-2020 11:49:16 12.5 C 26 %
2664 08-03-2020 11:59:16 13.4 C 25 %
2665 08-03-2020 12:09:17 12.8 C 25 %
2666 08-03-2020 12:19:17 13.1 C 25 %
2667 08-03-2020 12:29:17 13.5 C 23 %
2668 08-03-2020 12:39:17 13.2 C 24 %
2669 08-03-2020 12:49:17 14.1 C 22 %
2670 08-03-2020 12:59:18 13.2 C 22 %
2671 08-03-2020 13:09:17 12.2 C 25 %
2672 08-03-2020 13:19:16 12.3 C 25 %
2673 08-03-2020 13:29:16 12.3 C 25 %
2674 08-03-2020 13:39:16 12.7 C 25 %
2675 08-03-2020 13:49:17 12.7 C 25 %
Sensor: Nr:Datum:Temp:Feuchte:
Aussen-T/F 2676 08-03-2020 13:59:17 12.5 C 25 %
2677 08-03-2020 14:09:17 13 C 23 %
2678 08-03-2020 14:19:16 12.8 C 25 %
2679 08-03-2020 14:29:16 12.5 C 25 %
2680 08-03-2020 14:39:16 12.8 C 25 %
2681 08-03-2020 14:49:16 12.7 C 25 %
2682 08-03-2020 14:59:16 12.3 C 25 %
2683 08-03-2020 15:09:16 12.8 C 25 %
2684 08-03-2020 15:19:17 12.5 C 25 %
2685 08-03-2020 15:29:17 12.5 C 25 %
2686 08-03-2020 15:39:17 12.1 C 25 %
2687 08-03-2020 15:49:17 12 C 25 %
2688 08-03-2020 15:59:17 12.1 C 25 %
2689 08-03-2020 16:09:17 12.5 C 25 %
2690 08-03-2020 16:19:17 12.4 C 25 %
2691 08-03-2020 16:29:17 12.1 C 25 %
2692 08-03-2020 16:39:17 12.2 C 26 %
2693 08-03-2020 16:49:17 12.2 C 26 %
2694 08-03-2020 16:59:17 12 C 26 %
2695 08-03-2020 17:09:17 12.6 C 25 %
2696 08-03-2020 17:19:17 12.4 C 26 %
2697 08-03-2020 17:29:17 12.3 C 26 %
2698 08-03-2020 17:39:17 12 C 26 %
2699 08-03-2020 17:49:16 11.5 C 28 %
2700 08-03-2020 17:59:16 11.4 C 29 %
Sensor: Nr:Datum:Temp:Feuchte:
Aussen-T/F 2701 08-03-2020 18:09:17 11.1 C 30 %
2702 08-03-2020 18:19:17 10.9 C 31 %
2703 08-03-2020 18:29:18 10.7 C 31 %
2704 08-03-2020 18:39:17 10.4 C 32 %
2705 08-03-2020 18:49:16 10.2 C 32 %
2706 08-03-2020 18:59:16 9.6 C 35 %
2707 08-03-2020 19:09:17 9.9 C 35 %
2708 08-03-2020 19:19:16 9.8 C 35 %
2709 08-03-2020 19:29:16 9.6 C 36 %
2710 08-03-2020 19:39:17 9.4 C 36 %
2711 08-03-2020 19:49:16 9.5 C 36 %
2712 08-03-2020 19:59:16 9.5 C 36 %
2713 08-03-2020 20:09:16 9.4 C 36 %
2714 08-03-2020 20:19:16 9.3 C 36 %
2715 08-03-2020 20:29:16 9.3 C 37 %
2716 08-03-2020 20:39:17 9.2 C 37 %
2717 08-03-2020 20:49:16 9.2 C 37 %
2718 08-03-2020 20:59:16 9 C 37 %
2719 08-03-2020 21:09:17 9 C 37 %
2720 08-03-2020 21:19:17 9.1 C 37 %
2721 08-03-2020 21:29:17 9.1 C 37 %
2722 08-03-2020 21:39:17 9.3 C 37 %
2723 08-03-2020 21:49:17 9.3 C 37 %
2724 08-03-2020 21:59:17 9.3 C 37 %
2725 08-03-2020 22:09:17 9.3 C 37 %
Sensor: Nr:Datum:Temp:Feuchte:
Aussen-T/F 2726 08-03-2020 22:19:16 9.3 C 37 %
2727 08-03-2020 22:29:16 8.9 C 37 %
2728 08-03-2020 22:39:17 9.2 C 37 %
2729 08-03-2020 22:49:16 8.7 C 37 %
2730 08-03-2020 22:59:16 9 C 37 %
2731 08-03-2020 23:09:16 9.3 C 37 %
2732 08-03-2020 23:19:16 7.9 C 39 %
2733 08-03-2020 23:29:16 7.8 C 40 %
2734 08-03-2020 23:39:16 7.9 C 40 %
2735 08-03-2020 23:49:16 7.9 C 39 %
2736 08-03-2020 23:59:16 7.6 C 40 %
2737 09-03-2020 00:09:17 7.3 C 41 %
2738 09-03-2020 00:19:16 7 C 41 %
2739 09-03-2020 00:29:16 6.8 C 43 %
2740 09-03-2020 00:39:16 6.8 C 44 %
2741 09-03-2020 00:49:16 6.6 C 45 %
2742 09-03-2020 00:59:16 6.8 C 43 %
2743 09-03-2020 01:09:16 6.9 C 42 %
2744 09-03-2020 01:19:16 6.9 C 43 %
2745 09-03-2020 01:29:16 6.7 C 45 %
2746 09-03-2020 01:39:16 6.8 C 43 %
2747 09-03-2020 01:49:16 6.9 C 42 %
2748 09-03-2020 01:59:16 6.7 C 43 %
2749 09-03-2020 02:09:16 6.6 C 43 %
2750 09-03-2020 02:19:16 6.4 C 44 %
Sensor: Nr:Datum:Temp:Feuchte:
Aussen-T/F 2751 09-03-2020 02:29:16 6.3 C 45 %
2752 09-03-2020 02:39:16 6.2 C 45 %
2753 09-03-2020 02:49:17 6.4 C 45 %
2754 09-03-2020 02:59:17 6.4 C 44 %
2755 09-03-2020 03:09:17 6.1 C 44 %
2756 09-03-2020 03:19:17 6.5 C 43 %
2757 09-03-2020 03:29:17 6.7 C 42 %
2758 09-03-2020 03:39:17 6.4 C 42 %
2759 09-03-2020 03:49:17 6.2 C 43 %
2760 09-03-2020 03:59:17 6 C 44 %
2761 09-03-2020 04:09:17 5.7 C 45 %
2762 09-03-2020 04:19:17 5.5 C 45 %
2763 09-03-2020 04:29:17 6.1 C 44 %
2764 09-03-2020 04:39:18 6.3 C 43 %
2765 09-03-2020 04:49:17 6.2 C 43 %
2766 09-03-2020 04:59:17 6.2 C 43 %
2767 09-03-2020 05:09:18 6.2 C 43 %
2768 09-03-2020 05:19:17 6 C 43 %
2769 09-03-2020 05:29:17 5.8 C 44 %
2770 09-03-2020 05:39:17 5.6 C 44 %
2771 09-03-2020 05:49:17 5.2 C 44 %
2772 09-03-2020 05:59:17 5.3 C 43 %
2773 09-03-2020 06:09:17 5 C 43 %
2774 09-03-2020 06:19:17 5.2 C 43 %
2775 09-03-2020 06:29:17 5.1 C 43 %
Sensor: Nr:Datum:Temp:Feuchte:
Aussen-T/F 2776 09-03-2020 06:39:18 5.4 C 42 %
2777 09-03-2020 06:49:17 5.7 C 41 %
2778 09-03-2020 06:59:18 5.7 C 41 %
2779 09-03-2020 07:09:18 5 C 42 %
2780 09-03-2020 07:19:18 4.7 C 44 %
2781 09-03-2020 07:29:18 5.7 C 42 %
2782 09-03-2020 07:39:17 5.8 C 41 %
2783 09-03-2020 07:49:17 5.4 C 41 %
2784 09-03-2020 07:59:17 5.4 C 42 %
2785 09-03-2020 08:09:17 5.4 C 42 %
2786 09-03-2020 08:19:17 5 C 43 %
2787 09-03-2020 08:29:17 5.3 C 43 %
2788 09-03-2020 08:39:18 6.1 C 41 %
2789 09-03-2020 08:49:17 6.8 C 40 %
2790 09-03-2020 08:59:17 7.3 C 38 %
2791 09-03-2020 09:09:17 7.4 C 38 %
2792 09-03-2020 09:19:17 7.7 C 37 %
2793 09-03-2020 09:29:17 8 C 37 %
2794 09-03-2020 09:39:17 8.1 C 37 %
2795 09-03-2020 09:49:17 8 C 37 %
2796 09-03-2020 09:59:17 7.8 C 37 %
2797 09-03-2020 10:09:17 8.3 C 36 %
2798 09-03-2020 10:19:17 8.2 C 36 %
2799 09-03-2020 10:29:17 8.5 C 36 %
2800 09-03-2020 10:39:17 8.6 C 36 %
Sensor: Nr:Datum:Temp:Feuchte:
Aussen-T/F 2801 09-03-2020 10:49:17 8.5 C 36 %
2802 09-03-2020 10:59:17 8.1 C 36 %
2803 09-03-2020 11:09:17 8.1 C 36 %
2804 09-03-2020 11:19:17 8.5 C 36 %
2805 09-03-2020 11:29:17 9.7 C 34 %
2806 09-03-2020 11:39:17 9.1 C 34 %
2807 09-03-2020 11:49:17 10.1 C 33 %
2808 09-03-2020 11:59:17 10.6 C 29 %
2809 09-03-2020 12:09:18 10.9 C 27 %
2810 09-03-2020 12:19:18 11.2 C 25 %
2811 09-03-2020 12:29:18 10.1 C 26 %
2812 09-03-2020 12:39:18 10.3 C 26 %
2813 09-03-2020 12:49:17 11 C 25 %
2814 09-03-2020 12:59:17 10.1 C 26 %
2815 09-03-2020 13:09:17 11.6 C 26 %
2816 09-03-2020 13:19:17 9.8 C 29 %
2817 09-03-2020 13:29:17 9.5 C 31 %
2818 09-03-2020 13:39:17 10.5 C 30 %
2819 09-03-2020 13:49:17 10.4 C 29 %
2820 09-03-2020 13:59:17 10.5 C 29 %
2821 09-03-2020 14:09:17 11.6 C 27 %
2822 09-03-2020 14:19:17 11.5 C 26 %
2823 09-03-2020 14:29:17 10.4 C 27 %
2824 09-03-2020 14:39:17 11.6 C 26 %
2825 09-03-2020 14:49:17 12.8 C 20 %
Sensor: Nr:Datum:Temp:Feuchte:
Aussen-T/F 2826 09-03-2020 14:59:17 13.6 C 20 %
2827 09-03-2020 15:09:18 12.6 C 20 %
2828 09-03-2020 15:19:18 13 C 20 %
2829 09-03-2020 15:29:18 12.9 C 20 %
2830 09-03-2020 15:39:18 14.4 C 20 %
2831 09-03-2020 15:49:17 14 C 20 %
2832 09-03-2020 15:59:17 12.5 C 20 %
2833 09-03-2020 16:09:18 11.2 C 20 %
2834 09-03-2020 16:19:17 10.5 C 22 %
2835 09-03-2020 16:29:17 10.7 C 23 %
2836 09-03-2020 16:39:17 13.3 C 20 %
2837 09-03-2020 16:49:17 14.2 C 20 %
2838 09-03-2020 16:59:18 14.1 C 20 %
2839 09-03-2020 17:09:18 12.2 C 20 %
2840 09-03-2020 17:19:17 10.1 C 20 %
2841 09-03-2020 17:29:17 9.9 C 25 %
2842 09-03-2020 17:39:18 9.8 C 25 %
2843 09-03-2020 17:49:17 9.7 C 27 %
2844 09-03-2020 17:59:18 9.7 C 26 %
2845 09-03-2020 18:09:18 9.5 C 27 %
2846 09-03-2020 18:19:17 9.2 C 28 %
2847 09-03-2020 18:29:17 8.9 C 30 %
2848 09-03-2020 18:39:17 8.7 C 30 %
2849 09-03-2020 18:49:17 8.1 C 30 %
2850 09-03-2020 18:59:17 7.7 C 32 %
Sensor: Nr:Datum:Temp:Feuchte:
Aussen-T/F 2851 09-03-2020 19:09:18 7.5 C 33 %
2852 09-03-2020 19:19:17 7.4 C 33 %
2853 09-03-2020 19:29:17 7.6 C 33 %
2854 09-03-2020 19:39:17 7.4 C 34 %
2855 09-03-2020 19:49:18 7.3 C 33 %
2856 09-03-2020 19:59:18 7.2 C 34 %
2857 09-03-2020 20:09:17 6.5 C 36 %
2858 09-03-2020 20:19:17 6.9 C 35 %
2859 09-03-2020 20:29:17 6.5 C 36 %
2860 09-03-2020 20:39:18 6.5 C 36 %
2861 09-03-2020 20:49:18 6.7 C 36 %
2862 09-03-2020 20:59:18 6.8 C 35 %
2863 09-03-2020 21:09:17 5.9 C 37 %
2864 09-03-2020 21:19:17 5.6 C 38 %
2865 09-03-2020 21:29:17 5.5 C 38 %
2866 09-03-2020 21:39:17 5.4 C 38 %
2867 09-03-2020 21:49:18 5.4 C 38 %
2868 09-03-2020 21:59:18 5.6 C 38 %
2869 09-03-2020 22:09:18 5.4 C 38 %
2870 09-03-2020 22:19:17 5.6 C 38 %
2871 09-03-2020 22:29:17 5.8 C 38 %
2872 09-03-2020 22:39:17 5.8 C 38 %
2873 09-03-2020 22:49:17 5.4 C 38 %
2874 09-03-2020 22:59:17 5.1 C 39 %
2875 09-03-2020 23:09:18 5.1 C 39 %
Sensor: Nr:Datum:Temp:Feuchte:
Aussen-T/F 2876 09-03-2020 23:19:17 5.2 C 39 %
2877 09-03-2020 23:29:17 5 C 39 %
2878 09-03-2020 23:39:17 4.6 C 40 %
2879 09-03-2020 23:49:17 4.6 C 41 %
2880 09-03-2020 23:59:17 4.5 C 41 %
2881 10-03-2020 00:09:17 4.6 C 41 %
2882 10-03-2020 00:19:18 4.7 C 41 %
2883 10-03-2020 00:29:18 5.1 C 40 %
2884 10-03-2020 00:39:18 5.5 C 40 %
2885 10-03-2020 00:49:18 5.5 C 40 %
2886 10-03-2020 00:59:18 5.8 C 39 %
2887 10-03-2020 01:09:18 5.8 C 39 %
2888 10-03-2020 01:19:17 5.9 C 39 %
2889 10-03-2020 01:29:18 6 C 38 %
2890 10-03-2020 01:39:18 6.3 C 38 %
2891 10-03-2020 01:49:17 6.7 C 37 %
2892 10-03-2020 01:59:17 6.6 C 37 %
2893 10-03-2020 02:09:18 6.7 C 37 %
2894 10-03-2020 02:19:17 6.6 C 37 %
2895 10-03-2020 02:29:18 6.7 C 37 %
2896 10-03-2020 02:39:18 6.8 C 37 %
2897 10-03-2020 02:49:17 6.9 C 37 %
2898 10-03-2020 02:59:17 7.1 C 37 %
2899 10-03-2020 03:09:18 6.6 C 38 %
2900 10-03-2020 03:19:18 6.5 C 38 %
Sensor: Nr:Datum:Temp:Feuchte:
Aussen-T/F 2901 10-03-2020 03:29:18 6.3 C 39 %
2902 10-03-2020 03:39:18 6.2 C 39 %
2903 10-03-2020 03:49:17 6 C 40 %
2904 10-03-2020 03:59:17 6 C 40 %
2905 10-03-2020 04:09:17 5.8 C 40 %
2906 10-03-2020 04:19:17 5.8 C 40 %
2907 10-03-2020 04:29:17 5.6 C 41 %
2908 10-03-2020 04:39:17 5.9 C 40 %
2909 10-03-2020 04:49:17 5.6 C 41 %
2910 10-03-2020 04:59:17 5.5 C 41 %
2911 10-03-2020 05:09:17 5.5 C 41 %
2912 10-03-2020 05:19:17 5.2 C 41 %
2913 10-03-2020 05:29:18 5.2 C 41 %
2914 10-03-2020 05:39:18 5.1 C 42 %
2915 10-03-2020 05:49:18 5.1 C 42 %
2916 10-03-2020 05:59:18 5 C 42 %
2917 10-03-2020 06:09:17 4.9 C 43 %
2918 10-03-2020 06:19:17 5 C 42 %
2919 10-03-2020 06:29:17 4.9 C 43 %
2920 10-03-2020 06:39:18 5 C 44 %
2921 10-03-2020 06:49:17 5.1 C 43 %
2922 10-03-2020 06:59:17 5 C 43 %
2923 10-03-2020 07:09:18 5.1 C 42 %
2924 10-03-2020 07:19:18 5.3 C 42 %
2925 10-03-2020 07:29:18 5.8 C 41 %
Sensor: Nr:Datum:Temp:Feuchte:
Aussen-T/F 2926 10-03-2020 07:39:18 5.8 C 42 %
2927 10-03-2020 07:49:18 5.7 C 41 %
2928 10-03-2020 07:59:18 5.9 C 41 %
2929 10-03-2020 08:09:18 6 C 41 %
2930 10-03-2020 08:19:18 6 C 41 %
2931 10-03-2020 08:29:18 6.3 C 41 %
2932 10-03-2020 08:39:18 6.5 C 40 %
2933 10-03-2020 08:49:18 6.3 C 41 %
2934 10-03-2020 08:59:18 6.5 C 41 %
2935 10-03-2020 09:09:17 6.6 C 41 %
2936 10-03-2020 09:19:17 6.6 C 41 %
2937 10-03-2020 09:29:17 6.7 C 42 %
2938 10-03-2020 09:39:17 6.8 C 42 %
2939 10-03-2020 09:49:17 6.9 C 42 %
2940 10-03-2020 09:59:17 7.1 C 41 %
2941 10-03-2020 10:09:18 7.2 C 41 %
2942 10-03-2020 10:19:18 7.3 C 41 %
2943 10-03-2020 10:29:18 7.4 C 41 %
2944 10-03-2020 10:39:18 7.5 C 41 %
2945 10-03-2020 10:49:18 7.8 C 41 %
2946 10-03-2020 10:59:18 7.9 C 41 %
2947 10-03-2020 11:09:18 8.1 C 41 %
2948 10-03-2020 11:19:18 8.2 C 40 %
2949 10-03-2020 11:29:18 8.4 C 40 %
2950 10-03-2020 11:39:18 8.5 C 41 %
Sensor: Nr:Datum:Temp:Feuchte:
Aussen-T/F 2951 10-03-2020 11:49:17 8.7 C 41 %
2952 10-03-2020 11:59:17 8.9 C 41 %
2953 10-03-2020 12:09:17 8.9 C 40 %
2954 10-03-2020 12:19:17 8.9 C 41 %
2955 10-03-2020 12:29:18 9 C 41 %
2956 10-03-2020 12:39:18 9.1 C 41 %
2957 10-03-2020 12:49:17 9.1 C 41 %
2958 10-03-2020 12:59:17 9.3 C 41 %
2959 10-03-2020 13:09:18 9.4 C 40 %
2960 10-03-2020 13:19:17 9.5 C 41 %
2961 10-03-2020 13:29:18 9.5 C 41 %
2962 10-03-2020 13:39:18 9.5 C 41 %
2963 10-03-2020 13:49:17 9.7 C 41 %
2964 10-03-2020 13:59:18 9.8 C 41 %
2965 10-03-2020 14:09:18 9.9 C 41 %
2966 10-03-2020 14:19:18 10.2 C 40 %
2967 10-03-2020 14:29:18 10.5 C 40 %
2968 10-03-2020 14:39:18 10.8 C 40 %
2969 10-03-2020 14:49:17 10.9 C 40 %
2970 10-03-2020 14:59:17 11.3 C 38 %
2971 10-03-2020 15:09:18 11.3 C 38 %
2972 10-03-2020 15:19:18 11.4 C 38 %
2973 10-03-2020 15:29:18 11.8 C 38 %
2974 10-03-2020 15:39:18 12.3 C 37 %
2975 10-03-2020 15:49:17 12.3 C 36 %
Sensor: Nr:Datum:Temp:Feuchte:
Aussen-T/F 2976 10-03-2020 15:59:18 12.5 C 37 %
2977 10-03-2020 16:09:18 13 C 35 %
2978 10-03-2020 16:19:18 12.6 C 36 %
2979 10-03-2020 16:29:18 12.5 C 37 %
2980 10-03-2020 16:39:18 12.4 C 37 %
2981 10-03-2020 16:49:17 12.5 C 37 %
2982 10-03-2020 16:59:18 12.5 C 37 %
2983 10-03-2020 17:09:18 12.7 C 37 %
2984 10-03-2020 17:19:17 12.6 C 37 %
2985 10-03-2020 17:29:18 12.7 C 37 %
2986 10-03-2020 17:39:18 12.6 C 37 %
2987 10-03-2020 17:49:17 12.5 C 37 %
2988 10-03-2020 17:59:18 12.5 C 38 %
2989 10-03-2020 18:09:18 12.3 C 38 %
2990 10-03-2020 18:19:17 12.3 C 38 %
2991 10-03-2020 18:29:18 12.3 C 38 %
2992 10-03-2020 18:39:18 12.5 C 38 %
2993 10-03-2020 18:49:17 12.4 C 38 %
2994 10-03-2020 18:59:17 12.3 C 38 %
2995 10-03-2020 19:09:18 12.5 C 38 %
2996 10-03-2020 19:19:17 12.3 C 38 %
2997 10-03-2020 19:29:17 12.4 C 38 %
2998 10-03-2020 19:39:17 12.5 C 38 %
2999 10-03-2020 19:49:17 12.5 C 38 %
3000 10-03-2020 19:59:17 12.5 C 38 %
Sensor: Nr:Datum:Temp:Feuchte:
Aussen-T/F 3001 10-03-2020 20:09:17 12.5 C 38 %
3002 10-03-2020 20:19:17 12.7 C 38 %
3003 10-03-2020 20:29:18 12.8 C 38 %
3004 10-03-2020 20:39:18 12.8 C 38 %
3005 10-03-2020 20:49:17 12.9 C 38 %
3006 10-03-2020 20:59:17 13.1 C 37 %
3007 10-03-2020 21:09:18 12.8 C 38 %
3008 10-03-2020 21:19:17 13.2 C 37 %
3009 10-03-2020 21:29:18 13.2 C 37 %
3010 10-03-2020 21:39:18 13.2 C 37 %
3011 10-03-2020 21:49:17 13.2 C 37 %
3012 10-03-2020 21:59:18 13.1 C 37 %
3013 10-03-2020 22:09:18 12.8 C 39 %
3014 10-03-2020 22:19:18 12.5 C 40 %
3015 10-03-2020 22:29:18 12.5 C 40 %
3016 10-03-2020 22:39:18 12.7 C 40 %
3017 10-03-2020 22:49:17 12.5 C 40 %
3018 10-03-2020 22:59:17 12.5 C 40 %
3019 10-03-2020 23:09:18 12.8 C 40 %
3020 10-03-2020 23:19:18 12.8 C 39 %
3021 10-03-2020 23:29:18 12.8 C 39 %
3022 10-03-2020 23:39:18 12.8 C 39 %
3023 10-03-2020 23:49:17 12.9 C 39 %
3024 10-03-2020 23:59:17 13.1 C 37 %
3025 11-03-2020 00:09:17 13.5 C 36 %
Sensor: Nr:Datum:Temp:Feuchte:
Aussen-T/F 3026 11-03-2020 00:19:17 13.5 C 36 %
3027 11-03-2020 00:29:17 13.6 C 36 %
3028 11-03-2020 00:39:18 13.7 C 36 %
3029 11-03-2020 00:49:17 13.7 C 36 %
3030 11-03-2020 00:59:17 13.7 C 36 %
3031 11-03-2020 01:09:17 13.5 C 36 %
3032 11-03-2020 01:19:17 13.4 C 37 %
3033 11-03-2020 01:29:17 13.4 C 37 %
3034 11-03-2020 01:39:17 13.3 C 37 %
3035 11-03-2020 01:49:17 13 C 38 %
3036 11-03-2020 01:59:17 12.9 C 39 %
3037 11-03-2020 02:09:17 13.2 C 38 %
3038 11-03-2020 02:19:17 13.1 C 38 %
3039 11-03-2020 02:29:17 13.1 C 38 %
3040 11-03-2020 02:39:17 13.2 C 37 %
3041 11-03-2020 02:49:17 13.4 C 37 %
3042 11-03-2020 02:59:17 13.5 C 37 %
3043 11-03-2020 03:09:17 13.1 C 37 %
3044 11-03-2020 03:19:18 13 C 38 %
3045 11-03-2020 03:29:18 13.2 C 37 %
3046 11-03-2020 03:39:18 13.4 C 37 %
3047 11-03-2020 03:49:17 13.5 C 37 %
3048 11-03-2020 03:59:18 13.4 C 37 %
3049 11-03-2020 04:09:18 13.4 C 37 %
3050 11-03-2020 04:19:18 13.4 C 37 %
Sensor: Nr:Datum:Temp:Feuchte:
Aussen-T/F 3051 11-03-2020 04:29:18 13.4 C 37 %
3052 11-03-2020 04:39:17 13.4 C 37 %
3053 11-03-2020 04:49:17 13.5 C 36 %
3054 11-03-2020 04:59:17 13.4 C 37 %
3055 11-03-2020 05:09:17 13.1 C 37 %
3056 11-03-2020 05:19:17 13.1 C 37 %
3057 11-03-2020 05:29:17 13.1 C 37 %
3058 11-03-2020 05:39:17 13.1 C 37 %
3059 11-03-2020 05:49:18 13 C 37 %
3060 11-03-2020 05:59:18 12.9 C 38 %
3061 11-03-2020 06:09:18 13.1 C 37 %
3062 11-03-2020 06:19:17 13.2 C 37 %
3063 11-03-2020 06:29:17 13.2 C 36 %
3064 11-03-2020 06:39:18 13.2 C 36 %
3065 11-03-2020 06:49:17 13.6 C 36 %
3066 11-03-2020 06:59:17 13.4 C 36 %
3067 11-03-2020 07:09:17 13.2 C 36 %
3068 11-03-2020 07:19:17 13.1 C 36 %
3069 11-03-2020 07:29:17 13.1 C 36 %
3070 11-03-2020 07:39:17 13.1 C 36 %
3071 11-03-2020 07:49:17 13.1 C 36 %
3072 11-03-2020 07:59:18 12.9 C 37 %
3073 11-03-2020 08:09:18 12.8 C 37 %
3074 11-03-2020 08:19:18 12.6 C 37 %
3075 11-03-2020 08:29:18 12.6 C 37 %
Sensor: Nr:Datum:Temp:Feuchte:
Aussen-T/F 3076 11-03-2020 08:39:18 12.7 C 37 %
3077 11-03-2020 08:49:18 12.8 C 37 %
3078 11-03-2020 08:59:18 12.7 C 37 %
3079 11-03-2020 09:09:18 13 C 36 %
3080 11-03-2020 09:19:18 13.2 C 36 %
3081 11-03-2020 09:29:18 13.6 C 36 %
3082 11-03-2020 09:39:18 13.8 C 36 %
3083 11-03-2020 09:49:18 14 C 35 %
3084 11-03-2020 09:59:18 13.9 C 35 %
3085 11-03-2020 10:09:18 13.7 C 36 %
3086 11-03-2020 10:19:17 13.8 C 36 %
3087 11-03-2020 10:29:17 14 C 35 %
3088 11-03-2020 10:39:18 14.3 C 35 %
3089 11-03-2020 10:49:18 14.4 C 35 %
3090 11-03-2020 10:59:18 14.5 C 35 %
3091 11-03-2020 11:09:17 14.9 C 35 %
3092 11-03-2020 11:19:17 14.6 C 35 %
3093 11-03-2020 11:29:17 15.8 C 33 %
3094 11-03-2020 11:39:17 15.8 C 33 %
3095 11-03-2020 11:49:17 15.6 C 33 %
3096 11-03-2020 11:59:17 15.9 C 33 %
3097 11-03-2020 12:09:18 15.9 C 33 %
3098 11-03-2020 12:19:18 16.4 C 32 %
3099 11-03-2020 12:29:18 16.5 C 32 %
3100 11-03-2020 12:39:18 16.3 C 32 %
Sensor: Nr:Datum:Temp:Feuchte:
Aussen-T/F 3101 11-03-2020 12:49:18 16.5 C 32 %
3102 11-03-2020 12:59:18 16.3 C 32 %
3103 11-03-2020 13:09:17 16 C 32 %
3104 11-03-2020 13:19:17 17 C 31 %
3105 11-03-2020 13:29:17 16.8 C 31 %
3106 11-03-2020 13:39:17 17.7 C 31 %
3107 11-03-2020 13:49:17 15.8 C 32 %
3108 11-03-2020 13:59:17 16.1 C 31 %
3109 11-03-2020 14:09:17 16.3 C 31 %
3110 11-03-2020 14:19:17 16.1 C 31 %
3111 11-03-2020 14:29:17 16.6 C 31 %
3112 11-03-2020 14:39:17 15.7 C 31 %
3113 11-03-2020 14:49:17 16.2 C 31 %
3114 11-03-2020 14:59:17 15.8 C 31 %
3115 11-03-2020 15:09:17 16.5 C 31 %
3116 11-03-2020 15:19:17 15.6 C 32 %
3117 11-03-2020 15:29:18 16.4 C 31 %
3118 11-03-2020 15:39:18 17.5 C 30 %
3119 11-03-2020 15:49:17 15.1 C 32 %
3120 11-03-2020 15:59:17 15.6 C 33 %
3121 11-03-2020 16:09:18 15 C 33 %
3122 11-03-2020 16:19:18 14.7 C 35 %
3123 11-03-2020 16:29:18 15.1 C 34 %
3124 11-03-2020 16:39:17 14.5 C 35 %
3125 11-03-2020 16:49:18 14.5 C 35 %
Sensor: Nr:Datum:Temp:Feuchte:
Aussen-T/F 3126 11-03-2020 16:59:18 14.5 C 34 %
3127 11-03-2020 17:09:18 14.1 C 35 %
3128 11-03-2020 17:19:18 14 C 35 %
3129 11-03-2020 17:29:18 13.2 C 38 %
3130 11-03-2020 17:39:17 13.2 C 38 %
3131 11-03-2020 17:49:18 13.2 C 38 %
3132 11-03-2020 17:59:18 13.4 C 37 %
3133 11-03-2020 18:09:18 13.5 C 37 %
3134 11-03-2020 18:19:17 13.5 C 36 %
3135 11-03-2020 18:29:17 13.3 C 36 %
3136 11-03-2020 18:39:17 13.4 C 36 %
3137 11-03-2020 18:49:17 13.5 C 36 %
3138 11-03-2020 18:59:17 13.4 C 36 %
3139 11-03-2020 19:09:17 13.2 C 37 %
3140 11-03-2020 19:19:17 13.1 C 37 %
3141 11-03-2020 19:29:17 13.1 C 37 %
3142 11-03-2020 19:39:18 13.4 C 36 %
3143 11-03-2020 19:49:17 13.3 C 36 %
3144 11-03-2020 19:59:17 13.2 C 36 %
3145 11-03-2020 20:09:17 13.4 C 36 %
3146 11-03-2020 20:19:17 13.6 C 36 %
3147 11-03-2020 20:29:18 13.6 C 36 %
3148 11-03-2020 20:39:18 13.6 C 36 %
3149 11-03-2020 20:49:17 13.5 C 36 %
3150 11-03-2020 20:59:17 13.3 C 36 %
Sensor: Nr:Datum:Temp:Feuchte:
Aussen-T/F 3151 11-03-2020 21:09:18 13.2 C 36 %
3152 11-03-2020 21:19:17 13.4 C 36 %
3153 11-03-2020 21:29:17 13.5 C 36 %
3154 11-03-2020 21:39:18 13.7 C 36 %
3155 11-03-2020 21:49:17 14 C 35 %
3156 11-03-2020 21:59:17 14 C 35 %
3157 11-03-2020 22:09:18 14.1 C 34 %
3158 11-03-2020 22:19:18 14 C 34 %
3159 11-03-2020 22:29:18 13.9 C 35 %
3160 11-03-2020 22:39:17 13.9 C 35 %
3161 11-03-2020 22:49:18 13.8 C 35 %
3162 11-03-2020 22:59:18 13.8 C 35 %
3163 11-03-2020 23:09:18 13.8 C 34 %
3164 11-03-2020 23:19:18 13.9 C 34 %
3165 11-03-2020 23:29:18 13.8 C 34 %
3166 11-03-2020 23:39:17 13.8 C 34 %
3167 11-03-2020 23:49:17 13.8 C 34 %
3168 11-03-2020 23:59:17 13.7 C 34 %
3169 12-03-2020 00:09:17 13.6 C 34 %
3170 12-03-2020 00:19:17 13.6 C 34 %
3171 12-03-2020 00:29:17 13.6 C 34 %
3172 12-03-2020 00:39:18 13.7 C 34 %
3173 12-03-2020 00:49:17 13.8 C 34 %
3174 12-03-2020 00:59:17 13.9 C 34 %
3175 12-03-2020 01:09:18 13.9 C 34 %
Sensor: Nr:Datum:Temp:Feuchte:
Aussen-T/F 3176 12-03-2020 01:19:17 13.8 C 34 %
3177 12-03-2020 01:29:17 13.9 C 34 %
3178 12-03-2020 01:39:18 13.8 C 34 %
3179 12-03-2020 01:49:17 13.7 C 34 %
3180 12-03-2020 01:59:17 13.8 C 34 %
3181 12-03-2020 02:09:18 13.7 C 34 %
3182 12-03-2020 02:19:17 13.7 C 34 %
3183 12-03-2020 02:29:18 13.6 C 34 %
3184 12-03-2020 02:39:18 13.6 C 33 %
3185 12-03-2020 02:49:18 13.6 C 33 %
3186 12-03-2020 02:59:18 13.5 C 33 %
3187 12-03-2020 03:09:18 13.5 C 33 %
3188 12-03-2020 03:19:18 13.5 C 32 %
3189 12-03-2020 03:29:18 13.5 C 32 %
3190 12-03-2020 03:39:17 13.4 C 32 %
3191 12-03-2020 03:49:17 13.2 C 32 %
3192 12-03-2020 03:59:17 13.1 C 32 %
3193 12-03-2020 04:09:17 13.1 C 32 %
3194 12-03-2020 04:19:17 13.1 C 32 %
3195 12-03-2020 04:29:17 13 C 32 %
3196 12-03-2020 04:39:17 13 C 32 %
3197 12-03-2020 04:49:17 13 C 32 %
3198 12-03-2020 04:59:17 13 C 32 %
3199 12-03-2020 05:09:17 12.7 C 33 %
3200 12-03-2020 05:19:17 12.7 C 33 %
Sensor: Nr:Datum:Temp:Feuchte:
Aussen-T/F 3201 12-03-2020 05:29:17 12.6 C 34 %
3202 12-03-2020 05:39:18 12.5 C 34 %
3203 12-03-2020 05:49:17 12.5 C 34 %
3204 12-03-2020 05:59:17 12.3 C 34 %
3205 12-03-2020 06:09:18 12.2 C 34 %
3206 12-03-2020 06:19:18 12.1 C 34 %
3207 12-03-2020 06:29:18 12 C 34 %
3208 12-03-2020 06:39:18 12 C 35 %
3209 12-03-2020 06:49:17 12 C 35 %
3210 12-03-2020 06:59:17 11.9 C 35 %
3211 12-03-2020 07:09:18 11.9 C 35 %
3212 12-03-2020 07:19:18 12 C 35 %
3213 12-03-2020 07:29:18 12 C 35 %
3214 12-03-2020 07:39:18 12 C 35 %
3215 12-03-2020 07:49:17 11.2 C 38 %
3216 12-03-2020 07:59:17 11 C 39 %
3217 12-03-2020 08:09:18 10.8 C 41 %
3218 12-03-2020 08:19:18 10.7 C 42 %
3219 12-03-2020 08:29:18 10.4 C 40 %
3220 12-03-2020 08:39:18 10.1 C 39 %
3221 12-03-2020 08:49:17 10.4 C 38 %
3222 12-03-2020 08:59:17 10.2 C 38 %
3223 12-03-2020 09:09:18 10.4 C 38 %
3224 12-03-2020 09:19:17 10.5 C 37 %
3225 12-03-2020 09:29:17 10.9 C 36 %
Sensor: Nr:Datum:Temp:Feuchte:
Aussen-T/F 3226 12-03-2020 09:39:17 10.8 C 36 %
3227 12-03-2020 09:49:18 11 C 36 %
3228 12-03-2020 09:59:18 11.5 C 35 %
3229 12-03-2020 10:09:18 11.7 C 34 %
3230 12-03-2020 10:19:17 11.5 C 34 %
3231 12-03-2020 10:29:17 11.5 C 34 %
3232 12-03-2020 10:39:17 11.8 C 33 %
3233 12-03-2020 10:49:17 11.3 C 33 %
3234 12-03-2020 10:59:17 11.3 C 32 %
3235 12-03-2020 11:09:18 11.6 C 28 %
3236 12-03-2020 11:19:17 11.5 C 27 %
3237 12-03-2020 11:29:17 11.7 C 26 %
3238 12-03-2020 11:39:17 11.9 C 23 %
3239 12-03-2020 11:49:18 11.9 C 20 %
3240 12-03-2020 11:59:18 12.3 C 20 %
3241 12-03-2020 12:09:18 12.2 C 20 %
3242 12-03-2020 12:19:18 12.4 C 20 %
3243 12-03-2020 12:29:18 12.8 C 20 %
3244 12-03-2020 12:39:17 12.4 C 20 %
3245 12-03-2020 12:49:17 12.1 C 20 %
3246 12-03-2020 12:59:18 12 C 20 %
3247 12-03-2020 13:09:18 12.2 C 20 %
3248 12-03-2020 13:19:17 12.3 C 20 %
3249 12-03-2020 13:29:17 12.3 C 20 %
3250 12-03-2020 13:39:17 12.7 C 20 %
Sensor: Nr:Datum:Temp:Feuchte:
Aussen-T/F 3251 12-03-2020 13:49:17 12.5 C 20 %
3252 12-03-2020 13:59:17 12.4 C 20 %
3253 12-03-2020 14:09:17 12.2 C 20 %
3254 12-03-2020 14:19:17 12.2 C 20 %
3255 12-03-2020 14:29:18 12.2 C 20 %
3256 12-03-2020 14:39:18 13.4 C 20 %
3257 12-03-2020 14:49:17 13 C 20 %
3258 12-03-2020 14:59:17 11.8 C 20 %
3259 12-03-2020 15:09:17 11.9 C 20 %
3260 12-03-2020 15:19:17 11.8 C 20 %
3261 12-03-2020 15:29:18 11.9 C 20 %
3262 12-03-2020 15:39:18 11.8 C 20 %
3263 12-03-2020 15:49:17 11.7 C 20 %
3264 12-03-2020 15:59:18 11.6 C 20 %
3265 12-03-2020 16:09:18 11.5 C 20 %
3266 12-03-2020 16:19:18 11.7 C 20 %
3267 12-03-2020 16:29:18 11.7 C 20 %
3268 12-03-2020 16:39:18 12.4 C 20 %
3269 12-03-2020 16:49:17 11.8 C 20 %
3270 12-03-2020 16:59:17 11.5 C 20 %
3271 12-03-2020 17:09:17 11.5 C 20 %
3272 12-03-2020 17:19:17 11.5 C 20 %
3273 12-03-2020 17:29:17 11.2 C 20 %
3274 12-03-2020 17:39:18 10.9 C 20 %
3275 12-03-2020 17:49:17 11 C 20 %
Sensor: Nr:Datum:Temp:Feuchte:
Aussen-T/F 3276 12-03-2020 17:59:18 10.8 C 22 %
3277 12-03-2020 18:09:18 10.3 C 25 %
3278 12-03-2020 18:19:18 9.8 C 27 %
3279 12-03-2020 18:29:18 9.3 C 30 %
3280 12-03-2020 18:39:17 8.7 C 31 %
3281 12-03-2020 18:49:17 7.9 C 33 %
3282 12-03-2020 18:59:17 7.6 C 35 %
3283 12-03-2020 19:09:17 7.5 C 34 %
3284 12-03-2020 19:19:17 7 C 35 %
3285 12-03-2020 19:29:17 6.6 C 36 %
3286 12-03-2020 19:39:17 6.5 C 36 %
3287 12-03-2020 19:49:17 7.1 C 35 %
3288 12-03-2020 19:59:17 6.8 C 35 %
3289 12-03-2020 20:09:17 7.6 C 35 %
3290 12-03-2020 20:19:17 7.3 C 35 %
3291 12-03-2020 20:29:17 6.8 C 35 %
3292 12-03-2020 20:39:17 6.8 C 36 %
3293 12-03-2020 20:49:17 6.4 C 36 %
3294 12-03-2020 20:59:17 6.7 C 36 %
3295 12-03-2020 21:09:17 6.3 C 36 %
3296 12-03-2020 21:19:17 7.2 C 35 %
3297 12-03-2020 21:29:17 7.6 C 35 %
3298 12-03-2020 21:39:18 7.4 C 35 %
3299 12-03-2020 21:49:17 7.4 C 35 %
3300 12-03-2020 21:59:17 7.6 C 35 %
Sensor: Nr:Datum:Temp:Feuchte:
Aussen-T/F 3301 12-03-2020 22:09:18 7.6 C 35 %
3302 12-03-2020 22:19:18 7.1 C 35 %
3303 12-03-2020 22:29:18 7.2 C 35 %
3304 12-03-2020 22:39:18 7.5 C 35 %
3305 12-03-2020 22:49:17 7.6 C 35 %
3306 12-03-2020 22:59:17 7.3 C 35 %
3307 12-03-2020 23:09:17 7.2 C 35 %
3308 12-03-2020 23:19:17 7 C 35 %
3309 12-03-2020 23:29:18 6.2 C 35 %
3310 12-03-2020 23:39:18 6.7 C 34 %
3311 12-03-2020 23:49:17 6.5 C 34 %
3312 12-03-2020 23:59:17 6.4 C 32 %
3313 13-03-2020 00:09:17 6.5 C 32 %
3314 13-03-2020 00:19:17 6.5 C 32 %
3315 13-03-2020 00:29:17 6.1 C 32 %
3316 13-03-2020 00:39:17 6.2 C 32 %
3317 13-03-2020 00:49:17 6 C 32 %
3318 13-03-2020 00:59:17 5.9 C 33 %
3319 13-03-2020 01:09:17 5.4 C 33 %
3320 13-03-2020 01:19:17 5.4 C 33 %
3321 13-03-2020 01:29:17 5.1 C 34 %
3322 13-03-2020 01:39:17 5.2 C 34 %
3323 13-03-2020 01:49:17 5.2 C 33 %
3324 13-03-2020 01:59:17 5.2 C 33 %
3325 13-03-2020 02:09:17 4.8 C 35 %
Sensor: Nr:Datum:Temp:Feuchte:
Aussen-T/F 3326 13-03-2020 02:19:17 5 C 34 %
3327 13-03-2020 02:29:17 5.1 C 34 %
3328 13-03-2020 02:39:18 5.1 C 34 %
3329 13-03-2020 02:49:17 5.1 C 34 %
3330 13-03-2020 02:59:17 5.1 C 34 %
3331 13-03-2020 03:09:17 5 C 34 %
3332 13-03-2020 03:19:17 5.2 C 34 %
3333 13-03-2020 03:29:17 5.2 C 34 %
3334 13-03-2020 03:39:18 5.1 C 34 %
3335 13-03-2020 03:49:17 5.1 C 34 %
3336 13-03-2020 03:59:17 5.2 C 34 %
3337 13-03-2020 04:09:17 5 C 34 %
3338 13-03-2020 04:19:17 4.9 C 35 %
3339 13-03-2020 04:29:17 5.1 C 35 %
3340 13-03-2020 04:39:17 5.1 C 35 %
3341 13-03-2020 04:49:17 5 C 34 %
3342 13-03-2020 04:59:17 5.2 C 34 %
3343 13-03-2020 05:09:17 5.2 C 34 %
3344 13-03-2020 05:19:17 5.6 C 34 %
3345 13-03-2020 05:29:17 5.4 C 34 %
3346 13-03-2020 05:39:17 5.4 C 34 %
3347 13-03-2020 05:49:18 5.4 C 34 %
3348 13-03-2020 05:59:18 5.4 C 34 %
3349 13-03-2020 06:09:18 5.6 C 34 %
3350 13-03-2020 06:19:17 5.7 C 34 %
Sensor: Nr:Datum:Temp:Feuchte:
Aussen-T/F 3351 13-03-2020 06:29:17 5.4 C 34 %
3352 13-03-2020 06:39:17 5.4 C 35 %
3353 13-03-2020 06:49:17 5.3 C 34 %
3354 13-03-2020 06:59:17 5.4 C 35 %
3355 13-03-2020 07:09:17 5.3 C 35 %
3356 13-03-2020 07:19:17 5.4 C 35 %
3357 13-03-2020 07:29:17 5.6 C 35 %
3358 13-03-2020 07:39:17 5.7 C 35 %
3359 13-03-2020 07:49:18 5.7 C 35 %
3360 13-03-2020 07:59:18 5.7 C 35 %
3361 13-03-2020 08:09:17 5.8 C 35 %
3362 13-03-2020 08:19:17 6 C 35 %
3363 13-03-2020 08:29:17 5.9 C 35 %
3364 13-03-2020 08:39:18 6 C 35 %
3365 13-03-2020 08:49:17 6.2 C 35 %
3366 13-03-2020 08:59:17 6.4 C 34 %
3367 13-03-2020 09:09:17 6.5 C 35 %
3368 13-03-2020 09:19:17 6.9 C 34 %
3369 13-03-2020 09:29:17 7.1 C 33 %
3370 13-03-2020 09:39:18 7.1 C 33 %
3371 13-03-2020 09:49:17 6.6 C 34 %
3372 13-03-2020 09:59:17 7.1 C 33 %
3373 13-03-2020 10:09:18 7.5 C 33 %
3374 13-03-2020 10:19:17 8.5 C 32 %
3375 13-03-2020 10:29:17 8.1 C 32 %
Sensor: Nr:Datum:Temp:Feuchte:
Aussen-T/F 3376 13-03-2020 10:39:18 8 C 32 %
3377 13-03-2020 10:49:17 7.6 C 33 %
3378 13-03-2020 10:59:17 7.4 C 35 %
3379 13-03-2020 11:09:17 8.9 C 33 %
3380 13-03-2020 11:19:17 9.1 C 31 %
3381 13-03-2020 11:29:17 8 C 32 %
3382 13-03-2020 11:39:17 7.3 C 35 %
3383 13-03-2020 11:49:18 7.4 C 35 %
3384 13-03-2020 11:59:18 8.2 C 33 %
3385 13-03-2020 12:09:18 8.9 C 32 %
3386 13-03-2020 12:19:18 9.7 C 29 %
3387 13-03-2020 12:29:18 9 C 30 %
3388 13-03-2020 12:39:18 9.6 C 30 %
3389 13-03-2020 12:49:18 9 C 31 %
3390 13-03-2020 12:59:18 8.8 C 31 %
3391 13-03-2020 13:09:18 8.4 C 32 %
3392 13-03-2020 13:19:18 8.6 C 33 %
3393 13-03-2020 13:29:18 9.5 C 31 %
3394 13-03-2020 13:39:18 9.9 C 30 %
3395 13-03-2020 13:49:17 9.7 C 30 %
3396 13-03-2020 13:59:17 9.6 C 30 %
3397 13-03-2020 14:09:18 9.3 C 30 %
3398 13-03-2020 14:19:18 9.4 C 30 %
3399 13-03-2020 14:29:18 8.9 C 32 %
3400 13-03-2020 14:39:18 9.5 C 31 %
Sensor: Nr:Datum:Temp:Feuchte:
Aussen-T/F 3401 13-03-2020 14:49:18 10.3 C 28 %
3402 13-03-2020 14:59:18 10.1 C 28 %
3403 13-03-2020 15:09:18 9.5 C 29 %
3404 13-03-2020 15:19:17 9.3 C 29 %
3405 13-03-2020 15:29:17 10.1 C 27 %
3406 13-03-2020 15:39:18 10.4 C 26 %
3407 13-03-2020 15:49:18 10.4 C 26 %
3408 13-03-2020 15:59:18 10.1 C 27 %
3409 13-03-2020 16:09:18 10 C 27 %
3410 13-03-2020 16:19:17 9.8 C 27 %
3411 13-03-2020 16:29:17 9.1 C 29 %
3412 13-03-2020 16:39:17 9 C 30 %
3413 13-03-2020 16:49:17 10 C 27 %
3414 13-03-2020 16:59:17 9.3 C 30 %
3415 13-03-2020 17:09:17 9.1 C 30 %
3416 13-03-2020 17:19:18 9.1 C 30 %
3417 13-03-2020 17:29:18 9.3 C 30 %
3418 13-03-2020 17:39:17 9.4 C 29 %
3419 13-03-2020 17:49:18 9.5 C 30 %
3420 13-03-2020 17:59:18 9.1 C 31 %
3421 13-03-2020 18:09:18 8.7 C 31 %
3422 13-03-2020 18:19:17 8.6 C 31 %
3423 13-03-2020 18:29:17 8.4 C 31 %
3424 13-03-2020 18:39:17 8.2 C 31 %
3425 13-03-2020 18:49:17 8.1 C 32 %
Sensor: Nr:Datum:Temp:Feuchte:
Aussen-T/F 3426 13-03-2020 18:59:17 8 C 32 %
3427 13-03-2020 19:09:17 7.8 C 33 %
3428 13-03-2020 19:19:17 7.3 C 35 %
3429 13-03-2020 19:29:17 7.3 C 35 %
3430 13-03-2020 19:39:18 7.3 C 35 %
3431 13-03-2020 19:49:17 7.3 C 35 %
3432 13-03-2020 19:59:18 7 C 35 %
3433 13-03-2020 20:09:18 6.7 C 36 %
3434 13-03-2020 20:19:17 6.7 C 36 %
3435 13-03-2020 20:29:17 6.9 C 36 %
3436 13-03-2020 20:39:17 6.4 C 36 %
3437 13-03-2020 20:49:17 6.3 C 37 %
3438 13-03-2020 20:59:17 6.2 C 37 %
3439 13-03-2020 21:09:18 5.8 C 38 %
3440 13-03-2020 21:19:18 5.8 C 38 %
3441 13-03-2020 21:29:18 5.8 C 38 %
3442 13-03-2020 21:39:18 6.2 C 37 %
3443 13-03-2020 21:49:17 5.7 C 38 %
3444 13-03-2020 21:59:17 5.8 C 38 %
3445 13-03-2020 22:09:18 5.4 C 39 %
3446 13-03-2020 22:19:17 5.6 C 39 %
3447 13-03-2020 22:29:18 5.4 C 39 %
3448 13-03-2020 22:39:18 5.5 C 40 %
3449 13-03-2020 22:49:17 5.7 C 39 %
3450 13-03-2020 22:59:17 5.8 C 39 %
Sensor: Nr:Datum:Temp:Feuchte:
Aussen-T/F 3451 13-03-2020 23:09:18 5.6 C 39 %
3452 13-03-2020 23:19:17 5.6 C 39 %
3453 13-03-2020 23:29:17 5.5 C 40 %
3454 13-03-2020 23:39:17 5.4 C 40 %
3455 13-03-2020 23:49:17 5.4 C 40 %
3456 13-03-2020 23:59:17 4.8 C 41 %
3457 14-03-2020 00:09:17 4.8 C 41 %
3458 14-03-2020 00:19:18 4.6 C 41 %
3459 14-03-2020 00:29:18 4.4 C 41 %
3460 14-03-2020 00:39:18 3.7 C 42 %
3461 14-03-2020 00:49:17 3.5 C 44 %
3462 14-03-2020 00:59:17 3 C 43 %
3463 14-03-2020 01:09:18 2.6 C 45 %
3464 14-03-2020 01:19:17 2.4 C 46 %
3465 14-03-2020 01:29:18 2 C 45 %
3466 14-03-2020 01:39:18 2 C 46 %
3467 14-03-2020 01:49:17 2.4 C 48 %
3468 14-03-2020 01:59:18 2.8 C 49 %
3469 14-03-2020 02:09:18 3.3 C 47 %
3470 14-03-2020 02:19:18 3.6 C 46 %
3471 14-03-2020 02:29:18 3.3 C 45 %
3472 14-03-2020 02:39:18 3 C 45 %
3473 14-03-2020 02:49:18 2.8 C 45 %
3474 14-03-2020 02:59:18 2.3 C 46 %
3475 14-03-2020 03:09:18 2.2 C 46 %
Sensor: Nr:Datum:Temp:Feuchte:
Aussen-T/F 3476 14-03-2020 03:19:17 1.5 C 47 %
3477 14-03-2020 03:29:17 1.3 C 47 %
3478 14-03-2020 03:39:17 1.4 C 48 %
3479 14-03-2020 03:49:18 1.5 C 48 %
3480 14-03-2020 03:59:18 1.5 C 49 %
3481 14-03-2020 04:09:17 1.7 C 49 %
3482 14-03-2020 04:19:17 1.6 C 48 %
3483 14-03-2020 04:29:17 1.6 C 49 %
3484 14-03-2020 04:39:17 1.5 C 48 %
3485 14-03-2020 04:49:17 1.3 C 48 %
3486 14-03-2020 04:59:17 1.3 C 48 %
3487 14-03-2020 05:09:17 1.3 C 49 %
3488 14-03-2020 05:19:17 1.1 C 48 %
3489 14-03-2020 05:29:17 0.8 C 49 %
3490 14-03-2020 05:39:18 0.9 C 50 %
3491 14-03-2020 05:49:17 1.3 C 49 %
3492 14-03-2020 05:59:17 0.5 C 49 %
3493 14-03-2020 06:09:18 0.3 C 49 %
3494 14-03-2020 06:19:18 0.6 C 50 %
3495 14-03-2020 06:29:18 0.4 C 49 %
3496 14-03-2020 06:39:18 0.4 C 50 %
3497 14-03-2020 06:49:17 0.8 C 50 %
3498 14-03-2020 06:59:17 0.8 C 50 %
3499 14-03-2020 07:09:17 0.7 C 50 %
3500 14-03-2020 07:19:17 0.8 C 50 %
Sensor: Nr:Datum:Temp:Feuchte:
Aussen-T/F 3501 14-03-2020 07:29:17 0.6 C 49 %
3502 14-03-2020 07:39:18 0.6 C 49 %
3503 14-03-2020 07:49:17 0.8 C 49 %
3504 14-03-2020 07:59:17 0.8 C 50 %
3505 14-03-2020 08:09:17 1 C 48 %
3506 14-03-2020 08:19:17 1.4 C 49 %
3507 14-03-2020 08:29:17 1.7 C 49 %
3508 14-03-2020 08:39:18 1.9 C 49 %
3509 14-03-2020 08:49:17 2.2 C 48 %
3510 14-03-2020 08:59:17 2.5 C 48 %
3511 14-03-2020 09:09:17 2.8 C 48 %
3512 14-03-2020 09:19:17 3.4 C 46 %
3513 14-03-2020 09:29:17 3.7 C 45 %
3514 14-03-2020 09:39:18 4.1 C 43 %
3515 14-03-2020 09:49:17 4.5 C 43 %
3516 14-03-2020 09:59:17 5 C 41 %
3517 14-03-2020 10:09:18 5.7 C 41 %
3518 14-03-2020 10:19:18 6 C 39 %
3519 14-03-2020 10:29:18 6.8 C 40 %
3520 14-03-2020 10:39:18 7.7 C 38 %
3521 14-03-2020 10:49:17 7.7 C 37 %
3522 14-03-2020 10:59:17 8.4 C 36 %
3523 14-03-2020 11:09:18 9 C 35 %
3524 14-03-2020 11:19:18 10.4 C 34 %
3525 14-03-2020 11:29:18 11 C 31 %
Sensor: Nr:Datum:Temp:Feuchte:
Aussen-T/F 3526 14-03-2020 11:39:18 10.4 C 31 %
3527 14-03-2020 11:49:17 10.1 C 32 %
3528 14-03-2020 11:59:17 11.3 C 31 %
3529 14-03-2020 12:09:18 13 C 27 %
3530 14-03-2020 12:19:17 12.4 C 27 %
3531 14-03-2020 12:29:18 12 C 27 %
3532 14-03-2020 12:39:18 11.3 C 28 %
3533 14-03-2020 12:49:17 11.5 C 28 %
3534 14-03-2020 12:59:17 13.1 C 26 %
3535 14-03-2020 13:09:18 12.9 C 25 %
3536 14-03-2020 13:19:17 13 C 22 %
3537 14-03-2020 13:29:17 13.3 C 23 %
3538 14-03-2020 13:39:17 12.5 C 22 %
3539 14-03-2020 13:49:17 12.4 C 22 %
3540 14-03-2020 13:59:17 13.8 C 21 %
3541 14-03-2020 14:09:18 12.3 C 22 %
3542 14-03-2020 14:19:17 12.5 C 21 %
3543 14-03-2020 14:29:17 14 C 20 %
3544 14-03-2020 14:39:17 13.7 C 20 %
3545 14-03-2020 14:49:18 12.3 C 20 %
3546 14-03-2020 14:59:18 11.6 C 23 %
3547 14-03-2020 15:09:18 11.4 C 22 %
3548 14-03-2020 15:19:17 12.1 C 21 %
3549 14-03-2020 15:29:17 12.1 C 20 %
3550 14-03-2020 15:39:18 11.7 C 21 %
Sensor: Nr:Datum:Temp:Feuchte:
Aussen-T/F 3551 14-03-2020 15:49:17 12 C 20 %
3552 14-03-2020 15:59:17 11.8 C 21 %
3553 14-03-2020 16:09:18 11.2 C 23 %
3554 14-03-2020 16:19:17 10.6 C 25 %
3555 14-03-2020 16:29:17 10.4 C 26 %
3556 14-03-2020 16:39:18 9.9 C 26 %
3557 14-03-2020 16:49:18 10.1 C 26 %
3558 14-03-2020 16:59:18 9.8 C 27 %
3559 14-03-2020 17:09:18 10.3 C 26 %
3560 14-03-2020 17:19:17 10.3 C 26 %
3561 14-03-2020 17:29:17 10.7 C 26 %
3562 14-03-2020 17:39:17 9.6 C 27 %
3563 14-03-2020 17:49:17 9.3 C 28 %
3564 14-03-2020 17:59:17 8.6 C 30 %
3565 14-03-2020 18:09:17 8.1 C 31 %
3566 14-03-2020 18:19:17 7.3 C 33 %
3567 14-03-2020 18:29:17 7.1 C 33 %
3568 14-03-2020 18:39:17 6.3 C 36 %
3569 14-03-2020 18:49:17 5.9 C 37 %
3570 14-03-2020 18:59:17 5.9 C 38 %
3571 14-03-2020 19:09:17 5.3 C 38 %
3572 14-03-2020 19:19:17 5.5 C 39 %
3573 14-03-2020 19:29:17 5.1 C 39 %
3574 14-03-2020 19:39:17 5.6 C 39 %
3575 14-03-2020 19:49:17 5.2 C 39 %
Sensor: Nr:Datum:Temp:Feuchte:
Aussen-T/F 3576 14-03-2020 19:59:17 5.3 C 39 %
3577 14-03-2020 20:09:18 5.3 C 39 %
3578 14-03-2020 20:19:18 5.3 C 39 %
3579 14-03-2020 20:29:18 5.3 C 39 %
3580 14-03-2020 20:39:18 5.6 C 39 %
3581 14-03-2020 20:49:17 5.5 C 39 %
3582 14-03-2020 20:59:18 5.7 C 39 %
3583 14-03-2020 21:09:18 5.7 C 39 %
3584 14-03-2020 21:19:18 5.7 C 39 %
3585 14-03-2020 21:29:18 5.6 C 38 %
3586 14-03-2020 21:39:17 5.1 C 39 %
3587 14-03-2020 21:49:18 5.2 C 39 %
3588 14-03-2020 21:59:18 5 C 39 %
3589 14-03-2020 22:09:18 5 C 39 %
3590 14-03-2020 22:19:17 5 C 39 %
3591 14-03-2020 22:29:17 5 C 39 %
3592 14-03-2020 22:39:18 5.1 C 39 %
3593 14-03-2020 22:49:18 4.8 C 40 %
3594 14-03-2020 22:59:18 5.1 C 39 %
3595 14-03-2020 23:09:17 5.5 C 39 %
3596 14-03-2020 23:19:17 5.7 C 39 %
3597 14-03-2020 23:29:17 5.6 C 40 %
3598 14-03-2020 23:39:17 5.6 C 39 %
3599 14-03-2020 23:49:18 5.8 C 40 %
3600 14-03-2020 23:59:18 5.8 C 40 %
Sensor: Nr:Datum:Temp:Feuchte:
Aussen-T/F 3601 15-03-2020 00:09:18 5.9 C 39 %
3602 15-03-2020 00:19:17 5.8 C 39 %
3603 15-03-2020 00:29:17 6.1 C 37 %
3604 15-03-2020 00:39:18 6 C 38 %
3605 15-03-2020 00:49:18 5.6 C 39 %
3606 15-03-2020 00:59:18 5.3 C 39 %
3607 15-03-2020 01:09:17 5.1 C 40 %
3608 15-03-2020 01:19:18 5.1 C 39 %
3609 15-03-2020 01:29:18 5.5 C 39 %
3610 15-03-2020 01:39:17 5.2 C 40 %
3611 15-03-2020 01:49:17 5.2 C 40 %
3612 15-03-2020 01:59:17 5.2 C 40 %
3613 15-03-2020 02:09:17 5.1 C 40 %
3614 15-03-2020 02:19:17 5.1 C 40 %
3615 15-03-2020 02:29:17 4.8 C 40 %
3616 15-03-2020 02:39:18 4.5 C 40 %
3617 15-03-2020 02:49:17 4.9 C 40 %
3618 15-03-2020 02:59:17 5 C 40 %
3619 15-03-2020 03:09:17 4.8 C 40 %
3620 15-03-2020 03:19:17 4.2 C 40 %
3621 15-03-2020 03:29:17 4 C 40 %
3622 15-03-2020 03:39:18 4 C 40 %
3623 15-03-2020 03:49:17 3.8 C 41 %
3624 15-03-2020 03:59:17 3.7 C 42 %
3625 15-03-2020 04:09:18 3.7 C 41 %
Sensor: Nr:Datum:Temp:Feuchte:
Aussen-T/F 3626 15-03-2020 04:19:18 3.9 C 41 %
3627 15-03-2020 04:29:18 3.7 C 41 %
3628 15-03-2020 04:39:18 3.8 C 41 %
3629 15-03-2020 04:49:17 3.7 C 41 %
3630 15-03-2020 04:59:18 3.5 C 41 %
3631 15-03-2020 05:09:18 3.5 C 41 %
3632 15-03-2020 05:19:17 3.3 C 41 %
3633 15-03-2020 05:29:18 3.2 C 41 %
3634 15-03-2020 05:39:18 3 C 41 %
3635 15-03-2020 05:49:17 3.1 C 41 %
3636 15-03-2020 05:59:17 3.1 C 41 %
3637 15-03-2020 06:09:18 3.1 C 41 %
3638 15-03-2020 06:19:17 3.1 C 41 %
3639 15-03-2020 06:29:17 2.9 C 43 %
3640 15-03-2020 06:39:18 3.3 C 41 %
3641 15-03-2020 06:49:18 3.6 C 41 %
3642 15-03-2020 06:59:18 3.3 C 41 %
3643 15-03-2020 07:09:18 3 C 42 %
3644 15-03-2020 07:19:18 3.1 C 42 %
3645 15-03-2020 07:29:18 3.6 C 41 %
3646 15-03-2020 07:39:18 3.6 C 41 %
3647 15-03-2020 07:49:18 3.5 C 41 %
3648 15-03-2020 07:59:18 4 C 41 %
3649 15-03-2020 08:09:18 4.8 C 40 %
3650 15-03-2020 08:19:18 5.4 C 39 %
Sensor: Nr:Datum:Temp:Feuchte:
Aussen-T/F 3651 15-03-2020 08:29:18 5.7 C 39 %
3652 15-03-2020 08:39:18 5.9 C 38 %
3653 15-03-2020 08:49:17 6.4 C 38 %
3654 15-03-2020 08:59:17 6.7 C 38 %
3655 15-03-2020 09:09:18 6.8 C 37 %
3656 15-03-2020 09:19:18 6.9 C 38 %
3657 15-03-2020 09:29:18 7.1 C 37 %
3658 15-03-2020 09:39:18 7.8 C 36 %
3659 15-03-2020 09:49:18 9.2 C 33 %
3660 15-03-2020 09:59:18 9.9 C 32 %
3661 15-03-2020 10:09:18 9.9 C 31 %
3662 15-03-2020 10:19:18 9.8 C 32 %
3663 15-03-2020 10:29:18 10 C 32 %
3664 15-03-2020 10:39:18 10.8 C 31 %
3665 15-03-2020 10:49:17 11.8 C 29 %
3666 15-03-2020 10:59:17 12.5 C 27 %
3667 15-03-2020 11:09:17 13.4 C 25 %
3668 15-03-2020 11:19:17 14.7 C 23 %
3669 15-03-2020 11:29:17 16 C 20 %
3670 15-03-2020 11:39:18 15.5 C 20 %
3671 15-03-2020 11:49:17 14.9 C 20 %
3672 15-03-2020 11:59:18 15.2 C 20 %
3673 15-03-2020 12:09:18 14.5 C 20 %
3674 15-03-2020 12:19:18 14.1 C 20 %
3675 15-03-2020 12:29:18 14.4 C 20 %
Sensor: Nr:Datum:Temp:Feuchte:
Aussen-T/F 3676 15-03-2020 12:39:18 14.7 C 20 %
3677 15-03-2020 12:49:17 15.2 C 20 %
3678 15-03-2020 12:59:17 15.4 C 20 %
3679 15-03-2020 13:09:18 14.8 C 20 %
3680 15-03-2020 13:19:17 17 C 20 %
3681 15-03-2020 13:29:17 18.6 C 20 %
3682 15-03-2020 13:39:18 17.4 C 20 %
3683 15-03-2020 13:49:17 16.7 C 20 %
3684 15-03-2020 13:59:17 16.2 C 20 %
3685 15-03-2020 14:09:17 15.5 C 20 %
3686 15-03-2020 14:19:17 16.5 C 20 %
3687 15-03-2020 14:29:17 16.3 C 20 %
3688 15-03-2020 14:39:18 16.6 C 20 %
3689 15-03-2020 14:49:17 16.2 C 20 %
3690 15-03-2020 14:59:17 16 C 20 %
3691 15-03-2020 15:09:17 17.4 C 20 %
3692 15-03-2020 15:19:17 20.3 C 20 %
3693 15-03-2020 15:29:18 20.4 C 20 %
3694 15-03-2020 15:39:18 19.4 C 20 %
3695 15-03-2020 15:49:17 20.7 C 20 %
3696 15-03-2020 15:59:17 19.9 C 20 %
3697 15-03-2020 16:09:17 21.2 C 20 %
3698 15-03-2020 16:19:17 20.2 C 20 %
3699 15-03-2020 16:29:17 20.5 C 20 %
3700 15-03-2020 16:39:17 19.7 C 20 %
Sensor: Nr:Datum:Temp:Feuchte:
Aussen-T/F 3701 15-03-2020 16:49:18 18.1 C 20 %
3702 15-03-2020 16:59:18 16.9 C 20 %
3703 15-03-2020 17:09:18 16 C 20 %
3704 15-03-2020 17:19:18 15.5 C 20 %
3705 15-03-2020 17:29:18 15.5 C 20 %
3706 15-03-2020 17:39:18 14.9 C 20 %
3707 15-03-2020 17:49:18 13.8 C 20 %
3708 15-03-2020 17:59:18 12.6 C 23 %
3709 15-03-2020 18:09:18 12.1 C 25 %
3710 15-03-2020 18:19:18 11.7 C 26 %
3711 15-03-2020 18:29:18 11.1 C 27 %
3712 15-03-2020 18:39:18 10.6 C 28 %
3713 15-03-2020 18:49:17 10.4 C 28 %
3714 15-03-2020 18:59:17 10 C 28 %
3715 15-03-2020 19:09:18 9.6 C 30 %
3716 15-03-2020 19:19:18 9.4 C 30 %
3717 15-03-2020 19:29:18 9.2 C 31 %
3718 15-03-2020 19:39:18 9.1 C 30 %
3719 15-03-2020 19:49:17 9 C 31 %
3720 15-03-2020 19:59:17 8.9 C 31 %
3721 15-03-2020 20:09:18 8.6 C 31 %
3722 15-03-2020 20:19:17 8.5 C 32 %
3723 15-03-2020 20:29:17 8.2 C 32 %
3724 15-03-2020 20:39:18 8.2 C 32 %
3725 15-03-2020 20:49:18 8 C 32 %
Sensor: Nr:Datum:Temp:Feuchte:
Aussen-T/F 3726 15-03-2020 20:59:18 7.4 C 34 %
3727 15-03-2020 21:09:18 7.1 C 35 %
3728 15-03-2020 21:19:17 7 C 35 %
3729 15-03-2020 21:29:17 7.4 C 35 %
3730 15-03-2020 21:39:17 7.5 C 35 %
3731 15-03-2020 21:49:17 7.1 C 35 %
3732 15-03-2020 21:59:17 6.3 C 36 %
3733 15-03-2020 22:09:17 5.8 C 37 %
3734 15-03-2020 22:19:17 5.4 C 37 %
3735 15-03-2020 22:29:18 5 C 38 %
3736 15-03-2020 22:39:17 4.7 C 40 %
3737 15-03-2020 22:49:17 4.7 C 40 %
3738 15-03-2020 22:59:17 4.7 C 40 %
3739 15-03-2020 23:09:17 4.7 C 40 %
3740 15-03-2020 23:19:17 4.6 C 40 %
3741 15-03-2020 23:29:17 4.5 C 40 %
3742 15-03-2020 23:39:17 4.5 C 40 %
3743 15-03-2020 23:49:17 4.3 C 40 %
3744 15-03-2020 23:59:17 4.1 C 40 %
3745 16-03-2020 00:09:17 4 C 40 %
3746 16-03-2020 00:19:17 3.8 C 41 %
3747 16-03-2020 00:29:17 3.4 C 41 %
3748 16-03-2020 00:39:17 3.4 C 42 %
3749 16-03-2020 00:49:17 3.3 C 42 %
3750 16-03-2020 00:59:17 3.3 C 42 %
Sensor: Nr:Datum:Temp:Feuchte:
Aussen-T/F 3751 16-03-2020 01:09:18 2.9 C 43 %
3752 16-03-2020 01:19:17 3 C 43 %
3753 16-03-2020 01:29:17 3 C 42 %
3754 16-03-2020 01:39:17 3.2 C 42 %
3755 16-03-2020 01:49:18 2.8 C 43 %
3756 16-03-2020 01:59:18 2.6 C 44 %
3757 16-03-2020 02:09:17 2.7 C 45 %
3758 16-03-2020 02:19:17 2.7 C 44 %
3759 16-03-2020 02:29:17 2.4 C 44 %
3760 16-03-2020 02:39:17 2.6 C 45 %
3761 16-03-2020 02:49:17 2.8 C 45 %
3762 16-03-2020 02:59:17 2.8 C 44 %
3763 16-03-2020 03:09:18 2.2 C 44 %
3764 16-03-2020 03:19:17 2.3 C 44 %
3765 16-03-2020 03:29:17 2.2 C 45 %
3766 16-03-2020 03:39:17 1.8 C 45 %
3767 16-03-2020 03:49:18 2 C 46 %
3768 16-03-2020 03:59:18 1.8 C 46 %
3769 16-03-2020 04:09:18 1.6 C 46 %
3770 16-03-2020 04:19:18 1.7 C 46 %
3771 16-03-2020 04:29:18 2 C 46 %
3772 16-03-2020 04:39:18 1.5 C 46 %
3773 16-03-2020 04:49:17 1.7 C 46 %
3774 16-03-2020 04:59:18 1.9 C 46 %
3775 16-03-2020 05:09:18 1.7 C 46 %
Sensor: Nr:Datum:Temp:Feuchte:
Aussen-T/F 3776 16-03-2020 05:19:18 1.7 C 46 %
3777 16-03-2020 05:29:18 1.4 C 46 %
3778 16-03-2020 05:39:18 1.3 C 46 %
3779 16-03-2020 05:49:17 1.2 C 46 %
3780 16-03-2020 05:59:17 1.3 C 47 %
3781 16-03-2020 06:09:18 1.1 C 47 %
3782 16-03-2020 06:19:17 0.6 C 48 %
3783 16-03-2020 06:29:17 0.6 C 48 %
3784 16-03-2020 06:39:17 0.6 C 48 %
3785 16-03-2020 06:49:17 0.6 C 48 %
3786 16-03-2020 06:59:17 0.9 C 49 %
3787 16-03-2020 07:09:17 1.2 C 49 %
3788 16-03-2020 07:19:17 1.1 C 47 %
3789 16-03-2020 07:29:17 1 C 47 %
3790 16-03-2020 07:39:17 1.4 C 49 %
3791 16-03-2020 07:49:17 1.4 C 48 %
3792 16-03-2020 07:59:17 1.7 C 48 %
3793 16-03-2020 08:09:18 2 C 47 %
3794 16-03-2020 08:19:17 2.3 C 47 %
3795 16-03-2020 08:29:18 2.4 C 46 %
3796 16-03-2020 08:39:18 2.4 C 46 %
3797 16-03-2020 08:49:17 2.6 C 46 %
3798 16-03-2020 08:59:17 2.9 C 47 %
3799 16-03-2020 09:09:18 3.4 C 46 %
3800 16-03-2020 09:19:18 3.7 C 45 %
Sensor: Nr:Datum:Temp:Feuchte:
Aussen-T/F 3801 16-03-2020 09:29:18 4 C 45 %
3802 16-03-2020 09:39:18 4.6 C 44 %
3803 16-03-2020 09:49:18 5 C 43 %
3804 16-03-2020 09:59:18 5.6 C 42 %
3805 16-03-2020 10:09:18 6.6 C 41 %
3806 16-03-2020 10:19:18 7.3 C 40 %
3807 16-03-2020 10:29:18 8.3 C 39 %
3808 16-03-2020 10:39:17 9.3 C 38 %
3809 16-03-2020 10:49:18 10.4 C 37 %
3810 16-03-2020 10:59:18 12.4 C 34 %
3811 16-03-2020 11:09:17 13.3 C 32 %
3812 16-03-2020 11:19:17 14.3 C 30 %
3813 16-03-2020 11:29:17 15.4 C 27 %
3814 16-03-2020 11:39:18 15.7 C 26 %
3815 16-03-2020 11:49:17 15.6 C 25 %
3816 16-03-2020 11:59:17 16.1 C 25 %
3817 16-03-2020 12:09:17 16.5 C 25 %
3818 16-03-2020 12:19:17 16.8 C 25 %
3819 16-03-2020 12:29:17 16.4 C 24 %
3820 16-03-2020 12:39:17 16.9 C 24 %
3821 16-03-2020 12:49:17 18.3 C 21 %
3822 16-03-2020 12:59:17 18.7 C 20 %
3823 16-03-2020 13:09:17 22.3 C 20 %
3824 16-03-2020 13:19:17 21.2 C 20 %
3825 16-03-2020 13:29:17 21.1 C 20 %
Sensor: Nr:Datum:Temp:Feuchte:
Aussen-T/F 3826 16-03-2020 13:39:17 20.6 C 20 %
3827 16-03-2020 13:49:17 21.1 C 20 %
3828 16-03-2020 13:59:17 19.7 C 20 %
3829 16-03-2020 14:09:17 18.7 C 20 %
3830 16-03-2020 14:19:17 19.7 C 20 %
3831 16-03-2020 14:29:17 19.7 C 20 %
3832 16-03-2020 14:39:17 20 C 20 %
3833 16-03-2020 14:49:17 19.2 C 20 %
3834 16-03-2020 14:59:17 20.8 C 20 %
3835 16-03-2020 15:09:17 20 C 20 %
3836 16-03-2020 15:19:17 19.1 C 20 %
3837 16-03-2020 15:29:17 18.8 C 20 %
3838 16-03-2020 15:39:18 18.8 C 20 %
3839 16-03-2020 15:49:17 19 C 20 %
3840 16-03-2020 15:59:17 19 C 20 %
3841 16-03-2020 16:09:18 18.7 C 20 %
3842 16-03-2020 16:19:18 19 C 20 %
3843 16-03-2020 16:29:18 21.4 C 20 %
3844 16-03-2020 16:39:17 20.8 C 20 %
3845 16-03-2020 16:49:17 20.2 C 20 %
3846 16-03-2020 16:59:17 19.4 C 20 %
3847 16-03-2020 17:09:17 18.4 C 20 %
3848 16-03-2020 17:19:17 17.9 C 20 %
3849 16-03-2020 17:29:18 17.7 C 20 %
3850 16-03-2020 17:39:18 17.5 C 20 %
Sensor: Nr:Datum:Temp:Feuchte:
Aussen-T/F 3851 16-03-2020 17:49:17 16.8 C 21 %
3852 16-03-2020 17:59:18 16 C 23 %
3853 16-03-2020 18:09:18 15 C 26 %
3854 16-03-2020 18:19:18 14.3 C 27 %
3855 16-03-2020 18:29:18 13.7 C 29 %
3856 16-03-2020 18:39:18 13.1 C 30 %
3857 16-03-2020 18:49:18 12.7 C 31 %
3858 16-03-2020 18:59:18 12.4 C 32 %
3859 16-03-2020 19:09:18 12.1 C 32 %
3860 16-03-2020 19:19:18 12.2 C 32 %
3861 16-03-2020 19:29:18 12.2 C 32 %
3862 16-03-2020 19:39:18 11.9 C 34 %
3863 16-03-2020 19:49:17 11.5 C 34 %
3864 16-03-2020 19:59:18 11 C 35 %
3865 16-03-2020 20:09:18 10.7 C 36 %
3866 16-03-2020 20:19:18 11.4 C 35 %
3867 16-03-2020 20:29:18 10.8 C 36 %
3868 16-03-2020 20:39:18 10.3 C 36 %
3869 16-03-2020 20:49:18 9.5 C 38 %
3870 16-03-2020 20:59:18 10.8 C 37 %
3871 16-03-2020 21:09:18 10.1 C 37 %
3872 16-03-2020 21:19:17 10.3 C 38 %
3873 16-03-2020 21:29:17 9.9 C 38 %
3874 16-03-2020 21:39:17 9.7 C 38 %
3875 16-03-2020 21:49:18 10.2 C 37 %
Sensor: Nr:Datum:Temp:Feuchte:
Aussen-T/F 3876 16-03-2020 21:59:18 9.9 C 38 %
3877 16-03-2020 22:09:18 9.7 C 38 %
3878 16-03-2020 22:19:18 9.5 C 38 %
3879 16-03-2020 22:29:18 9.5 C 39 %
3880 16-03-2020 22:39:18 9.2 C 38 %
3881 16-03-2020 22:49:18 8.9 C 39 %
3882 16-03-2020 22:59:18 9.1 C 39 %
3883 16-03-2020 23:09:18 9.4 C 39 %
3884 16-03-2020 23:19:17 9.4 C 39 %
3885 16-03-2020 23:29:17 9.4 C 39 %
3886 16-03-2020 23:39:17 9.5 C 39 %
3887 16-03-2020 23:49:17 9.5 C 40 %
3888 16-03-2020 23:59:17 9.5 C 39 %
3889 17-03-2020 00:09:17 9.3 C 39 %
3890 17-03-2020 00:19:17 9.7 C 40 %
3891 17-03-2020 00:29:17 9.5 C 39 %
3892 17-03-2020 00:39:18 9.3 C 39 %
3893 17-03-2020 00:49:18 9.1 C 40 %
3894 17-03-2020 00:59:18 9 C 40 %
3895 17-03-2020 01:09:18 9.3 C 40 %
3896 17-03-2020 01:19:17 9.2 C 40 %
3897 17-03-2020 01:29:17 8.9 C 40 %
3898 17-03-2020 01:39:17 8.7 C 41 %
3899 17-03-2020 01:49:18 8.8 C 41 %
3900 17-03-2020 01:59:18 8.8 C 41 %
Sensor: Nr:Datum:Temp:Feuchte:
Aussen-T/F 3901 17-03-2020 02:09:18 8.7 C 41 %
3902 17-03-2020 02:19:17 8.7 C 41 %
3903 17-03-2020 02:29:17 8.7 C 41 %
3904 17-03-2020 02:39:17 8.9 C 41 %
3905 17-03-2020 02:49:17 8.9 C 41 %
3906 17-03-2020 02:59:17 8.8 C 41 %
3907 17-03-2020 03:09:18 8.6 C 41 %
3908 17-03-2020 03:19:18 8.6 C 41 %
3909 17-03-2020 03:29:18 8.4 C 41 %
3910 17-03-2020 03:39:17 8.3 C 41 %
3911 17-03-2020 03:49:18 8.1 C 42 %
3912 17-03-2020 03:59:18 8 C 41 %
3913 17-03-2020 04:09:18 8.9 C 42 %
3914 17-03-2020 04:19:18 9.2 C 40 %
3915 17-03-2020 04:29:18 9.3 C 40 %
3916 17-03-2020 04:39:17 9 C 40 %
3917 17-03-2020 04:49:18 9 C 40 %
3918 17-03-2020 04:59:18 8.6 C 41 %
3919 17-03-2020 05:09:17 8.9 C 41 %
3920 17-03-2020 05:19:17 9 C 40 %
3921 17-03-2020 05:29:17 8.6 C 41 %
3922 17-03-2020 05:39:17 8.3 C 41 %
3923 17-03-2020 05:49:17 8.2 C 41 %
3924 17-03-2020 05:59:18 8.2 C 41 %
3925 17-03-2020 06:09:18 8.1 C 41 %
Sensor: Nr:Datum:Temp:Feuchte:
Aussen-T/F 3926 17-03-2020 06:19:18 8.1 C 41 %
3927 17-03-2020 06:29:18 8 C 41 %
3928 17-03-2020 06:39:18 8.2 C 41 %
3929 17-03-2020 06:49:18 8.1 C 41 %
3930 17-03-2020 06:59:18 8.2 C 41 %
3931 17-03-2020 07:09:17 8.8 C 40 %
3932 17-03-2020 07:19:17 9 C 40 %
3933 17-03-2020 07:29:17 9.5 C 39 %
3934 17-03-2020 07:39:17 9.6 C 39 %
3935 17-03-2020 07:49:18 9.6 C 39 %
3936 17-03-2020 07:59:18 9.8 C 38 %
3937 17-03-2020 08:09:18 10.1 C 37 %
3938 17-03-2020 08:19:17 10 C 37 %
3939 17-03-2020 08:29:17 9.8 C 38 %
3940 17-03-2020 08:39:17 9.9 C 38 %
3941 17-03-2020 08:49:17 9.9 C 38 %
3942 17-03-2020 08:59:17 10 C 37 %
3943 17-03-2020 09:09:17 10.2 C 37 %
3944 17-03-2020 09:19:18 10.4 C 37 %
3945 17-03-2020 09:29:18 10.4 C 37 %
3946 17-03-2020 09:39:18 10.6 C 37 %
3947 17-03-2020 09:49:17 10.6 C 37 %
3948 17-03-2020 09:59:17 10.7 C 37 %
3949 17-03-2020 10:09:17 10.7 C 37 %
3950 17-03-2020 10:19:17 10.9 C 36 %
Sensor: Nr:Datum:Temp:Feuchte:
Aussen-T/F 3951 17-03-2020 10:29:17 11 C 35 %
3952 17-03-2020 10:39:17 11.7 C 35 %
3953 17-03-2020 10:49:17 12.4 C 33 %
3954 17-03-2020 10:59:17 12.9 C 33 %
3955 17-03-2020 11:09:17 13.1 C 32 %
3956 17-03-2020 11:19:17 13.3 C 31 %
3957 17-03-2020 11:29:17 13.3 C 31 %
3958 17-03-2020 11:39:17 14.7 C 30 %
3959 17-03-2020 11:49:17 14.1 C 29 %
3960 17-03-2020 11:59:17 15.4 C 28 %
3961 17-03-2020 12:09:17 14.5 C 29 %
3962 17-03-2020 12:19:18 14.6 C 27 %
3963 17-03-2020 12:29:18 15.2 C 26 %
3964 17-03-2020 12:39:18 16.5 C 26 %
3965 17-03-2020 12:49:18 16.6 C 24 %
3966 17-03-2020 12:59:18 19.3 C 20 %
3967 17-03-2020 13:09:17 18.8 C 20 %
3968 17-03-2020 13:19:17 20.4 C 20 %
3969 17-03-2020 13:29:17 19.5 C 20 %
3970 17-03-2020 13:39:17 18.5 C 20 %
3971 17-03-2020 13:49:18 18.8 C 20 %
3972 17-03-2020 13:59:18 19.3 C 20 %
3973 17-03-2020 14:09:17 18.3 C 20 %
3974 17-03-2020 14:19:17 18.5 C 20 %
3975 17-03-2020 14:29:17 17.9 C 20 %
Sensor: Nr:Datum:Temp:Feuchte:
Aussen-T/F 3976 17-03-2020 14:39:18 17.1 C 20 %
3977 17-03-2020 14:49:18 20.5 C 20 %
3978 17-03-2020 14:59:18 22.2 C 20 %
3979 17-03-2020 15:09:17 22.5 C 20 %
3980 17-03-2020 15:19:17 22.1 C 20 %
3981 17-03-2020 15:29:17 23.8 C 20 %
3982 17-03-2020 15:39:18 23.6 C 20 %
3983 17-03-2020 15:49:17 23.8 C 20 %
3984 17-03-2020 15:59:17 23.9 C 20 %
3985 17-03-2020 16:09:18 23.3 C 20 %
3986 17-03-2020 16:19:18 21.8 C 20 %
3987 17-03-2020 16:29:18 23.2 C 20 %
3988 17-03-2020 16:39:17 21.4 C 20 %
3989 17-03-2020 16:49:17 22.3 C 20 %
3990 17-03-2020 16:59:17 20.1 C 20 %
3991 17-03-2020 17:09:17 18.7 C 20 %
3992 17-03-2020 17:19:18 17.7 C 20 %
3993 17-03-2020 17:29:18 17.3 C 20 %
3994 17-03-2020 17:39:18 16.8 C 20 %
3995 17-03-2020 17:49:17 16.1 C 22 %
3996 17-03-2020 17:59:18 15.3 C 24 %
3997 17-03-2020 18:09:18 14.1 C 27 %
3998 17-03-2020 18:19:17 13.5 C 28 %
3999 17-03-2020 18:29:17 13.2 C 29 %
4000 17-03-2020 18:39:18 12.8 C 30 %
Sensor: Nr:Datum:Temp:Feuchte:
Aussen-T/F 4001 17-03-2020 18:49:18 12.4 C 31 %
4002 17-03-2020 18:59:18 12 C 31 %
4003 17-03-2020 19:09:18 11.9 C 32 %
4004 17-03-2020 19:19:17 11.8 C 32 %
4005 17-03-2020 19:29:17 11.1 C 33 %
4006 17-03-2020 19:39:17 11 C 34 %
4007 17-03-2020 19:49:17 10.4 C 35 %
4008 17-03-2020 19:59:17 10.2 C 35 %
4009 17-03-2020 20:09:17 9.9 C 36 %
4010 17-03-2020 20:19:17 10.1 C 36 %
4011 17-03-2020 20:29:17 10.7 C 35 %
4012 17-03-2020 20:39:18 10.4 C 35 %
4013 17-03-2020 20:49:18 9.6 C 37 %
4014 17-03-2020 20:59:18 9.5 C 37 %
4015 17-03-2020 21:09:18 9 C 37 %
4016 17-03-2020 21:19:17 8.4 C 39 %
4017 17-03-2020 21:29:17 8.4 C 39 %
4018 17-03-2020 21:39:17 8.1 C 39 %
4019 17-03-2020 21:49:18 8 C 40 %
4020 17-03-2020 21:59:18 7.6 C 40 %
4021 17-03-2020 22:09:18 7.3 C 40 %
4022 17-03-2020 22:19:18 7.2 C 41 %
4023 17-03-2020 22:29:18 7 C 41 %
4024 17-03-2020 22:39:17 6.9 C 41 %
4025 17-03-2020 22:49:17 6.7 C 42 %
Sensor: Nr:Datum:Temp:Feuchte:
Aussen-T/F 4026 17-03-2020 22:59:17 6.5 C 42 %
4027 17-03-2020 23:09:17 6.4 C 42 %
4028 17-03-2020 23:19:17 6.3 C 42 %
4029 17-03-2020 23:29:17 6.1 C 42 %
4030 17-03-2020 23:39:18 6.1 C 42 %
4031 17-03-2020 23:49:18 6.2 C 43 %
4032 17-03-2020 23:59:18 6.3 C 43 %
4033 18-03-2020 00:09:17 5.9 C 43 %
4034 18-03-2020 00:19:17 5.8 C 44 %
4035 18-03-2020 00:29:17 5.9 C 44 %
4036 18-03-2020 00:39:17 5.8 C 44 %
4037 18-03-2020 00:49:17 6 C 44 %
4038 18-03-2020 00:59:17 6 C 43 %
4039 18-03-2020 01:09:17 5.7 C 44 %
4040 18-03-2020 01:19:17 5.6 C 44 %
4041 18-03-2020 01:29:17 5.3 C 44 %
4042 18-03-2020 01:39:17 5.6 C 45 %
4043 18-03-2020 01:49:17 5.3 C 45 %
4044 18-03-2020 01:59:17 5.6 C 46 %
4045 18-03-2020 02:09:17 5.1 C 44 %
4046 18-03-2020 02:19:17 4.8 C 45 %
4047 18-03-2020 02:29:17 4.8 C 45 %
4048 18-03-2020 02:39:17 4.6 C 46 %
4049 18-03-2020 02:49:18 4.3 C 46 %
4050 18-03-2020 02:59:18 4.3 C 46 %
Sensor: Nr:Datum:Temp:Feuchte:
Aussen-T/F 4051 18-03-2020 03:09:18 4.2 C 46 %
4052 18-03-2020 03:19:17 4.2 C 46 %
4053 18-03-2020 03:29:17 4.1 C 46 %
4054 18-03-2020 03:39:17 4 C 46 %
4055 18-03-2020 03:49:17 3.8 C 47 %
4056 18-03-2020 03:59:17 3.8 C 47 %
4057 18-03-2020 04:09:17 3.8 C 47 %
4058 18-03-2020 04:19:18 3.8 C 47 %
4059 18-03-2020 04:29:18 3.7 C 47 %
4060 18-03-2020 04:39:18 3.7 C 47 %
4061 18-03-2020 04:49:18 3.6 C 47 %
4062 18-03-2020 04:59:18 3.6 C 47 %
4063 18-03-2020 05:09:18 3.7 C 48 %
4064 18-03-2020 05:19:18 3.8 C 48 %
4065 18-03-2020 05:29:18 3.3 C 47 %
4066 18-03-2020 05:39:18 3.2 C 47 %
4067 18-03-2020 05:49:18 3.3 C 47 %
4068 18-03-2020 05:59:18 3.1 C 47 %
4069 18-03-2020 06:09:18 2.9 C 48 %
4070 18-03-2020 06:19:17 3.3 C 47 %
4071 18-03-2020 06:29:18 3.1 C 47 %
4072 18-03-2020 06:39:18 3.1 C 47 %
4073 18-03-2020 06:49:17 3.1 C 47 %
4074 18-03-2020 06:59:18 3.6 C 47 %
4075 18-03-2020 07:09:18 3.5 C 47 %
Sensor: Nr:Datum:Temp:Feuchte:
Aussen-T/F 4076 18-03-2020 07:19:17 3.4 C 47 %
4077 18-03-2020 07:29:17 3.7 C 47 %
4078 18-03-2020 07:39:17 3.9 C 47 %
4079 18-03-2020 07:49:18 4 C 46 %
4080 18-03-2020 07:59:18 4.9 C 46 %
4081 18-03-2020 08:09:18 4.6 C 46 %
4082 18-03-2020 08:19:18 4.5 C 46 %
4083 18-03-2020 08:29:18 4.7 C 46 %
4084 18-03-2020 08:39:17 5 C 45 %
4085 18-03-2020 08:49:18 5.3 C 46 %
4086 18-03-2020 08:59:18 5.6 C 46 %
4087 18-03-2020 09:09:17 6.7 C 45 %
4088 18-03-2020 09:19:17 7.1 C 45 %
4089 18-03-2020 09:29:17 8.5 C 45 %
4090 18-03-2020 09:39:17 9.7 C 41 %
4091 18-03-2020 09:49:18 10.5 C 40 %
4092 18-03-2020 09:59:18 11 C 38 %
4093 18-03-2020 10:09:18 11.1 C 38 %
4094 18-03-2020 10:19:18 11.6 C 38 %
4095 18-03-2020 10:29:18 11.6 C 37 %
4096 18-03-2020 10:39:18 11.7 C 38 %
4097 18-03-2020 10:49:18 12 C 36 %
4098 18-03-2020 10:59:18 12.2 C 35 %
4099 18-03-2020 11:09:18 12.7 C 35 %
4100 18-03-2020 11:19:18 12.8 C 34 %
Sensor: Nr:Datum:Temp:Feuchte:
Aussen-T/F 4101 18-03-2020 11:29:18 13.3 C 34 %
4102 18-03-2020 11:39:18 13.9 C 33 %
4103 18-03-2020 11:49:17 14.7 C 32 %
4104 18-03-2020 11:59:17 15.3 C 30 %
4105 18-03-2020 12:09:18 15.8 C 30 %
4106 18-03-2020 12:19:17 16.6 C 29 %
4107 18-03-2020 12:29:18 17 C 27 %
4108 18-03-2020 12:39:18 17.8 C 26 %
4109 18-03-2020 12:49:17 19.1 C 25 %
4110 18-03-2020 12:59:17 19.8 C 20 %
4111 18-03-2020 13:09:17 21 C 20 %
4112 18-03-2020 13:19:17 21.2 C 20 %
4113 18-03-2020 13:29:17 19.5 C 20 %
4114 18-03-2020 13:39:18 17.7 C 20 %
4115 18-03-2020 13:49:17 16.6 C 22 %
4116 18-03-2020 13:59:17 16 C 22 %
4117 18-03-2020 14:09:17 17.6 C 21 %
4118 18-03-2020 14:19:17 16.7 C 20 %
4119 18-03-2020 14:29:17 17.9 C 20 %
4120 18-03-2020 14:39:18 18.5 C 20 %
4121 18-03-2020 14:49:17 17.4 C 20 %
4122 18-03-2020 14:59:17 17.4 C 20 %
4123 18-03-2020 15:09:17 20.6 C 20 %
4124 18-03-2020 15:19:18 17.9 C 20 %
4125 18-03-2020 15:29:18 18.2 C 20 %
Sensor: Nr:Datum:Temp:Feuchte:
Aussen-T/F 4126 18-03-2020 15:39:18 17.7 C 20 %
4127 18-03-2020 15:49:17 16.9 C 20 %
4128 18-03-2020 15:59:17 16.7 C 21 %
4129 18-03-2020 16:09:17 16.4 C 21 %
4130 18-03-2020 16:19:17 16.4 C 22 %
4131 18-03-2020 16:29:17 16.4 C 20 %
4132 18-03-2020 16:39:17 16.5 C 20 %
4133 18-03-2020 16:49:18 16.2 C 21 %
4134 18-03-2020 16:59:18 16.1 C 21 %
4135 18-03-2020 17:09:17 16 C 21 %
4136 18-03-2020 17:19:17 16 C 21 %
4137 18-03-2020 17:29:17 15.7 C 22 %
4138 18-03-2020 17:39:18 16 C 20 %
4139 18-03-2020 17:49:17 16.3 C 20 %
4140 18-03-2020 17:59:17 15.8 C 22 %
4141 18-03-2020 18:09:17 15.4 C 22 %
4142 18-03-2020 18:19:17 14.7 C 26 %
4143 18-03-2020 18:29:17 13.7 C 26 %
4144 18-03-2020 18:39:17 13.3 C 28 %
4145 18-03-2020 18:49:17 12.7 C 30 %
4146 18-03-2020 18:59:17 12 C 31 %
4147 18-03-2020 19:09:17 11.7 C 32 %
4148 18-03-2020 19:19:18 11.5 C 32 %
4149 18-03-2020 19:29:18 10.5 C 34 %
4150 18-03-2020 19:39:18 10.9 C 34 %
Sensor: Nr:Datum:Temp:Feuchte:
Aussen-T/F 4151 18-03-2020 19:49:18 11.1 C 34 %
4152 18-03-2020 19:59:18 10.9 C 35 %
4153 18-03-2020 20:09:18 10.6 C 35 %
4154 18-03-2020 20:19:17 10.4 C 35 %
4155 18-03-2020 20:29:17 10.4 C 35 %
4156 18-03-2020 20:39:18 10 C 36 %
4157 18-03-2020 20:49:17 9.7 C 37 %
4158 18-03-2020 20:59:17 9.7 C 37 %
4159 18-03-2020 21:09:18 9.7 C 37 %
4160 18-03-2020 21:19:17 9.6 C 37 %
4161 18-03-2020 21:29:17 9.4 C 37 %
4162 18-03-2020 21:39:17 9 C 37 %
4163 18-03-2020 21:49:17 8.7 C 38 %
4164 18-03-2020 21:59:17 8.4 C 39 %
4165 18-03-2020 22:09:17 8.2 C 39 %
4166 18-03-2020 22:19:17 8.1 C 40 %
4167 18-03-2020 22:29:17 8 C 40 %
4168 18-03-2020 22:39:17 8 C 40 %
4169 18-03-2020 22:49:17 8.1 C 40 %
4170 18-03-2020 22:59:17 8.2 C 40 %
4171 18-03-2020 23:09:18 8.3 C 40 %
4172 18-03-2020 23:19:17 8.1 C 40 %
4173 18-03-2020 23:29:17 8 C 40 %
4174 18-03-2020 23:39:18 8 C 40 %
4175 18-03-2020 23:49:18 8.4 C 40 %
Sensor: Nr:Datum:Temp:Feuchte:
Aussen-T/F 4176 18-03-2020 23:59:18 8.9 C 40 %
Sensor: Nr:Datum:Temp:Feuchte:
G-T/H 1 19-02-2020 00:07:18 10.2 C 68 %
2 19-02-2020 00:17:17 10.2 C 68 %
3 19-02-2020 00:27:17 10.2 C 69 %
4 19-02-2020 00:37:17 10.2 C 69 %
5 19-02-2020 00:47:17 10.2 C 69 %
6 19-02-2020 00:57:17 10.2 C 69 %
7 19-02-2020 01:07:17 10.1 C 69 %
8 19-02-2020 01:17:17 10.1 C 69 %
9 19-02-2020 01:27:17 10.1 C 69 %
10 19-02-2020 01:37:17 10.1 C 69 %
11 19-02-2020 01:47:17 10.2 C 69 %
12 19-02-2020 01:57:17 10.1 C 69 %
13 19-02-2020 02:07:18 10.1 C 69 %
14 19-02-2020 02:17:17 10.1 C 69 %
15 19-02-2020 02:27:17 10.1 C 69 %
16 19-02-2020 02:37:17 10.1 C 69 %
17 19-02-2020 02:47:18 10.1 C 69 %
18 19-02-2020 02:57:18 10.1 C 69 %
19 19-02-2020 03:07:17 10.1 C 69 %
20 19-02-2020 03:17:17 10.1 C 69 %
21 19-02-2020 03:27:17 10.1 C 69 %
22 19-02-2020 03:37:17 10.1 C 69 %
23 19-02-2020 03:47:17 10.1 C 69 %
24 19-02-2020 03:57:17 10.1 C 69 %
25 19-02-2020 04:07:18 10.1 C 69 %
Sensor: Nr:Datum:Temp:Feuchte:
G-T/H 26 19-02-2020 04:17:17 10.1 C 69 %
27 19-02-2020 04:27:18 10.1 C 69 %
28 19-02-2020 04:37:18 10.1 C 69 %
29 19-02-2020 04:47:17 10.1 C 69 %
30 19-02-2020 04:57:17 10.1 C 69 %
31 19-02-2020 05:07:18 10.1 C 69 %
32 19-02-2020 05:17:17 10.1 C 69 %
33 19-02-2020 05:27:17 10.1 C 69 %
34 19-02-2020 05:37:17 10 C 69 %
35 19-02-2020 05:47:17 10.1 C 69 %
36 19-02-2020 05:57:17 10 C 69 %
37 19-02-2020 06:07:18 10.1 C 69 %
38 19-02-2020 06:17:17 10 C 69 %
39 19-02-2020 06:27:17 10.1 C 69 %
40 19-02-2020 06:37:18 10 C 69 %
41 19-02-2020 06:47:17 10 C 69 %
42 19-02-2020 06:57:17 10 C 70 %
43 19-02-2020 07:07:17 10 C 69 %
44 19-02-2020 07:17:17 10 C 69 %
45 19-02-2020 07:27:18 10 C 69 %
46 19-02-2020 07:37:18 10 C 69 %
47 19-02-2020 07:47:18 10 C 70 %
48 19-02-2020 07:57:18 10 C 70 %
49 19-02-2020 08:07:18 10 C 69 %
50 19-02-2020 08:17:17 10 C 69 %
Sensor: Nr:Datum:Temp:Feuchte:
G-T/H 51 19-02-2020 08:27:17 10 C 69 %
52 19-02-2020 08:37:17 10 C 69 %
53 19-02-2020 08:47:17 10 C 69 %
54 19-02-2020 08:57:17 10 C 69 %
55 19-02-2020 09:07:17 10 C 69 %
56 19-02-2020 09:17:18 10 C 69 %
57 19-02-2020 09:27:18 10 C 69 %
58 19-02-2020 09:37:18 10 C 69 %
59 19-02-2020 09:47:17 10 C 69 %
60 19-02-2020 09:57:17 10 C 69 %
61 19-02-2020 10:07:18 10 C 69 %
62 19-02-2020 10:17:17 9.9 C 71 %
63 19-02-2020 10:27:17 9.9 C 71 %
64 19-02-2020 10:37:17 9.9 C 71 %
65 19-02-2020 10:47:17 9.9 C 71 %
66 19-02-2020 10:57:17 9.9 C 71 %
67 19-02-2020 11:07:18 10 C 70 %
68 19-02-2020 11:17:17 9.9 C 71 %
69 19-02-2020 11:27:17 9.9 C 71 %
70 19-02-2020 11:37:17 9.9 C 71 %
71 19-02-2020 11:47:18 9.9 C 71 %
72 19-02-2020 11:57:18 9.9 C 71 %
73 19-02-2020 12:07:18 9.9 C 71 %
74 19-02-2020 12:17:17 9.9 C 71 %
75 19-02-2020 12:27:18 9.9 C 71 %
Sensor: Nr:Datum:Temp:Feuchte:
G-T/H 76 19-02-2020 12:37:18 9.9 C 71 %
77 19-02-2020 12:47:18 9.9 C 71 %
78 19-02-2020 12:57:18 9.9 C 71 %
79 19-02-2020 13:07:17 9.9 C 71 %
80 19-02-2020 13:17:17 9.9 C 71 %
81 19-02-2020 13:27:17 9.9 C 70 %
82 19-02-2020 13:37:18 9.9 C 70 %
83 19-02-2020 13:47:18 9.9 C 70 %
84 19-02-2020 13:57:18 9.9 C 70 %
85 19-02-2020 14:07:17 9.9 C 70 %
86 19-02-2020 14:17:17 9.9 C 70 %
87 19-02-2020 14:27:17 9.9 C 70 %
88 19-02-2020 14:37:17 10 C 69 %
89 19-02-2020 14:47:18 10 C 69 %
90 19-02-2020 14:57:18 9.9 C 70 %
91 19-02-2020 15:07:17 9.9 C 70 %
92 19-02-2020 15:17:17 10 C 69 %
93 19-02-2020 15:27:17 10 C 69 %
94 19-02-2020 15:37:17 9.9 C 71 %
95 19-02-2020 15:47:17 9.9 C 71 %
96 19-02-2020 15:57:17 9.9 C 71 %
97 19-02-2020 16:07:17 9.9 C 71 %
98 19-02-2020 16:17:17 9.9 C 71 %
99 19-02-2020 16:27:17 10 C 70 %
100 19-02-2020 16:37:18 10 C 70 %
Sensor: Nr:Datum:Temp:Feuchte:
G-T/H 101 19-02-2020 16:47:18 10 C 70 %
102 19-02-2020 16:57:18 10 C 70 %
103 19-02-2020 17:07:18 10 C 70 %
104 19-02-2020 17:17:18 10 C 70 %
105 19-02-2020 17:27:18 9.9 C 71 %
106 19-02-2020 17:37:17 10 C 70 %
107 19-02-2020 17:47:18 10 C 70 %
108 19-02-2020 17:57:18 10 C 70 %
109 19-02-2020 18:07:17 10 C 70 %
110 19-02-2020 18:17:17 9.9 C 71 %
111 19-02-2020 18:27:17 9.7 C 69 %
112 19-02-2020 18:37:17 9.6 C 67 %
113 19-02-2020 18:47:17 9.7 C 67 %
114 19-02-2020 18:57:17 9.8 C 68 %
115 19-02-2020 19:07:17 9.8 C 68 %
116 19-02-2020 19:17:17 9.8 C 68 %
117 19-02-2020 19:27:17 9.8 C 68 %
118 19-02-2020 19:37:17 9.8 C 68 %
119 19-02-2020 19:47:17 9.8 C 68 %
120 19-02-2020 19:57:17 9.8 C 68 %
121 19-02-2020 20:07:17 9.8 C 69 %
122 19-02-2020 20:17:17 9.8 C 69 %
123 19-02-2020 20:27:17 9.8 C 69 %
124 19-02-2020 20:37:17 9.8 C 69 %
125 19-02-2020 20:47:17 9.8 C 69 %
Sensor: Nr:Datum:Temp:Feuchte:
G-T/H 126 19-02-2020 20:57:17 9.8 C 69 %
127 19-02-2020 21:07:18 9.8 C 69 %
128 19-02-2020 21:17:17 9.8 C 69 %
129 19-02-2020 21:27:17 9.8 C 69 %
130 19-02-2020 21:37:17 9.8 C 69 %
131 19-02-2020 21:47:17 9.7 C 69 %
132 19-02-2020 21:57:17 9.7 C 69 %
133 19-02-2020 22:07:17 9.7 C 69 %
134 19-02-2020 22:17:18 9.7 C 69 %
135 19-02-2020 22:27:18 9.7 C 69 %
136 19-02-2020 22:37:18 9.7 C 69 %
137 19-02-2020 22:47:17 9.7 C 69 %
138 19-02-2020 22:57:18 9.7 C 69 %
139 19-02-2020 23:07:18 9.7 C 70 %
140 19-02-2020 23:17:17 9.7 C 70 %
141 19-02-2020 23:27:17 9.7 C 70 %
142 19-02-2020 23:37:17 9.7 C 70 %
143 19-02-2020 23:47:17 9.6 C 70 %
144 19-02-2020 23:57:17 9.6 C 70 %
145 20-02-2020 00:07:17 9.7 C 70 %
146 20-02-2020 00:17:17 9.7 C 70 %
147 20-02-2020 00:27:18 9.7 C 70 %
148 20-02-2020 00:37:18 9.6 C 70 %
149 20-02-2020 00:47:17 9.6 C 70 %
150 20-02-2020 00:57:17 9.6 C 70 %
Sensor: Nr:Datum:Temp:Feuchte:
G-T/H 151 20-02-2020 01:07:17 9.6 C 70 %
152 20-02-2020 01:17:17 9.6 C 70 %
153 20-02-2020 01:27:18 9.6 C 70 %
154 20-02-2020 01:37:18 9.6 C 70 %
155 20-02-2020 01:47:17 9.6 C 70 %
156 20-02-2020 01:57:17 9.6 C 70 %
157 20-02-2020 02:07:18 9.6 C 70 %
158 20-02-2020 02:17:17 9.6 C 70 %
159 20-02-2020 02:27:17 9.6 C 70 %
160 20-02-2020 02:37:17 9.6 C 71 %
161 20-02-2020 02:47:17 9.6 C 71 %
162 20-02-2020 02:57:17 9.6 C 71 %
163 20-02-2020 03:07:17 9.6 C 71 %
164 20-02-2020 03:17:17 9.6 C 71 %
165 20-02-2020 03:27:17 9.6 C 71 %
166 20-02-2020 03:37:18 9.6 C 71 %
167 20-02-2020 03:47:17 9.6 C 71 %
168 20-02-2020 03:57:17 9.6 C 71 %
169 20-02-2020 04:07:18 9.5 C 71 %
170 20-02-2020 04:17:17 9.5 C 71 %
171 20-02-2020 04:27:17 9.5 C 71 %
172 20-02-2020 04:37:17 9.5 C 71 %
173 20-02-2020 04:47:18 9.5 C 71 %
174 20-02-2020 04:57:18 9.5 C 71 %
175 20-02-2020 05:07:18 9.5 C 71 %
Sensor: Nr:Datum:Temp:Feuchte:
G-T/H 176 20-02-2020 05:17:17 9.5 C 71 %
177 20-02-2020 05:27:17 9.5 C 71 %
178 20-02-2020 05:37:17 9.5 C 71 %
179 20-02-2020 05:47:17 9.5 C 71 %
180 20-02-2020 05:57:17 9.5 C 71 %
181 20-02-2020 06:07:17 9.5 C 71 %
182 20-02-2020 06:17:17 9.5 C 71 %
183 20-02-2020 06:27:17 9.5 C 71 %
184 20-02-2020 06:37:17 9.5 C 71 %
185 20-02-2020 06:47:17 9.5 C 71 %
186 20-02-2020 06:57:17 9.5 C 71 %
187 20-02-2020 07:07:17 9.5 C 71 %
188 20-02-2020 07:17:17 9.5 C 71 %
189 20-02-2020 07:27:17 9.5 C 71 %
190 20-02-2020 07:37:17 9.5 C 71 %
191 20-02-2020 07:47:17 9.5 C 71 %
192 20-02-2020 07:57:17 9.5 C 72 %
193 20-02-2020 08:07:17 9.5 C 72 %
194 20-02-2020 08:17:17 9.5 C 72 %
195 20-02-2020 08:27:17 9.5 C 72 %
196 20-02-2020 08:37:17 9.5 C 72 %
197 20-02-2020 08:47:18 9.5 C 72 %
198 20-02-2020 08:57:18 9.5 C 72 %
199 20-02-2020 09:07:18 9.5 C 72 %
200 20-02-2020 09:17:18 9.5 C 72 %
Sensor: Nr:Datum:Temp:Feuchte:
G-T/H 201 20-02-2020 09:27:18 9.5 C 72 %
202 20-02-2020 09:37:17 9.5 C 72 %
203 20-02-2020 09:47:17 9.5 C 72 %
204 20-02-2020 09:57:17 9.5 C 72 %
205 20-02-2020 10:07:18 9.5 C 72 %
206 20-02-2020 10:17:17 9.5 C 72 %
207 20-02-2020 10:27:17 9.6 C 72 %
208 20-02-2020 10:37:17 9.6 C 72 %
209 20-02-2020 10:47:17 9.5 C 72 %
210 20-02-2020 10:57:17 9.6 C 72 %
211 20-02-2020 11:07:18 9.6 C 72 %
212 20-02-2020 11:17:18 9.6 C 72 %
213 20-02-2020 11:27:18 9.6 C 72 %
214 20-02-2020 11:37:18 9.6 C 72 %
215 20-02-2020 11:47:17 9.6 C 72 %
216 20-02-2020 11:57:18 9.6 C 72 %
217 20-02-2020 12:07:18 9.6 C 72 %
218 20-02-2020 12:17:18 9.6 C 72 %
219 20-02-2020 12:27:18 9.6 C 72 %
220 20-02-2020 12:37:18 9.6 C 72 %
221 20-02-2020 12:47:18 9.6 C 72 %
222 20-02-2020 12:57:18 9.6 C 72 %
223 20-02-2020 13:07:18 9.7 C 72 %
224 20-02-2020 13:17:18 9.7 C 72 %
225 20-02-2020 13:27:18 9.7 C 72 %
Sensor: Nr:Datum:Temp:Feuchte:
G-T/H 226 20-02-2020 13:37:18 9.7 C 72 %
227 20-02-2020 13:47:17 9.7 C 72 %
228 20-02-2020 13:57:17 9.7 C 72 %
229 20-02-2020 14:07:17 9.7 C 72 %
230 20-02-2020 14:17:17 9.7 C 72 %
231 20-02-2020 14:27:18 9.8 C 72 %
232 20-02-2020 14:37:18 9.7 C 72 %
233 20-02-2020 14:47:17 9.7 C 73 %
234 20-02-2020 14:57:17 9.8 C 73 %
235 20-02-2020 15:07:18 9.8 C 73 %
236 20-02-2020 15:17:17 9.8 C 73 %
237 20-02-2020 15:27:18 9.8 C 73 %
238 20-02-2020 15:37:18 9.8 C 73 %
239 20-02-2020 15:47:17 9.8 C 73 %
240 20-02-2020 15:57:17 9.8 C 73 %
241 20-02-2020 16:07:17 9.8 C 73 %
242 20-02-2020 16:17:17 9.9 C 73 %
243 20-02-2020 16:27:18 9.9 C 73 %
244 20-02-2020 16:37:18 9.8 C 73 %
245 20-02-2020 16:47:17 9.9 C 73 %
246 20-02-2020 16:57:17 9.9 C 73 %
247 20-02-2020 17:07:18 9.9 C 73 %
248 20-02-2020 17:17:17 9.9 C 73 %
249 20-02-2020 17:27:18 10 C 72 %
250 20-02-2020 17:37:18 9.9 C 73 %
Sensor: Nr:Datum:Temp:Feuchte:
G-T/H 251 20-02-2020 17:47:17 10 C 72 %
252 20-02-2020 17:57:17 10 C 72 %
253 20-02-2020 18:07:18 10 C 72 %
254 20-02-2020 18:17:18 10 C 72 %
255 20-02-2020 18:27:18 10 C 72 %
256 20-02-2020 18:37:18 10 C 72 %
257 20-02-2020 18:47:18 10 C 72 %
258 20-02-2020 18:57:18 10 C 72 %
259 20-02-2020 19:07:18 10 C 72 %
260 20-02-2020 19:17:18 10 C 72 %
261 20-02-2020 19:27:18 10 C 72 %
262 20-02-2020 19:37:17 10 C 72 %
263 20-02-2020 19:47:18 10 C 72 %
264 20-02-2020 19:57:18 10 C 72 %
265 20-02-2020 20:07:18 10.1 C 72 %
266 20-02-2020 20:17:18 10 C 72 %
267 20-02-2020 20:27:18 10.1 C 72 %
268 20-02-2020 20:37:18 10.1 C 72 %
269 20-02-2020 20:47:18 10.1 C 72 %
270 20-02-2020 20:57:18 10.1 C 72 %
271 20-02-2020 21:07:18 10.1 C 72 %
272 20-02-2020 21:17:18 10.1 C 72 %
273 20-02-2020 21:27:18 10.1 C 72 %
274 20-02-2020 21:37:18 10.1 C 72 %
275 20-02-2020 21:47:17 10.1 C 72 %
Sensor: Nr:Datum:Temp:Feuchte:
G-T/H 276 20-02-2020 21:57:18 10.1 C 72 %
277 20-02-2020 22:07:18 10.1 C 72 %
278 20-02-2020 22:17:17 10.1 C 72 %
279 20-02-2020 22:27:18 10.1 C 72 %
280 20-02-2020 22:37:18 10.1 C 72 %
281 20-02-2020 22:47:18 10.1 C 72 %
282 20-02-2020 22:57:18 10.1 C 72 %
283 20-02-2020 23:07:18 10.1 C 72 %
284 20-02-2020 23:17:18 10.1 C 72 %
285 20-02-2020 23:27:18 10.1 C 72 %
286 20-02-2020 23:37:17 10.1 C 72 %
287 20-02-2020 23:47:17 10.1 C 72 %
288 20-02-2020 23:57:17 10.1 C 72 %
289 21-02-2020 00:07:17 10.1 C 72 %
290 21-02-2020 00:17:18 10.1 C 72 %
291 21-02-2020 00:27:18 10.1 C 72 %
292 21-02-2020 00:37:18 10.1 C 72 %
293 21-02-2020 00:47:18 10.1 C 72 %
294 21-02-2020 00:57:18 10.1 C 72 %
295 21-02-2020 01:07:18 10.1 C 72 %
296 21-02-2020 01:17:17 10.1 C 72 %
297 21-02-2020 01:27:17 10.1 C 72 %
298 21-02-2020 01:37:17 10.1 C 71 %
299 21-02-2020 01:47:17 10 C 71 %
300 21-02-2020 01:57:17 10.1 C 71 %
Sensor: Nr:Datum:Temp:Feuchte:
G-T/H 301 21-02-2020 02:07:18 10.1 C 71 %
302 21-02-2020 02:17:18 10.1 C 71 %
303 21-02-2020 02:27:18 10.1 C 71 %
304 21-02-2020 02:37:18 10 C 71 %
305 21-02-2020 02:47:17 10 C 71 %
306 21-02-2020 02:57:18 10 C 71 %
307 21-02-2020 03:07:18 10 C 71 %
308 21-02-2020 03:17:18 10 C 71 %
309 21-02-2020 03:27:18 10 C 71 %
310 21-02-2020 03:37:18 10 C 71 %
311 21-02-2020 03:47:17 10 C 71 %
312 21-02-2020 03:57:17 10 C 71 %
313 21-02-2020 04:07:18 9.9 C 72 %
314 21-02-2020 04:17:18 9.9 C 72 %
315 21-02-2020 04:27:18 9.9 C 72 %
316 21-02-2020 04:37:18 9.9 C 71 %
317 21-02-2020 04:47:17 9.9 C 71 %
318 21-02-2020 04:57:17 9.9 C 71 %
319 21-02-2020 05:07:17 9.8 C 71 %
320 21-02-2020 05:17:17 9.8 C 71 %
321 21-02-2020 05:27:17 9.8 C 71 %
322 21-02-2020 05:37:17 9.8 C 71 %
323 21-02-2020 05:47:17 9.8 C 71 %
324 21-02-2020 05:57:17 9.8 C 71 %
325 21-02-2020 06:07:17 9.8 C 71 %
Sensor: Nr:Datum:Temp:Feuchte:
G-T/H 326 21-02-2020 06:17:17 9.7 C 71 %
327 21-02-2020 06:27:17 9.7 C 71 %
328 21-02-2020 06:37:18 9.7 C 71 %
329 21-02-2020 06:47:17 9.7 C 71 %
330 21-02-2020 06:57:17 9.7 C 71 %
331 21-02-2020 07:07:17 9.7 C 71 %
332 21-02-2020 07:17:18 9.6 C 71 %
333 21-02-2020 07:27:18 9.6 C 71 %
334 21-02-2020 07:37:18 9.6 C 71 %
335 21-02-2020 07:47:17 9.6 C 71 %
336 21-02-2020 07:57:17 9.6 C 71 %
337 21-02-2020 08:07:17 9.6 C 71 %
338 21-02-2020 08:17:17 9.5 C 71 %
339 21-02-2020 08:27:17 9.5 C 71 %
340 21-02-2020 08:37:17 9.5 C 71 %
341 21-02-2020 08:47:17 9.5 C 71 %
342 21-02-2020 08:57:17 9.5 C 71 %
343 21-02-2020 09:07:17 9.5 C 71 %
344 21-02-2020 09:17:17 9.5 C 71 %
345 21-02-2020 09:27:17 9.5 C 71 %
346 21-02-2020 09:37:17 9.4 C 71 %
347 21-02-2020 09:47:17 9.4 C 71 %
348 21-02-2020 09:57:17 9.4 C 71 %
349 21-02-2020 10:07:17 9.4 C 71 %
350 21-02-2020 10:17:17 9.3 C 71 %
Sensor: Nr:Datum:Temp:Feuchte:
G-T/H 351 21-02-2020 10:27:17 9.3 C 71 %
352 21-02-2020 10:37:18 9.3 C 71 %
353 21-02-2020 10:47:17 9.3 C 71 %
354 21-02-2020 10:57:17 9.3 C 71 %
355 21-02-2020 11:07:18 9.3 C 71 %
356 21-02-2020 11:17:17 9.3 C 71 %
357 21-02-2020 11:27:17 9.3 C 71 %
358 21-02-2020 11:37:18 9.3 C 71 %
359 21-02-2020 11:47:17 9.3 C 71 %
360 21-02-2020 11:57:17 9.3 C 71 %
361 21-02-2020 12:07:18 9.3 C 71 %
362 21-02-2020 12:17:18 9.3 C 71 %
363 21-02-2020 12:27:18 9.3 C 71 %
364 21-02-2020 12:37:18 9.3 C 71 %
365 21-02-2020 12:47:17 9.3 C 71 %
366 21-02-2020 12:57:17 9.3 C 71 %
367 21-02-2020 13:07:17 9.3 C 71 %
368 21-02-2020 13:17:18 9.3 C 71 %
369 21-02-2020 13:27:18 9.3 C 71 %
370 21-02-2020 13:37:18 9.3 C 71 %
371 21-02-2020 13:47:17 9.3 C 71 %
372 21-02-2020 13:57:17 9.3 C 71 %
373 21-02-2020 14:07:18 9.3 C 71 %
374 21-02-2020 14:17:17 9.3 C 72 %
375 21-02-2020 14:27:18 9.3 C 72 %
Sensor: Nr:Datum:Temp:Feuchte:
G-T/H 376 21-02-2020 14:37:18 9.3 C 72 %
377 21-02-2020 14:47:17 9.3 C 72 %
378 21-02-2020 14:57:17 9.3 C 72 %
379 21-02-2020 15:07:18 9.3 C 72 %
380 21-02-2020 15:17:18 9.3 C 72 %
381 21-02-2020 15:27:18 9.4 C 72 %
382 21-02-2020 15:37:18 9.3 C 72 %
383 21-02-2020 15:47:17 9.3 C 72 %
384 21-02-2020 15:57:17 9.4 C 72 %
385 21-02-2020 16:07:17 9.4 C 72 %
386 21-02-2020 16:17:17 9.4 C 72 %
387 21-02-2020 16:27:17 9.4 C 72 %
388 21-02-2020 16:37:17 9.4 C 72 %
389 21-02-2020 16:47:17 9.4 C 72 %
390 21-02-2020 16:57:17 9.4 C 72 %
391 21-02-2020 17:07:18 9.5 C 72 %
392 21-02-2020 17:17:17 9.5 C 72 %
393 21-02-2020 17:27:17 9.4 C 72 %
394 21-02-2020 17:37:18 9.4 C 72 %
395 21-02-2020 17:47:17 9.4 C 72 %
396 21-02-2020 17:57:18 9.4 C 72 %
397 21-02-2020 18:07:18 9.4 C 72 %
398 21-02-2020 18:17:17 9.5 C 72 %
399 21-02-2020 18:27:17 9.4 C 72 %
400 21-02-2020 18:37:17 9.5 C 72 %
Sensor: Nr:Datum:Temp:Feuchte:
G-T/H 401 21-02-2020 18:47:17 9.5 C 72 %
402 21-02-2020 18:57:17 9.4 C 72 %
403 21-02-2020 19:07:17 9.4 C 72 %
404 21-02-2020 19:17:17 9.5 C 72 %
405 21-02-2020 19:27:17 9.4 C 72 %
406 21-02-2020 19:37:17 9.4 C 72 %
407 21-02-2020 19:47:17 9.4 C 72 %
408 21-02-2020 19:57:17 9.4 C 72 %
409 21-02-2020 20:07:18 9.5 C 72 %
410 21-02-2020 20:17:18 9.5 C 72 %
411 21-02-2020 20:27:18 9.5 C 72 %
412 21-02-2020 20:37:18 9.5 C 72 %
413 21-02-2020 20:47:17 9.5 C 72 %
414 21-02-2020 20:57:17 9.5 C 72 %
415 21-02-2020 21:07:18 9.5 C 72 %
416 21-02-2020 21:17:18 9.5 C 72 %
417 21-02-2020 21:27:18 9.5 C 72 %
418 21-02-2020 21:37:18 9.5 C 72 %
419 21-02-2020 21:47:18 9.5 C 72 %
420 21-02-2020 21:57:18 9.5 C 72 %
421 21-02-2020 22:07:18 9.4 C 72 %
422 21-02-2020 22:17:17 9.5 C 72 %
423 21-02-2020 22:27:17 9.4 C 72 %
424 21-02-2020 22:37:17 9.5 C 72 %
425 21-02-2020 22:47:17 9.5 C 72 %
Sensor: Nr:Datum:Temp:Feuchte:
G-T/H 426 21-02-2020 22:57:17 9.5 C 72 %
427 21-02-2020 23:07:17 9.4 C 72 %
428 21-02-2020 23:17:17 9.4 C 72 %
429 21-02-2020 23:27:18 9.4 C 72 %
430 21-02-2020 23:37:18 9.4 C 72 %
431 21-02-2020 23:47:18 9.4 C 72 %
432 21-02-2020 23:57:18 9.4 C 72 %
433 22-02-2020 00:07:18 9.4 C 72 %
434 22-02-2020 00:17:17 9.4 C 72 %
435 22-02-2020 00:27:17 9.3 C 72 %
436 22-02-2020 00:37:17 9.3 C 72 %
437 22-02-2020 00:47:18 9.3 C 72 %
438 22-02-2020 00:57:18 9.3 C 72 %
439 22-02-2020 01:07:18 9.3 C 72 %
440 22-02-2020 01:17:18 9.3 C 72 %
441 22-02-2020 01:27:18 9.3 C 72 %
442 22-02-2020 01:37:18 9.3 C 72 %
443 22-02-2020 01:47:17 9.3 C 72 %
444 22-02-2020 01:57:18 9.3 C 72 %
445 22-02-2020 02:07:18 9.3 C 71 %
446 22-02-2020 02:17:18 9.3 C 71 %
447 22-02-2020 02:27:18 9.3 C 71 %
448 22-02-2020 02:37:17 9.3 C 71 %
449 22-02-2020 02:47:17 9.2 C 72 %
450 22-02-2020 02:57:17 9.2 C 71 %
Sensor: Nr:Datum:Temp:Feuchte:
G-T/H 451 22-02-2020 03:07:17 9.2 C 71 %
452 22-02-2020 03:17:17 9.2 C 71 %
453 22-02-2020 03:27:17 9.2 C 71 %
454 22-02-2020 03:37:17 9.2 C 71 %
455 22-02-2020 03:47:17 9.2 C 71 %
456 22-02-2020 03:57:18 9.2 C 71 %
457 22-02-2020 04:07:18 9.2 C 71 %
458 22-02-2020 04:17:18 9.2 C 71 %
459 22-02-2020 04:27:18 9.2 C 71 %
460 22-02-2020 04:37:18 9.2 C 71 %
461 22-02-2020 04:47:17 9.2 C 71 %
462 22-02-2020 04:57:18 9.1 C 71 %
463 22-02-2020 05:07:18 9.1 C 71 %
464 22-02-2020 05:17:18 9.1 C 71 %
465 22-02-2020 05:27:18 9.1 C 71 %
466 22-02-2020 05:37:17 9.1 C 71 %
467 22-02-2020 05:47:18 9.1 C 71 %
468 22-02-2020 05:57:18 9.1 C 71 %
469 22-02-2020 06:07:18 9.1 C 71 %
470 22-02-2020 06:17:17 9.1 C 71 %
471 22-02-2020 06:27:17 9.1 C 71 %
472 22-02-2020 06:37:17 9.1 C 71 %
473 22-02-2020 06:47:18 9.1 C 71 %
474 22-02-2020 06:57:18 9 C 71 %
475 22-02-2020 07:07:18 9 C 71 %
Sensor: Nr:Datum:Temp:Feuchte:
G-T/H 476 22-02-2020 07:17:18 9 C 71 %
477 22-02-2020 07:27:18 9 C 71 %
478 22-02-2020 07:37:18 9.1 C 71 %
479 22-02-2020 07:47:17 9 C 71 %
480 22-02-2020 07:57:18 9 C 71 %
481 22-02-2020 08:07:18 9 C 71 %
482 22-02-2020 08:17:18 9 C 71 %
483 22-02-2020 08:27:18 9 C 71 %
484 22-02-2020 08:37:18 9 C 71 %
485 22-02-2020 08:47:17 9 C 71 %
486 22-02-2020 08:57:17 9 C 71 %
487 22-02-2020 09:07:17 9 C 71 %
488 22-02-2020 09:17:17 9 C 71 %
489 22-02-2020 09:27:17 9 C 72 %
490 22-02-2020 09:37:17 9 C 72 %
491 22-02-2020 09:47:17 9 C 72 %
492 22-02-2020 09:57:17 9 C 72 %
493 22-02-2020 10:07:17 9 C 72 %
494 22-02-2020 10:17:17 9.1 C 72 %
495 22-02-2020 10:27:17 9 C 72 %
496 22-02-2020 10:37:17 9 C 72 %
497 22-02-2020 10:47:18 9 C 72 %
498 22-02-2020 10:57:18 9 C 72 %
499 22-02-2020 11:07:18 9 C 72 %
500 22-02-2020 11:17:18 9 C 72 %
Sensor: Nr:Datum:Temp:Feuchte:
G-T/H 501 22-02-2020 11:27:18 9 C 72 %
502 22-02-2020 11:37:18 9 C 72 %
503 22-02-2020 11:47:17 9 C 72 %
504 22-02-2020 11:57:17 9.1 C 72 %
505 22-02-2020 12:07:18 9.1 C 72 %